<?xml version="1.0" encoding="UTF-8" standalone="no" ?><gpx xmlns="http://www.topografix.com/GPX/1/1" xmlns:gpxx="http://www.garmin.com/xmlschemas/GpxExtensions/v3" xmlns:gpxtrkx="http://www.garmin.com/xmlschemas/TrackStatsExtension/v1" xmlns:wptx1="http://www.garmin.com/xmlschemas/WaypointExtension/v1" xmlns:gpxtpx="http://www.garmin.com/xmlschemas/TrackPointExtension/v1" creator="GPSMAP 64" version="1.1" xmlns:xsi="http://www.w3.org/2001/XMLSchema-instance" xsi:schemaLocation="http://www.topografix.com/GPX/1/1 http://www.topografix.com/GPX/1/1/gpx.xsd http://www.garmin.com/xmlschemas/GpxExtensions/v3 http://www8.garmin.com/xmlschemas/GpxExtensionsv3.xsd http://www.garmin.com/xmlschemas/TrackStatsExtension/v1 http://www8.garmin.com/xmlschemas/TrackStatsExtension.xsd http://www.garmin.com/xmlschemas/WaypointExtension/v1 http://www8.garmin.com/xmlschemas/WaypointExtensionv1.xsd http://www.garmin.com/xmlschemas/TrackPointExtension/v1 http://www.garmin.com/xmlschemas/TrackPointExtensionv1.xsd"><metadata><link href="http://www.garmin.com"><text>Garmin International</text></link><time>2026-08-14T04:38:49Z</time></metadata><trk><name>20260814-ЛИСА7</name><extensions><gpxx:TrackExtension><gpxx:DisplayColor>Red</gpxx:DisplayColor></gpxx:TrackExtension><gpxtrkx:TrackStatsExtension><gpxtrkx:Distance>404483.000</gpxtrkx:Distance><gpxtrkx:TotalElapsedTime>3438364</gpxtrkx:TotalElapsedTime><gpxtrkx:MovingTime>41832</gpxtrkx:MovingTime><gpxtrkx:StoppedTime>11875</gpxtrkx:StoppedTime><gpxtrkx:MovingSpeed>9.669</gpxtrkx:MovingSpeed><gpxtrkx:MaxSpeed>746.491</gpxtrkx:MaxSpeed><gpxtrkx:MaxElevation>6418.150</gpxtrkx:MaxElevation><gpxtrkx:MinElevation>-432.575</gpxtrkx:MinElevation><gpxtrkx:Ascent>90518.000</gpxtrkx:Ascent><gpxtrkx:Descent>94504.555</gpxtrkx:Descent><gpxtrkx:AvgAscentRate>0.053</gpxtrkx:AvgAscentRate><gpxtrkx:MaxAscentRate>5.365</gpxtrkx:MaxAscentRate><gpxtrkx:AvgDescentRate>0.056</gpxtrkx:AvgDescentRate><gpxtrkx:MaxDescentRate>-7.542</gpxtrkx:MaxDescentRate></gpxtrkx:TrackStatsExtension></extensions><trkseg><trkpt lat="60.1181120239" lon="31.3986407127"><ele>92.45</ele><time>2026-07-05T09:32:45Z</time></trkpt><trkpt lat="60.1171182655" lon="31.4040270913"><ele>99.82</ele><time>2026-07-05T09:32:54Z</time></trkpt><trkpt lat="60.1168346219" lon="31.4047856536"><ele>96.17</ele><time>2026-07-05T09:32:58Z</time></trkpt><trkpt lat="60.1166864298" lon="31.4003262296"><ele>93.79</ele><time>2026-07-05T09:33:03Z</time></trkpt><trkpt lat="60.1161943283" lon="31.3932593632"><ele>91.37</ele><time>2026-07-05T09:33:12Z</time></trkpt><trkpt lat="60.1156795956" lon="31.3865804113"><ele>90.80</ele><time>2026-07-05T09:33:21Z</time></trkpt><trkpt lat="60.1157214213" lon="31.3830239698"><ele>91.68</ele><time>2026-07-05T09:33:26Z</time></trkpt><trkpt lat="60.1154735684" lon="31.3802761305"><ele>93.56</ele><time>2026-07-05T09:33:30Z</time></trkpt><trkpt lat="60.1152183395" lon="31.3782770466"><ele>93.09</ele><time>2026-07-05T09:33:33Z</time></trkpt><trkpt lat="60.1156164799" lon="31.3751888182"><ele>93.19</ele><time>2026-07-05T09:33:37Z</time></trkpt><trkpt lat="60.1156878099" lon="31.3714846876"><ele>95.75</ele><time>2026-07-05T09:33:43Z</time></trkpt><trkpt lat="60.1156307291" lon="31.3703214470"><ele>95.23</ele><time>2026-07-05T09:33:45Z</time></trkpt><trkpt lat="60.1156728901" lon="31.3697819877"><ele>94.53</ele><time>2026-07-05T09:33:46Z</time></trkpt><trkpt lat="60.1174923498" lon="31.3694115914"><ele>90.97</ele><time>2026-07-05T09:33:52Z</time></trkpt><trkpt lat="60.1178919151" lon="31.3702040166"><ele>90.78</ele><time>2026-07-05T09:33:53Z</time></trkpt><trkpt lat="60.1182543486" lon="31.3709656801"><ele>90.30</ele><time>2026-07-05T09:33:54Z</time></trkpt><trkpt lat="60.1181598008" lon="31.3755986933"><ele>91.67</ele><time>2026-07-05T09:34:00Z</time></trkpt><trkpt lat="60.1177005563" lon="31.3798062410"><ele>95.32</ele><time>2026-07-05T09:34:06Z</time></trkpt><trkpt lat="60.1177038252" lon="31.3810387999"><ele>95.49</ele><time>2026-07-05T09:34:08Z</time></trkpt><trkpt lat="60.1178884786" lon="31.3831325155"><ele>96.14</ele><time>2026-07-05T09:34:12Z</time></trkpt><trkpt lat="60.1179566234" lon="31.3857275527"><ele>100.11</ele><time>2026-07-05T09:34:17Z</time></trkpt><trkpt lat="60.1181125268" lon="31.3863773178"><ele>101.85</ele><time>2026-07-05T09:34:18Z</time></trkpt><trkpt lat="60.1183233317" lon="31.3906964287"><ele>110.60</ele><time>2026-07-05T09:34:25Z</time></trkpt><trkpt lat="60.1182766445" lon="31.3962969650"><ele>112.28</ele><time>2026-07-05T09:34:34Z</time></trkpt><trkpt lat="60.1176427212" lon="31.4004911017"><ele>110.41</ele><time>2026-07-05T09:34:41Z</time></trkpt><trkpt lat="60.1168419980" lon="31.4046357013"><ele>109.72</ele><time>2026-07-05T09:34:48Z</time></trkpt><trkpt lat="60.1149639487" lon="31.4048952051"><ele>117.14</ele><time>2026-07-05T09:34:53Z</time></trkpt><trkpt lat="60.1160287857" lon="31.3964770921"><ele>119.30</ele><time>2026-07-05T09:34:56Z</time></trkpt><trkpt lat="60.1159990299" lon="31.3955259975"><ele>119.80</ele><time>2026-07-05T09:34:57Z</time></trkpt><trkpt lat="60.1154221036" lon="31.3882135414"><ele>117.62</ele><time>2026-07-05T09:35:08Z</time></trkpt><trkpt lat="60.1154614147" lon="31.3844707701"><ele>116.98</ele><time>2026-07-05T09:35:14Z</time></trkpt><trkpt lat="60.1155653503" lon="31.3807353750"><ele>116.78</ele><time>2026-07-05T09:35:20Z</time></trkpt><trkpt lat="60.1151957083" lon="31.3778639026"><ele>118.02</ele><time>2026-07-05T09:35:25Z</time></trkpt><trkpt lat="60.1151770167" lon="31.3773575518"><ele>117.44</ele><time>2026-07-05T09:35:26Z</time></trkpt><trkpt lat="60.1158391871" lon="31.3750580605"><ele>118.32</ele><time>2026-07-05T09:35:30Z</time></trkpt><trkpt lat="60.1159732975" lon="31.3744602632"><ele>118.59</ele><time>2026-07-05T09:35:31Z</time></trkpt><trkpt lat="60.1160591282" lon="31.3732016366"><ele>119.59</ele><time>2026-07-05T09:35:33Z</time></trkpt><trkpt lat="60.1159096789" lon="31.3702157512"><ele>121.55</ele><time>2026-07-05T09:35:38Z</time></trkpt><trkpt lat="60.1162144449" lon="31.3681061938"><ele>123.40</ele><time>2026-07-05T09:35:42Z</time></trkpt><trkpt lat="60.1181849465" lon="31.3715431094"><ele>118.33</ele><time>2026-07-05T09:35:47Z</time></trkpt><trkpt lat="60.1185102481" lon="31.3733243477"><ele>118.04</ele><time>2026-07-05T09:35:49Z</time></trkpt><trkpt lat="60.1182423625" lon="31.3761384878"><ele>119.89</ele><time>2026-07-05T09:35:53Z</time></trkpt><trkpt lat="60.1178644225" lon="31.3774994574"><ele>119.50</ele><time>2026-07-05T09:35:55Z</time></trkpt><trkpt lat="60.1176078524" lon="31.3812192623"><ele>117.91</ele><time>2026-07-05T09:36:01Z</time></trkpt><trkpt lat="60.1177313179" lon="31.3823232427"><ele>117.30</ele><time>2026-07-05T09:36:03Z</time></trkpt></trkseg><trkseg><trkpt lat="60.1173665375" lon="31.3838868868"><ele>116.52</ele><time>2026-07-05T09:36:06Z</time></trkpt><trkpt lat="60.1177918352" lon="31.3865752984"><ele>115.04</ele><time>2026-07-05T09:36:11Z</time></trkpt><trkpt lat="60.1182728726" lon="31.3902826980"><ele>113.22</ele><time>2026-07-05T09:36:17Z</time></trkpt><trkpt lat="60.1182463858" lon="31.3971366640"><ele>115.34</ele><time>2026-07-05T09:36:28Z</time></trkpt><trkpt lat="60.1170176826" lon="31.4041504730"><ele>112.90</ele><time>2026-07-05T09:36:40Z</time></trkpt><trkpt lat="60.1170293335" lon="31.4040790591"><ele>109.82</ele><time>2026-07-05T09:36:43Z</time></trkpt><trkpt lat="60.1170102227" lon="31.4015942439"><ele>108.31</ele><time>2026-07-05T09:36:45Z</time></trkpt><trkpt lat="60.1161238365" lon="31.3933555875"><ele>103.36</ele><time>2026-07-05T09:36:55Z</time></trkpt><trkpt lat="60.1155490894" lon="31.3884646632"><ele>101.51</ele><time>2026-07-05T09:37:02Z</time></trkpt><trkpt lat="60.1155625843" lon="31.3813009858"><ele>110.36</ele><time>2026-07-05T09:37:12Z</time></trkpt><trkpt lat="60.1151987258" lon="31.3776576240"><ele>111.98</ele><time>2026-07-05T09:37:18Z</time></trkpt><trkpt lat="60.1151708141" lon="31.3771008980"><ele>111.25</ele><time>2026-07-05T09:37:19Z</time></trkpt><trkpt lat="60.1159846131" lon="31.3748761732"><ele>111.93</ele><time>2026-07-05T09:37:23Z</time></trkpt></trkseg><trkseg><trkpt lat="60.1170513779" lon="31.4007324167"><ele>108.94</ele><time>2026-07-25T07:06:28Z</time></trkpt><trkpt lat="60.1173305791" lon="31.4035173878"><ele>113.38</ele><time>2026-07-25T07:06:33Z</time></trkpt><trkpt lat="60.1177759096" lon="31.3957855850"><ele>106.27</ele><time>2026-07-25T07:06:40Z</time></trkpt><trkpt lat="60.1174777653" lon="31.3849649671"><ele>102.39</ele><time>2026-07-25T07:06:58Z</time></trkpt><trkpt lat="60.1171615999" lon="31.3763935491"><ele>101.77</ele><time>2026-07-25T07:07:12Z</time></trkpt><trkpt lat="60.1168875955" lon="31.3703153282"><ele>103.55</ele><time>2026-07-25T07:07:22Z</time></trkpt><trkpt lat="60.1158339065" lon="31.3806560822"><ele>106.24</ele><time>2026-07-25T07:07:40Z</time></trkpt><trkpt lat="60.1157128718" lon="31.3818727992"><ele>106.38</ele><time>2026-07-25T07:07:42Z</time></trkpt><trkpt lat="60.1158778276" lon="31.3855348527"><ele>106.10</ele><time>2026-07-25T07:07:48Z</time></trkpt><trkpt lat="60.1169522200" lon="31.3996602036"><ele>103.22</ele><time>2026-07-25T07:08:11Z</time></trkpt><trkpt lat="60.1173632685" lon="31.4036571141"><ele>104.16</ele><time>2026-07-25T07:08:18Z</time></trkpt><trkpt lat="60.1176068466" lon="31.4033033978"><ele>105.79</ele><time>2026-07-25T07:08:19Z</time></trkpt><trkpt lat="60.1175164897" lon="31.3872629497"><ele>99.32</ele><time>2026-07-25T07:08:39Z</time></trkpt><trkpt lat="60.1171766035" lon="31.3774583861"><ele>102.17</ele><time>2026-07-25T07:08:55Z</time></trkpt><trkpt lat="60.1168696582" lon="31.3701437507"><ele>104.36</ele><time>2026-07-25T07:09:07Z</time></trkpt><trkpt lat="60.1170819718" lon="31.3671260979"><ele>107.91</ele><time>2026-07-25T07:09:14Z</time></trkpt><trkpt lat="60.1171198580" lon="31.3668739703"><ele>107.95</ele><time>2026-07-25T07:09:15Z</time></trkpt><trkpt lat="60.1155896578" lon="31.3833059371"><ele>111.33</ele><time>2026-07-25T07:09:29Z</time></trkpt><trkpt lat="60.1162239164" lon="31.3912491314"><ele>100.67</ele><time>2026-07-25T07:09:42Z</time></trkpt><trkpt lat="60.1169200335" lon="31.3998725172"><ele>98.60</ele><time>2026-07-25T07:09:56Z</time></trkpt><trkpt lat="60.1173422299" lon="31.4035339840"><ele>99.32</ele><time>2026-07-25T07:10:02Z</time></trkpt><trkpt lat="60.1183345634" lon="31.4038089942"><ele>96.38</ele><time>2026-07-25T07:10:06Z</time></trkpt><trkpt lat="60.1181326434" lon="31.4005790278"><ele>97.47</ele><time>2026-07-25T07:10:08Z</time></trkpt><trkpt lat="60.1178694516" lon="31.3958160952"><ele>98.77</ele><time>2026-07-25T07:10:12Z</time></trkpt><trkpt lat="60.1177752391" lon="31.3943800237"><ele>95.85</ele><time>2026-07-25T07:10:13Z</time></trkpt><trkpt lat="60.1174131408" lon="31.3821990229"><ele>100.16</ele><time>2026-07-25T07:10:32Z</time></trkpt><trkpt lat="60.1170594245" lon="31.3743089698"><ele>100.30</ele><time>2026-07-25T07:10:45Z</time></trkpt><trkpt lat="60.1168855000" lon="31.3700135797"><ele>105.04</ele><time>2026-07-25T07:10:52Z</time></trkpt><trkpt lat="60.1165956538" lon="31.3736369088"><ele>106.21</ele><time>2026-07-25T07:10:58Z</time></trkpt><trkpt lat="60.1156944316" lon="31.3822724484"><ele>106.22</ele><time>2026-07-25T07:11:12Z</time></trkpt><trkpt lat="60.1159795001" lon="31.3871461898"><ele>103.28</ele><time>2026-07-25T07:11:20Z</time></trkpt><trkpt lat="60.1170663815" lon="31.4012961835"><ele>102.74</ele><time>2026-07-25T07:11:43Z</time></trkpt><trkpt lat="60.1178584713" lon="31.4000888541"><ele>80.67</ele><time>2026-07-25T07:11:49Z</time></trkpt><trkpt lat="60.1177474111" lon="31.3970427029"><ele>84.89</ele><time>2026-07-25T07:11:53Z</time></trkpt><trkpt lat="60.1174365263" lon="31.3863017131"><ele>91.44</ele><time>2026-07-25T07:12:10Z</time></trkpt><trkpt lat="60.1171796210" lon="31.3777287863"><ele>97.66</ele><time>2026-07-25T07:12:24Z</time></trkpt><trkpt lat="60.1168750226" lon="31.3692060672"><ele>101.43</ele><time>2026-07-25T07:12:38Z</time></trkpt><trkpt lat="60.1169659663" lon="31.3685293961"><ele>109.06</ele><time>2026-07-25T07:12:42Z</time></trkpt><trkpt lat="60.1172574051" lon="31.3706174958"><ele>115.21</ele><time>2026-07-25T07:12:45Z</time></trkpt><trkpt lat="60.1170418225" lon="31.3727936894"><ele>113.97</ele><time>2026-07-25T07:12:47Z</time></trkpt><trkpt lat="60.1169205364" lon="31.3738307822"><ele>114.03</ele><time>2026-07-25T07:12:48Z</time></trkpt><trkpt lat="60.1158620697" lon="31.3819898106"><ele>103.50</ele><time>2026-07-25T07:12:57Z</time></trkpt><trkpt lat="60.1161604654" lon="31.3891961519"><ele>98.66</ele><time>2026-07-25T07:13:08Z</time></trkpt><trkpt lat="60.1172819640" lon="31.4032935072"><ele>96.79</ele><time>2026-07-25T07:13:31Z</time></trkpt><trkpt lat="60.1179095171" lon="31.3985971268"><ele>96.02</ele><time>2026-07-25T07:13:36Z</time></trkpt><trkpt lat="60.1178536937" lon="31.3970512524"><ele>95.50</ele><time>2026-07-25T07:13:38Z</time></trkpt><trkpt lat="60.1177858002" lon="31.3960246369"><ele>95.70</ele><time>2026-07-25T07:13:39Z</time></trkpt><trkpt lat="60.1175292302" lon="31.3867061399"><ele>96.20</ele><time>2026-07-25T07:13:54Z</time></trkpt><trkpt lat="60.1171779446" lon="31.3769125566"><ele>105.51</ele><time>2026-07-25T07:14:10Z</time></trkpt><trkpt lat="60.1169036049" lon="31.3690259401"><ele>105.52</ele><time>2026-07-25T07:14:23Z</time></trkpt><trkpt lat="60.1168828178" lon="31.3686642610"><ele>106.00</ele><time>2026-07-25T07:14:26Z</time></trkpt><trkpt lat="60.1168685686" lon="31.3716939837"><ele>107.69</ele><time>2026-07-25T07:14:28Z</time></trkpt><trkpt lat="60.1159868762" lon="31.3789942861"><ele>107.51</ele><time>2026-07-25T07:14:36Z</time></trkpt><trkpt lat="60.1156489179" lon="31.3826031145"><ele>107.27</ele><time>2026-07-25T07:14:42Z</time></trkpt><trkpt lat="60.1163549256" lon="31.3917676359"><ele>102.78</ele><time>2026-07-25T07:14:57Z</time></trkpt><trkpt lat="60.1172310859" lon="31.4028199296"><ele>101.84</ele><time>2026-07-25T07:15:15Z</time></trkpt><trkpt lat="60.1178139634" lon="31.3985659461"><ele>108.65</ele><time>2026-07-25T07:15:19Z</time></trkpt><trkpt lat="60.1176857203" lon="31.3931418490"><ele>109.04</ele><time>2026-07-25T07:15:28Z</time></trkpt><trkpt lat="60.1172373723" lon="31.3785811421"><ele>104.45</ele><time>2026-07-25T07:15:52Z</time></trkpt><trkpt lat="60.1165795606" lon="31.3732248545"><ele>120.06</ele><time>2026-07-25T07:16:13Z</time></trkpt><trkpt lat="60.1166166086" lon="31.3737177104"><ele>120.33</ele><time>2026-07-25T07:16:14Z</time></trkpt><trkpt lat="60.1157369278" lon="31.3819969352"><ele>128.86</ele><time>2026-07-25T07:16:26Z</time></trkpt><trkpt lat="60.1161976811" lon="31.3894327730"><ele>118.62</ele><time>2026-07-25T07:16:38Z</time></trkpt><trkpt lat="60.1169879269" lon="31.3998793904"><ele>118.51</ele><time>2026-07-25T07:16:55Z</time></trkpt><trkpt lat="60.1172707323" lon="31.4034713712"><ele>117.25</ele><time>2026-07-25T07:17:01Z</time></trkpt><trkpt lat="60.1182927378" lon="31.4029677026"><ele>203.35</ele><time>2026-07-25T07:17:06Z</time></trkpt><trkpt lat="60.1181893051" lon="31.3982814644"><ele>184.69</ele><time>2026-07-25T07:17:09Z</time></trkpt><trkpt lat="60.1178624947" lon="31.3947152998"><ele>159.23</ele><time>2026-07-25T07:17:12Z</time></trkpt><trkpt lat="60.1174284797" lon="31.3844251726"><ele>106.68</ele><time>2026-07-25T07:17:27Z</time></trkpt><trkpt lat="60.1170575805" lon="31.3741169404"><ele>108.54</ele><time>2026-07-25T07:17:44Z</time></trkpt><trkpt lat="60.1168917865" lon="31.3692622259"><ele>108.88</ele><time>2026-07-25T07:17:52Z</time></trkpt><trkpt lat="60.1168073807" lon="31.3721258193"><ele>111.49</ele><time>2026-07-25T07:17:58Z</time></trkpt><trkpt lat="60.1167316083" lon="31.3729796000"><ele>111.27</ele><time>2026-07-25T07:17:59Z</time></trkpt><trkpt lat="60.1159545220" lon="31.3793389499"><ele>111.20</ele><time>2026-07-25T07:18:07Z</time></trkpt><trkpt lat="60.1156697888" lon="31.3822350651"><ele>110.19</ele><time>2026-07-25T07:18:11Z</time></trkpt><trkpt lat="60.1155666076" lon="31.3840354979"><ele>110.37</ele><time>2026-07-25T07:18:14Z</time></trkpt><trkpt lat="60.1160228346" lon="31.3877770118"><ele>112.05</ele><time>2026-07-25T07:18:20Z</time></trkpt><trkpt lat="60.1166245714" lon="31.3945189118"><ele>116.42</ele><time>2026-07-25T07:18:31Z</time></trkpt><trkpt lat="60.1172330976" lon="31.4026166685"><ele>108.38</ele><time>2026-07-25T07:18:44Z</time></trkpt><trkpt lat="60.1174080279" lon="31.4036084991"><ele>106.89</ele><time>2026-07-25T07:18:46Z</time></trkpt><trkpt lat="60.1180712879" lon="31.4002349507"><ele>148.59</ele><time>2026-07-25T07:18:49Z</time></trkpt><trkpt lat="60.1180619001" lon="31.3989042398"><ele>142.60</ele><time>2026-07-25T07:18:51Z</time></trkpt><trkpt lat="60.1179054938" lon="31.3961553108"><ele>127.13</ele><time>2026-07-25T07:18:54Z</time></trkpt><trkpt lat="60.1175284758" lon="31.3837064244"><ele>118.38</ele><time>2026-07-25T07:19:13Z</time></trkpt><trkpt lat="60.1171071175" lon="31.3745477702"><ele>110.42</ele><time>2026-07-25T07:19:28Z</time></trkpt><trkpt lat="60.1169233862" lon="31.3702707365"><ele>110.96</ele><time>2026-07-25T07:19:35Z</time></trkpt><trkpt lat="60.1167098153" lon="31.3733704481"><ele>118.47</ele><time>2026-07-25T07:19:41Z</time></trkpt><trkpt lat="60.1164157782" lon="31.3754251879"><ele>121.80</ele><time>2026-07-25T07:19:44Z</time></trkpt><trkpt lat="60.1156634185" lon="31.3825665694"><ele>110.53</ele><time>2026-07-25T07:19:56Z</time></trkpt><trkpt lat="60.1166875195" lon="31.3959843200"><ele>108.97</ele><time>2026-07-25T07:20:18Z</time></trkpt><trkpt lat="60.1171071175" lon="31.4015577827"><ele>107.85</ele><time>2026-07-25T07:20:27Z</time></trkpt><trkpt lat="60.1173528749" lon="31.4033955149"><ele>107.87</ele><time>2026-07-25T07:20:30Z</time></trkpt><trkpt lat="60.1178692002" lon="31.4044025168"><ele>103.86</ele><time>2026-07-25T07:20:35Z</time></trkpt><trkpt lat="60.1185240783" lon="31.4048625994"><ele>103.85</ele><time>2026-07-25T07:20:39Z</time></trkpt><trkpt lat="60.1183397602" lon="31.3942240365"><ele>103.99</ele><time>2026-07-25T07:20:43Z</time></trkpt><trkpt lat="60.1182374172" lon="31.3934315275"><ele>103.84</ele><time>2026-07-25T07:20:44Z</time></trkpt><trkpt lat="60.1173925214" lon="31.3810672145"><ele>104.60</ele><time>2026-07-25T07:21:02Z</time></trkpt><trkpt lat="60.1169030182" lon="31.3688379340"><ele>110.06</ele><time>2026-07-25T07:21:22Z</time></trkpt><trkpt lat="60.1170158386" lon="31.3674766291"><ele>114.81</ele><time>2026-07-25T07:21:26Z</time></trkpt><trkpt lat="60.1171421539" lon="31.3673002739"><ele>117.13</ele><time>2026-07-25T07:21:29Z</time></trkpt><trkpt lat="60.1169128250" lon="31.3750262931"><ele>117.67</ele><time>2026-07-25T07:21:33Z</time></trkpt><trkpt lat="60.1166753657" lon="31.3762106560"><ele>118.00</ele><time>2026-07-25T07:21:34Z</time></trkpt><trkpt lat="60.1158158854" lon="31.3814679533"><ele>120.98</ele><time>2026-07-25T07:21:40Z</time></trkpt><trkpt lat="60.1158617344" lon="31.3856313284"><ele>119.83</ele><time>2026-07-25T07:21:46Z</time></trkpt><trkpt lat="60.1166886091" lon="31.3966829516"><ele>114.59</ele><time>2026-07-25T07:22:04Z</time></trkpt><trkpt lat="60.1175578963" lon="31.4046798740"><ele>110.65</ele><time>2026-07-25T07:22:18Z</time></trkpt><trkpt lat="60.1181090064" lon="31.3974229898"><ele>110.28</ele><time>2026-07-25T07:22:23Z</time></trkpt><trkpt lat="60.1179973595" lon="31.3943711389"><ele>111.09</ele><time>2026-07-25T07:22:26Z</time></trkpt><trkpt lat="60.1178714633" lon="31.3934318628"><ele>111.99</ele><time>2026-07-25T07:22:27Z</time></trkpt><trkpt lat="60.1174086984" lon="31.3821360748"><ele>113.27</ele><time>2026-07-25T07:22:45Z</time></trkpt><trkpt lat="60.1170424931" lon="31.3741607778"><ele>111.61</ele><time>2026-07-25T07:22:58Z</time></trkpt><trkpt lat="60.1168925408" lon="31.3699402381"><ele>113.88</ele><time>2026-07-25T07:23:05Z</time></trkpt><trkpt lat="60.1167409122" lon="31.3721202035"><ele>114.00</ele><time>2026-07-25T07:23:09Z</time></trkpt><trkpt lat="60.1165068056" lon="31.3742395677"><ele>114.66</ele><time>2026-07-25T07:23:12Z</time></trkpt><trkpt lat="60.1156143844" lon="31.3834775984"><ele>112.99</ele><time>2026-07-25T07:23:27Z</time></trkpt><trkpt lat="60.1161759719" lon="31.3895855751"><ele>111.73</ele><time>2026-07-25T07:23:37Z</time></trkpt><trkpt lat="60.1171735860" lon="31.4025103860"><ele>110.23</ele><time>2026-07-25T07:23:58Z</time></trkpt><trkpt lat="60.1174046751" lon="31.4038678352"><ele>109.46</ele><time>2026-07-25T07:24:01Z</time></trkpt><trkpt lat="60.1179984491" lon="31.3987802714"><ele>109.68</ele><time>2026-07-25T07:24:05Z</time></trkpt><trkpt lat="60.1178730559" lon="31.3958828989"><ele>108.59</ele><time>2026-07-25T07:24:08Z</time></trkpt><trkpt lat="60.1174879074" lon="31.3843506575"><ele>109.65</ele><time>2026-07-25T07:24:26Z</time></trkpt><trkpt lat="60.1171543077" lon="31.3757932372"><ele>109.73</ele><time>2026-07-25T07:24:40Z</time></trkpt><trkpt lat="60.1169075444" lon="31.3690815959"><ele>107.66</ele><time>2026-07-25T07:24:51Z</time></trkpt><trkpt lat="60.1169234701" lon="31.3679496199"><ele>109.94</ele><time>2026-07-25T07:24:54Z</time></trkpt><trkpt lat="60.1168334484" lon="31.3711736351"><ele>114.20</ele><time>2026-07-25T07:24:56Z</time></trkpt><trkpt lat="60.1156780031" lon="31.3823545910"><ele>114.57</ele><time>2026-07-25T07:25:10Z</time></trkpt><trkpt lat="60.1163260918" lon="31.3908904698"><ele>113.00</ele><time>2026-07-25T07:25:24Z</time></trkpt><trkpt lat="60.1171249710" lon="31.4014241751"><ele>110.96</ele><time>2026-07-25T07:25:41Z</time></trkpt><trkpt lat="60.1174266357" lon="31.4012482390"><ele>110.11</ele><time>2026-07-25T07:25:46Z</time></trkpt><trkpt lat="60.1173799485" lon="31.4001607709"><ele>109.85</ele><time>2026-07-25T07:25:47Z</time></trkpt><trkpt lat="60.1173616759" lon="31.3860206679"><ele>109.67</ele><time>2026-07-25T07:26:08Z</time></trkpt><trkpt lat="60.1171516255" lon="31.3774262834"><ele>109.25</ele><time>2026-07-25T07:26:22Z</time></trkpt><trkpt lat="60.1169688161" lon="31.3693566900"><ele>123.21</ele><time>2026-07-25T07:26:39Z</time></trkpt><trkpt lat="60.1169463526" lon="31.3698896952"><ele>123.96</ele><time>2026-07-25T07:26:42Z</time></trkpt><trkpt lat="60.1169504598" lon="31.3728465792"><ele>120.24</ele><time>2026-07-25T07:26:47Z</time></trkpt><trkpt lat="60.1167484559" lon="31.3741382305"><ele>119.94</ele><time>2026-07-25T07:26:48Z</time></trkpt><trkpt lat="60.1159152109" lon="31.3795801811"><ele>119.19</ele><time>2026-07-25T07:26:53Z</time></trkpt><trkpt lat="60.1155450661" lon="31.3828925416"><ele>119.60</ele><time>2026-07-25T07:26:57Z</time></trkpt><trkpt lat="60.1163519081" lon="31.3923369348"><ele>116.41</ele><time>2026-07-25T07:27:11Z</time></trkpt><trkpt lat="60.1173474267" lon="31.4038654044"><ele>115.07</ele><time>2026-07-25T07:27:30Z</time></trkpt><trkpt lat="60.1176528633" lon="31.4000277501"><ele>119.35</ele><time>2026-07-25T07:27:33Z</time></trkpt><trkpt lat="60.1177248638" lon="31.3962197676"><ele>119.14</ele><time>2026-07-25T07:27:36Z</time></trkpt><trkpt lat="60.1174769271" lon="31.3845915534"><ele>114.12</ele><time>2026-07-25T07:27:55Z</time></trkpt><trkpt lat="60.1171705686" lon="31.3766460959"><ele>113.80</ele><time>2026-07-25T07:28:08Z</time></trkpt><trkpt lat="60.1168936305" lon="31.3699464407"><ele>115.25</ele><time>2026-07-25T07:28:19Z</time></trkpt><trkpt lat="60.1169152558" lon="31.3702584151"><ele>118.70</ele><time>2026-07-25T07:28:26Z</time></trkpt><trkpt lat="60.1163384132" lon="31.3771433942"><ele>120.25</ele><time>2026-07-25T07:28:32Z</time></trkpt><trkpt lat="60.1158288773" lon="31.3809840661"><ele>119.42</ele><time>2026-07-25T07:28:37Z</time></trkpt><trkpt lat="60.1156203356" lon="31.3833871577"><ele>118.41</ele><time>2026-07-25T07:28:41Z</time></trkpt><trkpt lat="60.1159867086" lon="31.3876495231"><ele>116.23</ele><time>2026-07-25T07:28:48Z</time></trkpt><trkpt lat="60.1166454423" lon="31.3962579891"><ele>109.20</ele><time>2026-07-25T07:29:02Z</time></trkpt><trkpt lat="60.1174869854" lon="31.4067489468"><ele>103.23</ele><time>2026-07-25T07:29:19Z</time></trkpt><trkpt lat="60.1182042249" lon="31.4028702211"><ele>105.20</ele><time>2026-07-25T07:29:21Z</time></trkpt><trkpt lat="60.1187735237" lon="31.3979823980"><ele>106.19</ele><time>2026-07-25T07:29:25Z</time></trkpt><trkpt lat="60.1184273511" lon="31.3939505350"><ele>106.04</ele><time>2026-07-25T07:29:29Z</time></trkpt><trkpt lat="60.1174264681" lon="31.3814133033"><ele>110.59</ele><time>2026-07-25T07:29:45Z</time></trkpt><trkpt lat="60.1170304231" lon="31.3728456572"><ele>111.18</ele><time>2026-07-25T07:29:59Z</time></trkpt><trkpt lat="60.1168751903" lon="31.3656150922"><ele>111.12</ele><time>2026-07-25T07:30:11Z</time></trkpt><trkpt lat="60.1168647967" lon="31.3651620504"><ele>111.02</ele><time>2026-07-25T07:30:12Z</time></trkpt><trkpt lat="60.1173024997" lon="31.3687536120"><ele>114.53</ele><time>2026-07-25T07:30:14Z</time></trkpt><trkpt lat="60.1156453975" lon="31.3824100792"><ele>104.04</ele><time>2026-07-25T07:30:24Z</time></trkpt><trkpt lat="60.1162676699" lon="31.3908977620"><ele>103.93</ele><time>2026-07-25T07:30:38Z</time></trkpt><trkpt lat="60.1168147568" lon="31.3982336875"><ele>99.43</ele><time>2026-07-25T07:30:50Z</time></trkpt><trkpt lat="60.1170923654" lon="31.4019655623"><ele>98.67</ele><time>2026-07-25T07:30:56Z</time></trkpt><trkpt lat="60.1174204331" lon="31.4027753379"><ele>92.03</ele><time>2026-07-25T07:31:02Z</time></trkpt><trkpt lat="60.1173981372" lon="31.3994510751"><ele>94.36</ele><time>2026-07-25T07:31:04Z</time></trkpt><trkpt lat="60.1174895838" lon="31.3872756902"><ele>95.26</ele><time>2026-07-25T07:31:20Z</time></trkpt><trkpt lat="60.1171571575" lon="31.3769467548"><ele>95.78</ele><time>2026-07-25T07:31:37Z</time></trkpt><trkpt lat="60.1169519685" lon="31.3675468694"><ele>102.91</ele><time>2026-07-25T07:31:59Z</time></trkpt><trkpt lat="60.1157366764" lon="31.3805705868"><ele>104.18</ele><time>2026-07-25T07:32:07Z</time></trkpt><trkpt lat="60.1155619137" lon="31.3822724484"><ele>104.86</ele><time>2026-07-25T07:32:09Z</time></trkpt><trkpt lat="60.1158507541" lon="31.3854346052"><ele>105.47</ele><time>2026-07-25T07:32:14Z</time></trkpt><trkpt lat="60.1165267546" lon="31.3940858189"><ele>107.28</ele><time>2026-07-25T07:32:28Z</time></trkpt><trkpt lat="60.1172677148" lon="31.4034255221"><ele>111.22</ele><time>2026-07-25T07:32:43Z</time></trkpt><trkpt lat="60.1173853129" lon="31.4049829636"><ele>110.58</ele><time>2026-07-25T07:32:46Z</time></trkpt><trkpt lat="60.1170828100" lon="31.4049792755"><ele>111.38</ele><time>2026-07-25T07:32:47Z</time></trkpt><trkpt lat="60.1176762488" lon="31.3938813843"><ele>106.55</ele><time>2026-07-25T07:32:54Z</time></trkpt><trkpt lat="60.1174938586" lon="31.3846740313"><ele>111.39</ele><time>2026-07-25T07:33:09Z</time></trkpt><trkpt lat="60.1171447523" lon="31.3755147066"><ele>112.73</ele><time>2026-07-25T07:33:24Z</time></trkpt><trkpt lat="60.1169701573" lon="31.3683908433"><ele>119.78</ele><time>2026-07-25T07:33:38Z</time></trkpt><trkpt lat="60.1171093807" lon="31.3724201079"><ele>120.46</ele><time>2026-07-25T07:33:42Z</time></trkpt><trkpt lat="60.1169196982" lon="31.3744444214"><ele>120.17</ele><time>2026-07-25T07:33:45Z</time></trkpt><trkpt lat="60.1165937260" lon="31.3764311839"><ele>120.15</ele><time>2026-07-25T07:33:47Z</time></trkpt><trkpt lat="60.1155982912" lon="31.3832563162"><ele>117.01</ele><time>2026-07-25T07:33:55Z</time></trkpt><trkpt lat="60.1159215812" lon="31.3869094010"><ele>113.30</ele><time>2026-07-25T07:34:01Z</time></trkpt><trkpt lat="60.1169262361" lon="31.3992508315"><ele>108.07</ele><time>2026-07-25T07:34:21Z</time></trkpt><trkpt lat="60.1172155794" lon="31.4029569738"><ele>107.38</ele><time>2026-07-25T07:34:27Z</time></trkpt><trkpt lat="60.1175163221" lon="31.4032272901"><ele>103.20</ele><time>2026-07-25T07:34:31Z</time></trkpt><trkpt lat="60.1177039091" lon="31.4013186470"><ele>103.87</ele><time>2026-07-25T07:34:33Z</time></trkpt><trkpt lat="60.1175132208" lon="31.3856330886"><ele>103.43</ele><time>2026-07-25T07:34:52Z</time></trkpt><trkpt lat="60.1170758530" lon="31.3746883348"><ele>103.78</ele><time>2026-07-25T07:35:10Z</time></trkpt><trkpt lat="60.1169025153" lon="31.3704286516"><ele>106.22</ele><time>2026-07-25T07:35:17Z</time></trkpt><trkpt lat="60.1164681651" lon="31.3739184570"><ele>110.16</ele><time>2026-07-25T07:35:24Z</time></trkpt><trkpt lat="60.1157039870" lon="31.3823345583"><ele>106.96</ele><time>2026-07-25T07:35:38Z</time></trkpt><trkpt lat="60.1159256883" lon="31.3859488349"><ele>108.57</ele><time>2026-07-25T07:35:44Z</time></trkpt><trkpt lat="60.1170636155" lon="31.4006929379"><ele>111.36</ele><time>2026-07-25T07:36:08Z</time></trkpt><trkpt lat="60.1173057687" lon="31.4039054699"><ele>111.73</ele><time>2026-07-25T07:36:14Z</time></trkpt><trkpt lat="60.1180168893" lon="31.3999050390"><ele>117.73</ele><time>2026-07-25T07:36:17Z</time></trkpt><trkpt lat="60.1180011313" lon="31.3970484864"><ele>117.27</ele><time>2026-07-25T07:36:20Z</time></trkpt><trkpt lat="60.1179370098" lon="31.3961961307"><ele>117.39</ele><time>2026-07-25T07:36:21Z</time></trkpt><trkpt lat="60.1174599119" lon="31.3837413769"><ele>119.27</ele><time>2026-07-25T07:36:40Z</time></trkpt><trkpt lat="60.1171018369" lon="31.3739886973"><ele>135.50</ele><time>2026-07-25T07:36:56Z</time></trkpt><trkpt lat="60.1170191914" lon="31.3678103965"><ele>141.67</ele><time>2026-07-25T07:37:08Z</time></trkpt><trkpt lat="60.1170621067" lon="31.3670261018"><ele>142.37</ele><time>2026-07-25T07:37:10Z</time></trkpt><trkpt lat="60.1172408089" lon="31.3725534640"><ele>143.30</ele><time>2026-07-25T07:37:13Z</time></trkpt><trkpt lat="60.1167699136" lon="31.3760261703"><ele>139.72</ele><time>2026-07-25T07:37:16Z</time></trkpt><trkpt lat="60.1165078953" lon="31.3774771616"><ele>138.02</ele><time>2026-07-25T07:37:17Z</time></trkpt><trkpt lat="60.1157768257" lon="31.3847026974"><ele>133.51</ele><time>2026-07-25T07:37:27Z</time></trkpt><trkpt lat="60.1162379142" lon="31.3898057677"><ele>130.31</ele><time>2026-07-25T07:37:35Z</time></trkpt><trkpt lat="60.1170631964" lon="31.4002288319"><ele>127.56</ele><time>2026-07-25T07:37:52Z</time></trkpt><trkpt lat="60.1174227800" lon="31.4025610127"><ele>132.27</ele><time>2026-07-25T07:37:58Z</time></trkpt><trkpt lat="60.1178877242" lon="31.4008742385"><ele>135.87</ele><time>2026-07-25T07:38:02Z</time></trkpt><trkpt lat="60.1180652529" lon="31.3988572173"><ele>137.03</ele><time>2026-07-25T07:38:04Z</time></trkpt><trkpt lat="60.1180168893" lon="31.3958879281"><ele>138.28</ele><time>2026-07-25T07:38:07Z</time></trkpt><trkpt lat="60.1177544519" lon="31.3904103544"><ele>136.25</ele><time>2026-07-25T07:38:14Z</time></trkpt><trkpt lat="60.1174131408" lon="31.3805441000"><ele>129.27</ele><time>2026-07-25T07:38:30Z</time></trkpt><trkpt lat="60.1169269066" lon="31.3701103069"><ele>124.34</ele><time>2026-07-25T07:38:47Z</time></trkpt><trkpt lat="60.1166674867" lon="31.3737605419"><ele>122.95</ele><time>2026-07-25T07:38:55Z</time></trkpt><trkpt lat="60.1156599820" lon="31.3835317455"><ele>115.39</ele><time>2026-07-25T07:39:10Z</time></trkpt><trkpt lat="60.1163455378" lon="31.3923490047"><ele>109.21</ele><time>2026-07-25T07:39:24Z</time></trkpt><trkpt lat="60.1173614245" lon="31.4027294051"><ele>111.60</ele><time>2026-07-25T07:39:43Z</time></trkpt><trkpt lat="60.1175251231" lon="31.4021169394"><ele>112.77</ele><time>2026-07-25T07:39:44Z</time></trkpt><trkpt lat="60.1177583076" lon="31.3965531997"><ele>101.48</ele><time>2026-07-25T07:39:48Z</time></trkpt><trkpt lat="60.1177557930" lon="31.3959249761"><ele>102.32</ele><time>2026-07-25T07:39:49Z</time></trkpt><trkpt lat="60.1173273101" lon="31.3802410103"><ele>108.04</ele><time>2026-07-25T07:40:15Z</time></trkpt><trkpt lat="60.1169606019" lon="31.3674282655"><ele>123.36</ele><time>2026-07-25T07:40:38Z</time></trkpt><trkpt lat="60.1170399785" lon="31.3677992485"><ele>124.32</ele><time>2026-07-25T07:40:39Z</time></trkpt><trkpt lat="60.1172872446" lon="31.3722492009"><ele>126.98</ele><time>2026-07-25T07:40:43Z</time></trkpt><trkpt lat="60.1168440934" lon="31.3752609026"><ele>128.58</ele><time>2026-07-25T07:40:46Z</time></trkpt><trkpt lat="60.1161154546" lon="31.3804515637"><ele>126.59</ele><time>2026-07-25T07:40:52Z</time></trkpt><trkpt lat="60.1159240119" lon="31.3855848927"><ele>120.82</ele><time>2026-07-25T07:40:58Z</time></trkpt><trkpt lat="60.1166384853" lon="31.3954483811"><ele>120.32</ele><time>2026-07-25T07:41:14Z</time></trkpt><trkpt lat="60.1174194273" lon="31.4049357735"><ele>118.63</ele><time>2026-07-25T07:41:31Z</time></trkpt><trkpt lat="60.1181999501" lon="31.3981474377"><ele>120.82</ele><time>2026-07-25T07:41:37Z</time></trkpt><trkpt lat="60.1181558613" lon="31.3961462583"><ele>121.54</ele><time>2026-07-25T07:41:39Z</time></trkpt><trkpt lat="60.1179578807" lon="31.3938631956"><ele>122.20</ele><time>2026-07-25T07:41:41Z</time></trkpt><trkpt lat="60.1172791980" lon="31.3813092839"><ele>143.23</ele><time>2026-07-25T07:41:58Z</time></trkpt><trkpt lat="60.1169120707" lon="31.3703567348"><ele>137.66</ele><time>2026-07-25T07:42:16Z</time></trkpt><trkpt lat="60.1169074606" lon="31.3688365929"><ele>142.07</ele><time>2026-07-25T07:42:21Z</time></trkpt><trkpt lat="60.1167927962" lon="31.3724933658"><ele>142.29</ele><time>2026-07-25T07:42:24Z</time></trkpt><trkpt lat="60.1163968351" lon="31.3757821731"><ele>139.66</ele><time>2026-07-25T07:42:28Z</time></trkpt><trkpt lat="60.1158520952" lon="31.3805122487"><ele>130.26</ele><time>2026-07-25T07:42:34Z</time></trkpt><trkpt lat="60.1156722195" lon="31.3823545910"><ele>127.57</ele><time>2026-07-25T07:42:37Z</time></trkpt><trkpt lat="60.1159949228" lon="31.3872347865"><ele>120.27</ele><time>2026-07-25T07:42:45Z</time></trkpt><trkpt lat="60.1168458536" lon="31.3982897624"><ele>116.99</ele><time>2026-07-25T07:43:03Z</time></trkpt><trkpt lat="60.1173361950" lon="31.4029719774"><ele>123.64</ele><time>2026-07-25T07:43:13Z</time></trkpt><trkpt lat="60.1179736387" lon="31.3981004152"><ele>127.29</ele><time>2026-07-25T07:43:18Z</time></trkpt><trkpt lat="60.1179053262" lon="31.3963060174"><ele>127.84</ele><time>2026-07-25T07:43:21Z</time></trkpt><trkpt lat="60.1176284719" lon="31.3910224847"><ele>120.78</ele><time>2026-07-25T07:43:27Z</time></trkpt><trkpt lat="60.1173951197" lon="31.3817418739"><ele>112.89</ele><time>2026-07-25T07:43:42Z</time></trkpt><trkpt lat="60.1169621944" lon="31.3713471405"><ele>113.06</ele><time>2026-07-25T07:43:59Z</time></trkpt><trkpt lat="60.1168383937" lon="31.3675594423"><ele>115.18</ele><time>2026-07-25T07:44:07Z</time></trkpt><trkpt lat="60.1168516371" lon="31.3670174684"><ele>115.26</ele><time>2026-07-25T07:44:08Z</time></trkpt><trkpt lat="60.1168938819" lon="31.3720724266"><ele>118.37</ele><time>2026-07-25T07:44:11Z</time></trkpt><trkpt lat="60.1164758764" lon="31.3756882120"><ele>119.35</ele><time>2026-07-25T07:44:13Z</time></trkpt><trkpt lat="60.1157682762" lon="31.3813750818"><ele>114.50</ele><time>2026-07-25T07:44:20Z</time></trkpt><trkpt lat="60.1157133747" lon="31.3819768187"><ele>114.27</ele><time>2026-07-25T07:44:21Z</time></trkpt><trkpt lat="60.1158694457" lon="31.3849682361"><ele>116.40</ele><time>2026-07-25T07:44:26Z</time></trkpt><trkpt lat="60.1166029461" lon="31.3942368608"><ele>112.79</ele><time>2026-07-25T07:44:41Z</time></trkpt><trkpt lat="60.1175822876" lon="31.4058278594"><ele>114.72</ele><time>2026-07-25T07:45:00Z</time></trkpt><trkpt lat="60.1177003048" lon="31.4062510617"><ele>114.57</ele><time>2026-07-25T07:45:01Z</time></trkpt><trkpt lat="60.1162926480" lon="31.4041220583"><ele>115.12</ele><time>2026-07-25T07:45:03Z</time></trkpt><trkpt lat="60.1176371891" lon="31.3912821561"><ele>116.39</ele><time>2026-07-25T07:45:11Z</time></trkpt><trkpt lat="60.1174995583" lon="31.3864348177"><ele>107.56</ele><time>2026-07-25T07:45:19Z</time></trkpt></trkseg><trkseg><trkpt lat="59.6331690531" lon="31.0314530879"><ele>49.01</ele><time>2026-08-11T18:47:28Z</time></trkpt><trkpt lat="59.6332028322" lon="31.0314050596"><ele>39.35</ele><time>2026-08-11T18:48:09Z</time></trkpt><trkpt lat="59.6331972163" lon="31.0314166266"><ele>40.20</ele><time>2026-08-11T18:48:49Z</time></trkpt><trkpt lat="59.6331886668" lon="31.0314024612"><ele>40.22</ele><time>2026-08-11T18:49:31Z</time></trkpt><trkpt lat="59.6332072746" lon="31.0314225778"><ele>39.15</ele><time>2026-08-11T18:50:22Z</time></trkpt><trkpt lat="59.6332155727" lon="31.0313975997"><ele>37.77</ele><time>2026-08-11T18:51:03Z</time></trkpt><trkpt lat="59.6332216915" lon="31.0313982703"><ele>37.62</ele><time>2026-08-11T18:52:00Z</time></trkpt><trkpt lat="59.6332091186" lon="31.0313996114"><ele>36.83</ele><time>2026-08-11T18:52:47Z</time></trkpt><trkpt lat="59.6332099568" lon="31.0313971806"><ele>36.51</ele><time>2026-08-11T18:53:37Z</time></trkpt><trkpt lat="59.6332091186" lon="31.0314005334"><ele>36.48</ele><time>2026-08-11T18:53:52Z</time></trkpt><trkpt lat="59.6332063526" lon="31.0313735437"><ele>36.63</ele><time>2026-08-11T18:54:21Z</time></trkpt><trkpt lat="59.6332038380" lon="31.0313903075"><ele>36.25</ele><time>2026-08-11T18:54:53Z</time></trkpt><trkpt lat="59.6332139801" lon="31.0313924029"><ele>34.06</ele><time>2026-08-11T18:55:39Z</time></trkpt><trkpt lat="59.6332118846" lon="31.0313984379"><ele>33.75</ele><time>2026-08-11T18:56:19Z</time></trkpt><trkpt lat="59.6332046762" lon="31.0313910618"><ele>33.87</ele><time>2026-08-11T18:56:51Z</time></trkpt><trkpt lat="59.6332400478" lon="31.0313789919"><ele>33.77</ele><time>2026-08-11T18:57:27Z</time></trkpt><trkpt lat="59.6332111303" lon="31.0313872062"><ele>34.11</ele><time>2026-08-11T18:57:58Z</time></trkpt><trkpt lat="59.6331916004" lon="31.0313648265"><ele>33.27</ele><time>2026-08-11T18:58:33Z</time></trkpt><trkpt lat="59.6332278103" lon="31.0313557740"><ele>33.18</ele><time>2026-08-11T18:59:09Z</time></trkpt><trkpt lat="59.6332376171" lon="31.0313569475"><ele>33.59</ele><time>2026-08-11T18:59:41Z</time></trkpt><trkpt lat="59.6332363598" lon="31.0313522536"><ele>34.58</ele><time>2026-08-11T19:00:16Z</time></trkpt><trkpt lat="59.6332276426" lon="31.0313702747"><ele>33.72</ele><time>2026-08-11T19:00:46Z</time></trkpt><trkpt lat="59.6332117170" lon="31.0313763097"><ele>32.67</ele><time>2026-08-11T19:01:20Z</time></trkpt><trkpt lat="59.6332222782" lon="31.0313511640"><ele>31.20</ele><time>2026-08-11T19:01:52Z</time></trkpt><trkpt lat="59.6332337614" lon="31.0313498229"><ele>31.21</ele><time>2026-08-11T19:02:30Z</time></trkpt><trkpt lat="59.6332036704" lon="31.0313565284"><ele>31.44</ele><time>2026-08-11T19:03:04Z</time></trkpt><trkpt lat="59.6332370304" lon="31.0313533433"><ele>32.44</ele><time>2026-08-11T19:03:34Z</time></trkpt><trkpt lat="59.6332407184" lon="31.0313711129"><ele>35.11</ele><time>2026-08-11T19:04:11Z</time></trkpt><trkpt lat="59.6332417242" lon="31.0313540976"><ele>35.92</ele><time>2026-08-11T19:04:44Z</time></trkpt><trkpt lat="59.6332641877" lon="31.0313318856"><ele>36.58</ele><time>2026-08-11T19:05:19Z</time></trkpt><trkpt lat="59.6332350187" lon="31.0313732084"><ele>36.56</ele><time>2026-08-11T19:05:54Z</time></trkpt><trkpt lat="59.6332138125" lon="31.0313501582"><ele>36.75</ele><time>2026-08-11T19:06:25Z</time></trkpt><trkpt lat="59.6332191769" lon="31.0313736275"><ele>37.07</ele><time>2026-08-11T19:06:58Z</time></trkpt><trkpt lat="59.6332008205" lon="31.0313733760"><ele>36.98</ele><time>2026-08-11T19:07:37Z</time></trkpt><trkpt lat="59.6332388744" lon="31.0313826799"><ele>37.31</ele><time>2026-08-11T19:08:09Z</time></trkpt><trkpt lat="59.6332219429" lon="31.0313760582"><ele>38.45</ele><time>2026-08-11T19:08:52Z</time></trkpt><trkpt lat="59.6332293190" lon="31.0314100888"><ele>38.36</ele><time>2026-08-11T19:09:25Z</time></trkpt><trkpt lat="59.6332443226" lon="31.0313981026"><ele>39.04</ele><time>2026-08-11T19:10:01Z</time></trkpt><trkpt lat="59.6332702227" lon="31.0313516669"><ele>38.88</ele><time>2026-08-11T19:10:29Z</time></trkpt><trkpt lat="59.6332470886" lon="31.0313608032"><ele>38.73</ele><time>2026-08-11T19:11:00Z</time></trkpt><trkpt lat="59.6332351863" lon="31.0313702747"><ele>38.47</ele><time>2026-08-11T19:11:35Z</time></trkpt><trkpt lat="59.6332154050" lon="31.0313665867"><ele>37.49</ele><time>2026-08-11T19:12:05Z</time></trkpt><trkpt lat="59.6331954561" lon="31.0314022098"><ele>37.05</ele><time>2026-08-11T19:12:17Z</time></trkpt><trkpt lat="59.6332539618" lon="31.0313691851"><ele>40.85</ele><time>2026-08-11T19:45:31Z</time></trkpt><trkpt lat="59.6332297381" lon="31.0313780699"><ele>37.67</ele><time>2026-08-11T19:45:55Z</time></trkpt><trkpt lat="59.6332232002" lon="31.0313706938"><ele>36.88</ele><time>2026-08-11T19:46:26Z</time></trkpt><trkpt lat="59.6332174167" lon="31.0313805845"><ele>34.91</ele><time>2026-08-11T19:46:54Z</time></trkpt><trkpt lat="59.6332290675" lon="31.0313714482"><ele>34.88</ele><time>2026-08-11T19:47:20Z</time></trkpt><trkpt lat="59.6332330909" lon="31.0313663352"><ele>35.97</ele><time>2026-08-11T19:47:40Z</time></trkpt><trkpt lat="59.6332410537" lon="31.0313618928"><ele>36.70</ele><time>2026-08-11T19:48:01Z</time></trkpt><trkpt lat="59.6332502738" lon="31.0313698556"><ele>37.44</ele><time>2026-08-11T19:48:18Z</time></trkpt><trkpt lat="59.6332444064" lon="31.0313793272"><ele>37.52</ele><time>2026-08-11T19:48:33Z</time></trkpt><trkpt lat="59.6332485974" lon="31.0313484818"><ele>37.28</ele><time>2026-08-11T19:48:59Z</time></trkpt><trkpt lat="59.6332518663" lon="31.0313712806"><ele>36.67</ele><time>2026-08-11T19:49:28Z</time></trkpt><trkpt lat="59.6332524531" lon="31.0313895531"><ele>36.90</ele><time>2026-08-11T19:50:00Z</time></trkpt><trkpt lat="59.6332644392" lon="31.0313761421"><ele>36.92</ele><time>2026-08-11T19:50:20Z</time></trkpt><trkpt lat="59.6332764253" lon="31.0313716158"><ele>37.79</ele><time>2026-08-11T19:50:45Z</time></trkpt><trkpt lat="59.6332717314" lon="31.0313814227"><ele>38.32</ele><time>2026-08-11T19:51:19Z</time></trkpt><trkpt lat="59.6332900040" lon="31.0314104240"><ele>38.63</ele><time>2026-08-11T19:51:40Z</time></trkpt><trkpt lat="59.6332641039" lon="31.0313714482"><ele>38.50</ele><time>2026-08-11T19:52:02Z</time></trkpt><trkpt lat="59.6332532912" lon="31.0313440394"><ele>38.57</ele><time>2026-08-11T19:52:25Z</time></trkpt><trkpt lat="59.6332763415" lon="31.0314040538"><ele>39.11</ele><time>2026-08-11T19:52:50Z</time></trkpt><trkpt lat="59.6332760900" lon="31.0314188059"><ele>41.36</ele><time>2026-08-11T19:53:19Z</time></trkpt><trkpt lat="59.6332822926" lon="31.0314256791"><ele>41.52</ele><time>2026-08-11T19:53:43Z</time></trkpt><trkpt lat="59.6332663670" lon="31.0314001981"><ele>42.64</ele><time>2026-08-11T19:54:11Z</time></trkpt><trkpt lat="59.6332708932" lon="31.0314137768"><ele>42.39</ele><time>2026-08-11T19:54:40Z</time></trkpt><trkpt lat="59.6333034150" lon="31.0314370785"><ele>42.15</ele><time>2026-08-11T19:55:00Z</time></trkpt><trkpt lat="59.6332864836" lon="31.0313924029"><ele>41.46</ele><time>2026-08-11T19:55:26Z</time></trkpt><trkpt lat="59.6333006490" lon="31.0313872900"><ele>40.97</ele><time>2026-08-11T19:55:52Z</time></trkpt><trkpt lat="59.6332935244" lon="31.0313930735"><ele>39.72</ele><time>2026-08-11T19:56:19Z</time></trkpt><trkpt lat="59.6333023254" lon="31.0313753039"><ele>40.32</ele><time>2026-08-11T19:56:49Z</time></trkpt><trkpt lat="59.6333149821" lon="31.0313924029"><ele>40.74</ele><time>2026-08-11T19:57:19Z</time></trkpt><trkpt lat="59.6332996432" lon="31.0313974321"><ele>40.61</ele><time>2026-08-11T19:57:50Z</time></trkpt><trkpt lat="59.6333048400" lon="31.0313992761"><ele>41.27</ele><time>2026-08-11T19:58:20Z</time></trkpt><trkpt lat="59.6332893334" lon="31.0313956719"><ele>41.44</ele><time>2026-08-11T19:58:47Z</time></trkpt><trkpt lat="59.6332791913" lon="31.0313581210"><ele>41.85</ele><time>2026-08-11T19:59:17Z</time></trkpt><trkpt lat="59.6332933567" lon="31.0314034671"><ele>43.02</ele><time>2026-08-11T19:59:44Z</time></trkpt><trkpt lat="59.6333071031" lon="31.0313805845"><ele>42.99</ele><time>2026-08-11T20:00:12Z</time></trkpt><trkpt lat="59.6333079413" lon="31.0313790757"><ele>43.43</ele><time>2026-08-11T20:00:38Z</time></trkpt><trkpt lat="59.6332970448" lon="31.0313653294"><ele>43.28</ele><time>2026-08-11T20:01:01Z</time></trkpt><trkpt lat="59.6332733240" lon="31.0313401837"><ele>43.19</ele><time>2026-08-11T20:01:27Z</time></trkpt><trkpt lat="59.6332832985" lon="31.0313723702"><ele>43.70</ele><time>2026-08-11T20:01:52Z</time></trkpt><trkpt lat="59.6332881600" lon="31.0313699394"><ele>43.72</ele><time>2026-08-11T20:02:17Z</time></trkpt><trkpt lat="59.6332879923" lon="31.0313570313"><ele>44.05</ele><time>2026-08-11T20:02:41Z</time></trkpt><trkpt lat="59.6333140600" lon="31.0313302930"><ele>44.78</ele><time>2026-08-11T20:03:05Z</time></trkpt><trkpt lat="59.6332579013" lon="31.0314210691"><ele>43.62</ele><time>2026-08-11T20:03:31Z</time></trkpt><trkpt lat="59.6332646906" lon="31.0313901398"><ele>43.23</ele><time>2026-08-11T20:04:01Z</time></trkpt><trkpt lat="59.6333216876" lon="31.0313548520"><ele>43.64</ele><time>2026-08-11T20:04:18Z</time></trkpt><trkpt lat="59.6333164908" lon="31.0314381681"><ele>43.59</ele><time>2026-08-11T20:04:26Z</time></trkpt><trkpt lat="59.6332831308" lon="31.0315368231"><ele>43.14</ele><time>2026-08-11T20:04:42Z</time></trkpt><trkpt lat="59.6333019063" lon="31.0314534232"><ele>42.31</ele><time>2026-08-11T20:05:05Z</time></trkpt><trkpt lat="59.6332643554" lon="31.0313725378"><ele>42.42</ele><time>2026-08-11T20:05:22Z</time></trkpt><trkpt lat="59.6332558896" lon="31.0313934926"><ele>41.54</ele><time>2026-08-11T20:05:45Z</time></trkpt><trkpt lat="59.6332581528" lon="31.0314129386"><ele>41.46</ele><time>2026-08-11T20:06:09Z</time></trkpt><trkpt lat="59.6332567278" lon="31.0314542614"><ele>41.63</ele><time>2026-08-11T20:06:28Z</time></trkpt><trkpt lat="59.6332503576" lon="31.0316107515"><ele>40.06</ele><time>2026-08-11T20:06:48Z</time></trkpt><trkpt lat="59.6332588233" lon="31.0316048842"><ele>40.30</ele><time>2026-08-11T20:07:07Z</time></trkpt><trkpt lat="59.6334365197" lon="31.0317969974"><ele>40.15</ele><time>2026-08-11T20:07:12Z</time></trkpt><trkpt lat="59.6338635776" lon="31.0322725866"><ele>38.90</ele><time>2026-08-11T20:07:22Z</time></trkpt><trkpt lat="59.6341770608" lon="31.0325754248"><ele>38.98</ele><time>2026-08-11T20:07:34Z</time></trkpt><trkpt lat="59.6345108282" lon="31.0329802707"><ele>37.87</ele><time>2026-08-11T20:07:44Z</time></trkpt><trkpt lat="59.6348188631" lon="31.0333010461"><ele>40.82</ele><time>2026-08-11T20:07:56Z</time></trkpt><trkpt lat="59.6351843141" lon="31.0337111726"><ele>42.91</ele><time>2026-08-11T20:08:09Z</time></trkpt><trkpt lat="59.6355911717" lon="31.0340424255"><ele>44.00</ele><time>2026-08-11T20:08:23Z</time></trkpt><trkpt lat="59.6360448841" lon="31.0343191959"><ele>42.67</ele><time>2026-08-11T20:08:34Z</time></trkpt><trkpt lat="59.6365713514" lon="31.0345453396"><ele>43.01</ele><time>2026-08-11T20:08:47Z</time></trkpt><trkpt lat="59.6368840802" lon="31.0345884226"><ele>45.41</ele><time>2026-08-11T20:08:59Z</time></trkpt><trkpt lat="59.6373087913" lon="31.0344870854"><ele>43.53</ele><time>2026-08-11T20:09:11Z</time></trkpt><trkpt lat="59.6376636811" lon="31.0343603510"><ele>34.63</ele><time>2026-08-11T20:09:22Z</time></trkpt><trkpt lat="59.6380894817" lon="31.0340780485"><ele>28.53</ele><time>2026-08-11T20:09:32Z</time></trkpt><trkpt lat="59.6384510770" lon="31.0339607019"><ele>29.64</ele><time>2026-08-11T20:09:38Z</time></trkpt><trkpt lat="59.6389575955" lon="31.0335861146"><ele>23.38</ele><time>2026-08-11T20:09:49Z</time></trkpt><trkpt lat="59.6394233778" lon="31.0333846975"><ele>21.36</ele><time>2026-08-11T20:10:00Z</time></trkpt><trkpt lat="59.6402103547" lon="31.0330784228"><ele>19.52</ele><time>2026-08-11T20:10:11Z</time></trkpt><trkpt lat="59.6406897996" lon="31.0327619221"><ele>13.12</ele><time>2026-08-11T20:10:21Z</time></trkpt><trkpt lat="59.6410606988" lon="31.0326483473"><ele>13.76</ele><time>2026-08-11T20:10:28Z</time></trkpt><trkpt lat="59.6411811467" lon="31.0325605050"><ele>13.25</ele><time>2026-08-11T20:10:30Z</time></trkpt><trkpt lat="59.6414356213" lon="31.0324507859"><ele>13.30</ele><time>2026-08-11T20:10:33Z</time></trkpt><trkpt lat="59.6416405588" lon="31.0322949663"><ele>14.31</ele><time>2026-08-11T20:10:37Z</time></trkpt><trkpt lat="59.6421609912" lon="31.0319583490"><ele>15.18</ele><time>2026-08-11T20:10:50Z</time></trkpt><trkpt lat="59.6427059826" lon="31.0316201393"><ele>10.33</ele><time>2026-08-11T20:11:02Z</time></trkpt><trkpt lat="59.6431984194" lon="31.0313923191"><ele>6.73</ele><time>2026-08-11T20:11:16Z</time></trkpt><trkpt lat="59.6435187757" lon="31.0311898123"><ele>12.96</ele><time>2026-08-11T20:11:25Z</time></trkpt><trkpt lat="59.6436709911" lon="31.0311235115"><ele>12.14</ele><time>2026-08-11T20:11:32Z</time></trkpt><trkpt lat="59.6439050976" lon="31.0310626589"><ele>14.81</ele><time>2026-08-11T20:11:37Z</time></trkpt><trkpt lat="59.6446838602" lon="31.0308499262"><ele>29.65</ele><time>2026-08-11T20:11:49Z</time></trkpt><trkpt lat="59.6453234833" lon="31.0308247805"><ele>35.19</ele><time>2026-08-11T20:12:03Z</time></trkpt><trkpt lat="59.6459032595" lon="31.0310872179"><ele>47.87</ele><time>2026-08-11T20:12:16Z</time></trkpt><trkpt lat="59.6465398651" lon="31.0315923952"><ele>55.49</ele><time>2026-08-11T20:12:31Z</time></trkpt><trkpt lat="59.6467113588" lon="31.0318318661"><ele>56.34</ele><time>2026-08-11T20:12:34Z</time></trkpt><trkpt lat="59.6470956691" lon="31.0323159210"><ele>54.86</ele><time>2026-08-11T20:12:40Z</time></trkpt><trkpt lat="59.6474242397" lon="31.0327406321"><ele>53.57</ele><time>2026-08-11T20:12:46Z</time></trkpt><trkpt lat="59.6478078794" lon="31.0333680175"><ele>48.67</ele><time>2026-08-11T20:12:55Z</time></trkpt><trkpt lat="59.6481628530" lon="31.0339945648"><ele>44.91</ele><time>2026-08-11T20:13:04Z</time></trkpt><trkpt lat="59.6483750828" lon="31.0344031826"><ele>42.14</ele><time>2026-08-11T20:13:10Z</time></trkpt><trkpt lat="59.6484609134" lon="31.0346271470"><ele>39.97</ele><time>2026-08-11T20:13:13Z</time></trkpt><trkpt lat="59.6488619875" lon="31.0361358896"><ele>36.60</ele><time>2026-08-11T20:13:28Z</time></trkpt><trkpt lat="59.6490425337" lon="31.0371682048"><ele>32.05</ele><time>2026-08-11T20:13:40Z</time></trkpt><trkpt lat="59.6490981057" lon="31.0380381625"><ele>27.44</ele><time>2026-08-11T20:13:52Z</time></trkpt><trkpt lat="59.6491385903" lon="31.0389719903"><ele>23.97</ele><time>2026-08-11T20:14:06Z</time></trkpt><trkpt lat="59.6491981857" lon="31.0393339209"><ele>25.31</ele><time>2026-08-11T20:14:12Z</time></trkpt><trkpt lat="59.6491820924" lon="31.0396033153"><ele>26.65</ele><time>2026-08-11T20:14:16Z</time></trkpt><trkpt lat="59.6492169611" lon="31.0401709378"><ele>28.72</ele><time>2026-08-11T20:14:28Z</time></trkpt><trkpt lat="59.6492809989" lon="31.0405793041"><ele>28.29</ele><time>2026-08-11T20:14:41Z</time></trkpt><trkpt lat="59.6493012831" lon="31.0414997209"><ele>33.63</ele><time>2026-08-11T20:14:59Z</time></trkpt><trkpt lat="59.6493622195" lon="31.0422344785"><ele>36.16</ele><time>2026-08-11T20:15:12Z</time></trkpt><trkpt lat="59.6494092420" lon="31.0427231435"><ele>37.25</ele><time>2026-08-11T20:15:18Z</time></trkpt><trkpt lat="59.6495267563" lon="31.0440577939"><ele>38.72</ele><time>2026-08-11T20:15:32Z</time></trkpt><trkpt lat="59.6495383233" lon="31.0441492405"><ele>38.73</ele><time>2026-08-11T20:15:33Z</time></trkpt><trkpt lat="59.6495972481" lon="31.0449129995"><ele>40.38</ele><time>2026-08-11T20:15:42Z</time></trkpt><trkpt lat="59.6496506408" lon="31.0458703805"><ele>39.85</ele><time>2026-08-11T20:15:55Z</time></trkpt><trkpt lat="59.6497290954" lon="31.0465316288"><ele>33.99</ele><time>2026-08-11T20:16:06Z</time></trkpt><trkpt lat="59.6497700829" lon="31.0472506285"><ele>29.65</ele><time>2026-08-11T20:16:16Z</time></trkpt><trkpt lat="59.6498067956" lon="31.0476640239"><ele>28.52</ele><time>2026-08-11T20:16:21Z</time></trkpt><trkpt lat="59.6498678159" lon="31.0486563575"><ele>30.36</ele><time>2026-08-11T20:16:33Z</time></trkpt><trkpt lat="59.6499179397" lon="31.0494001675"><ele>31.03</ele><time>2026-08-11T20:16:44Z</time></trkpt><trkpt lat="59.6500543132" lon="31.0501884855"><ele>32.19</ele><time>2026-08-11T20:16:55Z</time></trkpt><trkpt lat="59.6501192730" lon="31.0512330383"><ele>33.85</ele><time>2026-08-11T20:17:06Z</time></trkpt><trkpt lat="59.6501457598" lon="31.0518709850"><ele>35.03</ele><time>2026-08-11T20:17:16Z</time></trkpt><trkpt lat="59.6501493640" lon="31.0519696400"><ele>35.49</ele><time>2026-08-11T20:17:17Z</time></trkpt><trkpt lat="59.6502149943" lon="31.0529447906"><ele>34.68</ele><time>2026-08-11T20:17:31Z</time></trkpt><trkpt lat="59.6502699796" lon="31.0536161810"><ele>32.70</ele><time>2026-08-11T20:17:39Z</time></trkpt><trkpt lat="59.6503077820" lon="31.0540103819"><ele>31.49</ele><time>2026-08-11T20:17:43Z</time></trkpt><trkpt lat="59.6503727417" lon="31.0544291418"><ele>28.43</ele><time>2026-08-11T20:17:48Z</time></trkpt><trkpt lat="59.6503814589" lon="31.0551348981"><ele>27.25</ele><time>2026-08-11T20:17:55Z</time></trkpt><trkpt lat="59.6504080296" lon="31.0554974154"><ele>26.94</ele><time>2026-08-11T20:17:59Z</time></trkpt><trkpt lat="59.6504092030" lon="31.0557950567"><ele>26.95</ele><time>2026-08-11T20:18:02Z</time></trkpt><trkpt lat="59.6505052596" lon="31.0571524221"><ele>34.02</ele><time>2026-08-11T20:18:15Z</time></trkpt><trkpt lat="59.6505550481" lon="31.0576810688"><ele>36.31</ele><time>2026-08-11T20:18:21Z</time></trkpt><trkpt lat="59.6506091952" lon="31.0581244715"><ele>35.51</ele><time>2026-08-11T20:18:26Z</time></trkpt><trkpt lat="59.6506620012" lon="31.0584146529"><ele>35.07</ele><time>2026-08-11T20:18:29Z</time></trkpt><trkpt lat="59.6506830398" lon="31.0586499330"><ele>34.88</ele><time>2026-08-11T20:18:31Z</time></trkpt><trkpt lat="59.6507270448" lon="31.0595274344"><ele>35.74</ele><time>2026-08-11T20:18:39Z</time></trkpt><trkpt lat="59.6508752368" lon="31.0608998034"><ele>30.39</ele><time>2026-08-11T20:18:54Z</time></trkpt><trkpt lat="59.6508920006" lon="31.0610095225"><ele>30.05</ele><time>2026-08-11T20:18:55Z</time></trkpt><trkpt lat="59.6509944275" lon="31.0624088813"><ele>32.35</ele><time>2026-08-11T20:19:06Z</time></trkpt><trkpt lat="59.6510805935" lon="31.0634762328"><ele>33.77</ele><time>2026-08-11T20:19:15Z</time></trkpt><trkpt lat="59.6511117741" lon="31.0642117448"><ele>31.56</ele><time>2026-08-11T20:19:26Z</time></trkpt><trkpt lat="59.6511493251" lon="31.0648321733"><ele>30.82</ele><time>2026-08-11T20:19:33Z</time></trkpt><trkpt lat="59.6511817630" lon="31.0653049964"><ele>29.40</ele><time>2026-08-11T20:19:38Z</time></trkpt><trkpt lat="59.6512872074" lon="31.0662623774"><ele>26.54</ele><time>2026-08-11T20:19:49Z</time></trkpt><trkpt lat="59.6512774844" lon="31.0664740205"><ele>27.18</ele><time>2026-08-11T20:19:59Z</time></trkpt><trkpt lat="59.6512963437" lon="31.0666526388"><ele>31.86</ele><time>2026-08-11T20:20:14Z</time></trkpt><trkpt lat="59.6512595471" lon="31.0667857435"><ele>39.77</ele><time>2026-08-11T20:20:36Z</time></trkpt><trkpt lat="59.6512753051" lon="31.0668165050"><ele>43.35</ele><time>2026-08-11T20:21:07Z</time></trkpt><trkpt lat="59.6513110120" lon="31.0668233782"><ele>47.66</ele><time>2026-08-11T20:21:31Z</time></trkpt><trkpt lat="59.6513312962" lon="31.0668121465"><ele>50.54</ele><time>2026-08-11T20:21:58Z</time></trkpt><trkpt lat="59.6512941644" lon="31.0667831451"><ele>50.47</ele><time>2026-08-11T20:22:20Z</time></trkpt><trkpt lat="59.6512916498" lon="31.0667783674"><ele>50.29</ele><time>2026-08-11T20:22:39Z</time></trkpt><trkpt lat="59.6512880456" lon="31.0667900182"><ele>50.27</ele><time>2026-08-11T20:23:00Z</time></trkpt><trkpt lat="59.6513189748" lon="31.0668495297"><ele>49.49</ele><time>2026-08-11T20:23:16Z</time></trkpt><trkpt lat="59.6513233334" lon="31.0671885777"><ele>46.34</ele><time>2026-08-11T20:23:38Z</time></trkpt><trkpt lat="59.6512820106" lon="31.0668730829"><ele>43.32</ele><time>2026-08-11T20:23:56Z</time></trkpt><trkpt lat="59.6512873750" lon="31.0668631922"><ele>44.20</ele><time>2026-08-11T20:24:14Z</time></trkpt><trkpt lat="59.6512834355" lon="31.0668287426"><ele>46.34</ele><time>2026-08-11T20:24:37Z</time></trkpt><trkpt lat="59.6512997802" lon="31.0668129846"><ele>48.40</ele><time>2026-08-11T20:25:01Z</time></trkpt><trkpt lat="59.6512961760" lon="31.0667834803"><ele>49.05</ele><time>2026-08-11T20:25:26Z</time></trkpt><trkpt lat="59.6512893029" lon="31.0667918622"><ele>49.67</ele><time>2026-08-11T20:25:53Z</time></trkpt><trkpt lat="59.6512552723" lon="31.0667860787"><ele>50.67</ele><time>2026-08-11T20:26:22Z</time></trkpt><trkpt lat="59.6512689348" lon="31.0667815525"><ele>52.28</ele><time>2026-08-11T20:26:49Z</time></trkpt><trkpt lat="59.6512673423" lon="31.0667771939"><ele>52.26</ele><time>2026-08-11T20:26:50Z</time></trkpt><trkpt lat="59.6512339823" lon="31.0667583346"><ele>54.79</ele><time>2026-08-11T20:27:16Z</time></trkpt><trkpt lat="59.6512572002" lon="31.0668141581"><ele>55.44</ele><time>2026-08-11T20:27:39Z</time></trkpt><trkpt lat="59.6512711141" lon="31.0667844862"><ele>57.18</ele><time>2026-08-11T20:28:07Z</time></trkpt><trkpt lat="59.6512710303" lon="31.0667977296"><ele>57.80</ele><time>2026-08-11T20:28:31Z</time></trkpt><trkpt lat="59.6512701083" lon="31.0668087099"><ele>57.90</ele><time>2026-08-11T20:28:54Z</time></trkpt><trkpt lat="59.6512939967" lon="31.0667696502"><ele>58.37</ele><time>2026-08-11T20:29:21Z</time></trkpt><trkpt lat="59.6512900572" lon="31.0667333566"><ele>58.39</ele><time>2026-08-11T20:30:05Z</time></trkpt><trkpt lat="59.6512577031" lon="31.0668533854"><ele>55.25</ele><time>2026-08-11T20:30:34Z</time></trkpt><trkpt lat="59.6512856148" lon="31.0668337718"><ele>55.24</ele><time>2026-08-11T20:31:05Z</time></trkpt><trkpt lat="59.6513157897" lon="31.0667635314"><ele>58.87</ele><time>2026-08-11T20:31:30Z</time></trkpt><trkpt lat="59.6513392590" lon="31.0668434948"><ele>58.76</ele><time>2026-08-11T20:31:59Z</time></trkpt><trkpt lat="59.6512713656" lon="31.0668537207"><ele>57.83</ele><time>2026-08-11T20:32:24Z</time></trkpt><trkpt lat="59.6512217447" lon="31.0668332689"><ele>56.97</ele><time>2026-08-11T20:32:44Z</time></trkpt><trkpt lat="59.6511939168" lon="31.0668076202"><ele>56.67</ele><time>2026-08-11T20:32:55Z</time></trkpt><trkpt lat="59.6511086728" lon="31.0667468514"><ele>56.43</ele><time>2026-08-11T20:33:17Z</time></trkpt><trkpt lat="59.6510872990" lon="31.0666283313"><ele>56.03</ele><time>2026-08-11T20:33:29Z</time></trkpt><trkpt lat="59.6510657575" lon="31.0665177740"><ele>56.77</ele><time>2026-08-11T20:33:51Z</time></trkpt><trkpt lat="59.6510833595" lon="31.0664192028"><ele>55.97</ele><time>2026-08-11T20:34:13Z</time></trkpt><trkpt lat="59.6510649193" lon="31.0663661454"><ele>55.20</ele><time>2026-08-11T20:34:32Z</time></trkpt><trkpt lat="59.6510087606" lon="31.0662645567"><ele>54.00</ele><time>2026-08-11T20:34:51Z</time></trkpt><trkpt lat="59.6509667672" lon="31.0661783908"><ele>53.60</ele><time>2026-08-11T20:35:06Z</time></trkpt><trkpt lat="59.6508655977" lon="31.0660332162"><ele>52.08</ele><time>2026-08-11T20:35:26Z</time></trkpt><trkpt lat="59.6508345008" lon="31.0660303663"><ele>51.84</ele><time>2026-08-11T20:35:34Z</time></trkpt><trkpt lat="59.6507391147" lon="31.0658932384"><ele>51.37</ele><time>2026-08-11T20:36:01Z</time></trkpt><trkpt lat="59.6507065091" lon="31.0658308771"><ele>51.09</ele><time>2026-08-11T20:36:13Z</time></trkpt><trkpt lat="59.6506668627" lon="31.0656987783"><ele>51.04</ele><time>2026-08-11T20:36:36Z</time></trkpt><trkpt lat="59.6507514361" lon="31.0657142848"><ele>53.40</ele><time>2026-08-11T20:37:05Z</time></trkpt><trkpt lat="59.6507526096" lon="31.0657507461"><ele>54.43</ele><time>2026-08-11T20:37:33Z</time></trkpt><trkpt lat="59.6506870631" lon="31.0657158773"><ele>55.47</ele><time>2026-08-11T20:38:05Z</time></trkpt><trkpt lat="59.6507153101" lon="31.0658109281"><ele>54.62</ele><time>2026-08-11T20:38:31Z</time></trkpt><trkpt lat="59.6506777592" lon="31.0658021271"><ele>54.77</ele><time>2026-08-11T20:39:03Z</time></trkpt><trkpt lat="59.6506884042" lon="31.0657723714"><ele>54.83</ele><time>2026-08-11T20:39:28Z</time></trkpt><trkpt lat="59.6506845485" lon="31.0657181405"><ele>55.09</ele><time>2026-08-11T20:39:55Z</time></trkpt><trkpt lat="59.6507179085" lon="31.0656844452"><ele>53.00</ele><time>2026-08-11T20:40:27Z</time></trkpt><trkpt lat="59.6506771725" lon="31.0655839462"><ele>51.44</ele><time>2026-08-11T20:40:59Z</time></trkpt><trkpt lat="59.6506783459" lon="31.0656249337"><ele>50.84</ele><time>2026-08-11T20:41:30Z</time></trkpt><trkpt lat="59.6506901644" lon="31.0655992012"><ele>50.78</ele><time>2026-08-11T20:41:58Z</time></trkpt><trkpt lat="59.6506911702" lon="31.0656048171"><ele>51.13</ele><time>2026-08-11T20:42:26Z</time></trkpt><trkpt lat="59.6506501827" lon="31.0656419490"><ele>51.17</ele><time>2026-08-11T20:42:53Z</time></trkpt><trkpt lat="59.6506482549" lon="31.0655672662"><ele>51.04</ele><time>2026-08-11T20:43:16Z</time></trkpt><trkpt lat="59.6506604925" lon="31.0655655898"><ele>50.70</ele><time>2026-08-11T20:43:42Z</time></trkpt><trkpt lat="59.6506588161" lon="31.0655148793"><ele>52.06</ele><time>2026-08-11T20:44:09Z</time></trkpt><trkpt lat="59.6506863926" lon="31.0656208266"><ele>52.15</ele><time>2026-08-11T20:44:31Z</time></trkpt><trkpt lat="59.6507329121" lon="31.0657914821"><ele>53.60</ele><time>2026-08-11T20:44:57Z</time></trkpt><trkpt lat="59.6507311519" lon="31.0658494011"><ele>54.92</ele><time>2026-08-11T20:45:26Z</time></trkpt><trkpt lat="59.6507562976" lon="31.0658362415"><ele>57.04</ele><time>2026-08-11T20:45:59Z</time></trkpt><trkpt lat="59.6507332474" lon="31.0658220761"><ele>57.33</ele><time>2026-08-11T20:46:32Z</time></trkpt><trkpt lat="59.6507443115" lon="31.0657975171"><ele>57.54</ele><time>2026-08-11T20:47:02Z</time></trkpt><trkpt lat="59.6507201716" lon="31.0658049770"><ele>56.71</ele><time>2026-08-11T20:47:29Z</time></trkpt><trkpt lat="59.6507024858" lon="31.0658703558"><ele>54.01</ele><time>2026-08-11T20:48:05Z</time></trkpt><trkpt lat="59.6507713012" lon="31.0657717008"><ele>53.29</ele><time>2026-08-11T20:48:31Z</time></trkpt><trkpt lat="59.6507604886" lon="31.0656660888"><ele>51.97</ele><time>2026-08-11T20:48:50Z</time></trkpt><trkpt lat="59.6507215966" lon="31.0655163042"><ele>51.40</ele><time>2026-08-11T20:49:09Z</time></trkpt><trkpt lat="59.6506694611" lon="31.0654033162"><ele>50.98</ele><time>2026-08-11T20:49:26Z</time></trkpt><trkpt lat="59.6504930221" lon="31.0653883126"><ele>49.70</ele><time>2026-08-11T20:49:46Z</time></trkpt><trkpt lat="59.6503910981" lon="31.0653902404"><ele>48.72</ele><time>2026-08-11T20:50:02Z</time></trkpt><trkpt lat="59.6503450815" lon="31.0654101055"><ele>49.30</ele><time>2026-08-11T20:50:23Z</time></trkpt><trkpt lat="59.6502671298" lon="31.0653524380"><ele>49.44</ele><time>2026-08-11T20:50:41Z</time></trkpt><trkpt lat="59.6502043493" lon="31.0653197486"><ele>49.03</ele><time>2026-08-11T20:51:02Z</time></trkpt><trkpt lat="59.6501294989" lon="31.0651917569"><ele>48.77</ele><time>2026-08-11T20:51:22Z</time></trkpt><trkpt lat="59.6500870865" lon="31.0650278907"><ele>48.74</ele><time>2026-08-11T20:51:42Z</time></trkpt><trkpt lat="59.6500590909" lon="31.0649118014"><ele>49.12</ele><time>2026-08-11T20:52:02Z</time></trkpt><trkpt lat="59.6500460990" lon="31.0646234639"><ele>49.57</ele><time>2026-08-11T20:52:25Z</time></trkpt><trkpt lat="59.6500067040" lon="31.0644729249"><ele>50.51</ele><time>2026-08-11T20:52:45Z</time></trkpt><trkpt lat="59.6499492880" lon="31.0643699951"><ele>51.67</ele><time>2026-08-11T20:53:05Z</time></trkpt><trkpt lat="59.6499078814" lon="31.0645036027"><ele>51.67</ele><time>2026-08-11T20:53:22Z</time></trkpt><trkpt lat="59.6498481184" lon="31.0644730926"><ele>50.80</ele><time>2026-08-11T20:53:41Z</time></trkpt><trkpt lat="59.6498566680" lon="31.0644401517"><ele>50.70</ele><time>2026-08-11T20:54:05Z</time></trkpt><trkpt lat="59.6498894412" lon="31.0644059535"><ele>52.07</ele><time>2026-08-11T20:54:33Z</time></trkpt><trkpt lat="59.6499152575" lon="31.0644719191"><ele>53.03</ele><time>2026-08-11T20:55:05Z</time></trkpt><trkpt lat="59.6499342844" lon="31.0644141678"><ele>56.24</ele><time>2026-08-11T20:55:39Z</time></trkpt><trkpt lat="59.6499760263" lon="31.0644180235"><ele>56.14</ele><time>2026-08-11T20:56:05Z</time></trkpt><trkpt lat="59.6499431692" lon="31.0644003376"><ele>55.31</ele><time>2026-08-11T20:56:34Z</time></trkpt><trkpt lat="59.6499634534" lon="31.0644154251"><ele>55.36</ele><time>2026-08-11T20:57:04Z</time></trkpt><trkpt lat="59.6498549078" lon="31.0643591825"><ele>53.78</ele><time>2026-08-11T20:57:39Z</time></trkpt><trkpt lat="59.6498788800" lon="31.0643432569"><ele>54.62</ele><time>2026-08-11T20:58:05Z</time></trkpt><trkpt lat="59.6497988328" lon="31.0643326119"><ele>54.83</ele><time>2026-08-11T20:58:21Z</time></trkpt><trkpt lat="59.6497181989" lon="31.0643343721"><ele>53.97</ele><time>2026-08-11T20:58:39Z</time></trkpt><trkpt lat="59.6497092303" lon="31.0643279180"><ele>53.96</ele><time>2026-08-11T20:58:40Z</time></trkpt><trkpt lat="59.6495607030" lon="31.0642432608"><ele>53.05</ele><time>2026-08-11T20:59:00Z</time></trkpt><trkpt lat="59.6495053824" lon="31.0641638003"><ele>53.94</ele><time>2026-08-11T20:59:21Z</time></trkpt><trkpt lat="59.6494882833" lon="31.0640569311"><ele>53.52</ele><time>2026-08-11T20:59:41Z</time></trkpt><trkpt lat="59.6494361479" lon="31.0639422666"><ele>53.05</ele><time>2026-08-11T21:00:04Z</time></trkpt><trkpt lat="59.6494184621" lon="31.0637550149"><ele>52.30</ele><time>2026-08-11T21:00:26Z</time></trkpt><trkpt lat="59.6493295301" lon="31.0636879597"><ele>51.26</ele><time>2026-08-11T21:00:47Z</time></trkpt><trkpt lat="59.6492411010" lon="31.0636608023"><ele>49.91</ele><time>2026-08-11T21:01:08Z</time></trkpt><trkpt lat="59.6491350699" lon="31.0636409372"><ele>49.64</ele><time>2026-08-11T21:01:31Z</time></trkpt><trkpt lat="59.6490463894" lon="31.0636483133"><ele>48.93</ele><time>2026-08-11T21:01:54Z</time></trkpt><trkpt lat="59.6490057372" lon="31.0637102555"><ele>48.27</ele><time>2026-08-11T21:02:15Z</time></trkpt><trkpt lat="59.6490167174" lon="31.0637300368"><ele>48.45</ele><time>2026-08-11T21:02:45Z</time></trkpt><trkpt lat="59.6489873808" lon="31.0636985209"><ele>48.47</ele><time>2026-08-11T21:03:06Z</time></trkpt><trkpt lat="59.6490207408" lon="31.0637216549"><ele>49.18</ele><time>2026-08-11T21:03:33Z</time></trkpt><trkpt lat="59.6490156278" lon="31.0637108423"><ele>49.77</ele><time>2026-08-11T21:04:00Z</time></trkpt><trkpt lat="59.6490257699" lon="31.0636871215"><ele>49.92</ele><time>2026-08-11T21:04:29Z</time></trkpt><trkpt lat="59.6490179747" lon="31.0636695195"><ele>50.40</ele><time>2026-08-11T21:04:54Z</time></trkpt><trkpt lat="59.6489966847" lon="31.0637770593"><ele>51.89</ele><time>2026-08-11T21:05:11Z</time></trkpt><trkpt lat="59.6489723772" lon="31.0636947490"><ele>53.41</ele><time>2026-08-11T21:05:47Z</time></trkpt><trkpt lat="59.6490100119" lon="31.0635546036"><ele>53.21</ele><time>2026-08-11T21:06:07Z</time></trkpt><trkpt lat="59.6489692759" lon="31.0635484848"><ele>52.83</ele><time>2026-08-11T21:06:28Z</time></trkpt><trkpt lat="59.6488829423" lon="31.0635031387"><ele>52.88</ele><time>2026-08-11T21:06:50Z</time></trkpt><trkpt lat="59.6488178149" lon="31.0634023882"><ele>52.75</ele><time>2026-08-11T21:07:12Z</time></trkpt><trkpt lat="59.6487813536" lon="31.0633196589"><ele>52.39</ele><time>2026-08-11T21:07:36Z</time></trkpt><trkpt lat="59.6487141307" lon="31.0631357599"><ele>52.27</ele><time>2026-08-11T21:08:01Z</time></trkpt><trkpt lat="59.6486963611" lon="31.0630863067"><ele>52.12</ele><time>2026-08-11T21:08:18Z</time></trkpt><trkpt lat="59.6486153919" lon="31.0629396234"><ele>52.17</ele><time>2026-08-11T21:08:40Z</time></trkpt><trkpt lat="59.6486057527" lon="31.0629245359"><ele>53.76</ele><time>2026-08-11T21:08:51Z</time></trkpt><trkpt lat="59.6485101990" lon="31.0629102867"><ele>55.49</ele><time>2026-08-11T21:09:11Z</time></trkpt><trkpt lat="59.6483951993" lon="31.0628719814"><ele>55.77</ele><time>2026-08-11T21:09:31Z</time></trkpt><trkpt lat="59.6482813731" lon="31.0628683772"><ele>54.90</ele><time>2026-08-11T21:09:50Z</time></trkpt><trkpt lat="59.6482170839" lon="31.0629368573"><ele>55.66</ele><time>2026-08-11T21:10:09Z</time></trkpt><trkpt lat="59.6481947880" lon="31.0629273020"><ele>54.56</ele><time>2026-08-11T21:10:39Z</time></trkpt><trkpt lat="59.6481896751" lon="31.0628185049"><ele>54.28</ele><time>2026-08-11T21:11:01Z</time></trkpt><trkpt lat="59.6481513698" lon="31.0626223683"><ele>54.08</ele><time>2026-08-11T21:11:26Z</time></trkpt><trkpt lat="59.6481512859" lon="31.0625901818"><ele>54.24</ele><time>2026-08-11T21:11:36Z</time></trkpt><trkpt lat="59.6480676346" lon="31.0625092126"><ele>55.51</ele><time>2026-08-11T21:11:59Z</time></trkpt><trkpt lat="59.6480283234" lon="31.0624814685"><ele>55.17</ele><time>2026-08-11T21:12:20Z</time></trkpt><trkpt lat="59.6480704844" lon="31.0623337794"><ele>54.31</ele><time>2026-08-11T21:12:42Z</time></trkpt><trkpt lat="59.6481050178" lon="31.0622616112"><ele>56.02</ele><time>2026-08-11T21:13:04Z</time></trkpt><trkpt lat="59.6481017489" lon="31.0622419976"><ele>56.74</ele><time>2026-08-11T21:13:14Z</time></trkpt><trkpt lat="59.6480470989" lon="31.0622379743"><ele>57.40</ele><time>2026-08-11T21:13:40Z</time></trkpt><trkpt lat="59.6479939576" lon="31.0622044466"><ele>55.80</ele><time>2026-08-11T21:14:02Z</time></trkpt><trkpt lat="59.6479857434" lon="31.0622093081"><ele>55.74</ele><time>2026-08-11T21:14:03Z</time></trkpt><trkpt lat="59.6478911955" lon="31.0622690711"><ele>55.15</ele><time>2026-08-11T21:14:21Z</time></trkpt><trkpt lat="59.6478445083" lon="31.0622794647"><ele>54.53</ele><time>2026-08-11T21:14:50Z</time></trkpt><trkpt lat="59.6477656346" lon="31.0622388124"><ele>54.88</ele><time>2026-08-11T21:15:12Z</time></trkpt><trkpt lat="59.6477788780" lon="31.0621913709"><ele>54.14</ele><time>2026-08-11T21:15:35Z</time></trkpt><trkpt lat="59.6477563307" lon="31.0621969867"><ele>53.01</ele><time>2026-08-11T21:16:02Z</time></trkpt><trkpt lat="59.6477373876" lon="31.0622962285"><ele>52.77</ele><time>2026-08-11T21:16:23Z</time></trkpt><trkpt lat="59.6476023551" lon="31.0622357950"><ele>54.58</ele><time>2026-08-11T21:16:47Z</time></trkpt><trkpt lat="59.6475948114" lon="31.0621756129"><ele>55.13</ele><time>2026-08-11T21:16:54Z</time></trkpt><trkpt lat="59.6476546582" lon="31.0619206354"><ele>54.04</ele><time>2026-08-11T21:17:16Z</time></trkpt><trkpt lat="59.6476935502" lon="31.0618809052"><ele>53.21</ele><time>2026-08-11T21:17:27Z</time></trkpt><trkpt lat="59.6477482002" lon="31.0617317911"><ele>52.70</ele><time>2026-08-11T21:17:47Z</time></trkpt><trkpt lat="59.6476852521" lon="31.0617322940"><ele>52.47</ele><time>2026-08-11T21:18:06Z</time></trkpt><trkpt lat="59.6475634631" lon="31.0616520792"><ele>51.87</ele><time>2026-08-11T21:18:27Z</time></trkpt><trkpt lat="59.6475573443" lon="31.0616309568"><ele>51.77</ele><time>2026-08-11T21:18:30Z</time></trkpt><trkpt lat="59.6475155186" lon="31.0615937412"><ele>51.04</ele><time>2026-08-11T21:19:00Z</time></trkpt><trkpt lat="59.6476108208" lon="31.0616166238"><ele>50.33</ele><time>2026-08-11T21:19:34Z</time></trkpt><trkpt lat="59.6476958133" lon="31.0616046377"><ele>49.79</ele><time>2026-08-11T21:19:50Z</time></trkpt><trkpt lat="59.6478476096" lon="31.0616054758"><ele>53.50</ele><time>2026-08-11T21:20:21Z</time></trkpt><trkpt lat="59.6477684844" lon="31.0616089962"><ele>52.84</ele><time>2026-08-11T21:20:32Z</time></trkpt><trkpt lat="59.6476725116" lon="31.0616333038"><ele>51.22</ele><time>2026-08-11T21:20:45Z</time></trkpt><trkpt lat="59.6475501359" lon="31.0617167875"><ele>51.74</ele><time>2026-08-11T21:21:10Z</time></trkpt><trkpt lat="59.6475377306" lon="31.0616380814"><ele>53.97</ele><time>2026-08-11T21:21:40Z</time></trkpt><trkpt lat="59.6475202963" lon="31.0616683401"><ele>55.30</ele><time>2026-08-11T21:22:07Z</time></trkpt><trkpt lat="59.6475090645" lon="31.0616585333"><ele>57.00</ele><time>2026-08-11T21:22:32Z</time></trkpt><trkpt lat="59.6475249063" lon="31.0616311245"><ele>57.37</ele><time>2026-08-11T21:23:00Z</time></trkpt><trkpt lat="59.6474864334" lon="31.0617207270"><ele>58.04</ele><time>2026-08-11T21:23:29Z</time></trkpt><trkpt lat="59.6474816557" lon="31.0617638938"><ele>59.64</ele><time>2026-08-11T21:23:59Z</time></trkpt><trkpt lat="59.6474828292" lon="31.0617399216"><ele>59.85</ele><time>2026-08-11T21:24:30Z</time></trkpt><trkpt lat="59.6474643890" lon="31.0616680048"><ele>60.02</ele><time>2026-08-11T21:24:59Z</time></trkpt><trkpt lat="59.6474724356" lon="31.0616758000"><ele>60.50</ele><time>2026-08-11T21:25:27Z</time></trkpt><trkpt lat="59.6474965755" lon="31.0616825894"><ele>60.04</ele><time>2026-08-11T21:25:57Z</time></trkpt><trkpt lat="59.6474496368" lon="31.0616139416"><ele>59.13</ele><time>2026-08-11T21:26:36Z</time></trkpt><trkpt lat="59.6474030335" lon="31.0615623090"><ele>58.41</ele><time>2026-08-11T21:26:53Z</time></trkpt><trkpt lat="59.6472931467" lon="31.0614525061"><ele>55.51</ele><time>2026-08-11T21:27:12Z</time></trkpt><trkpt lat="59.6473193821" lon="31.0613341536"><ele>54.07</ele><time>2026-08-11T21:27:26Z</time></trkpt><trkpt lat="59.6472682524" lon="31.0612442158"><ele>53.27</ele><time>2026-08-11T21:27:43Z</time></trkpt><trkpt lat="59.6472311206" lon="31.0611085128"><ele>52.34</ele><time>2026-08-11T21:28:07Z</time></trkpt><trkpt lat="59.6472203918" lon="31.0609742347"><ele>51.67</ele><time>2026-08-11T21:28:17Z</time></trkpt><trkpt lat="59.6471384168" lon="31.0607733205"><ele>50.36</ele><time>2026-08-11T21:28:43Z</time></trkpt><trkpt lat="59.6471451223" lon="31.0606305767"><ele>49.12</ele><time>2026-08-11T21:29:06Z</time></trkpt><trkpt lat="59.6470561903" lon="31.0605150741"><ele>48.46</ele><time>2026-08-11T21:29:32Z</time></trkpt><trkpt lat="59.6469736286" lon="31.0605969653"><ele>48.68</ele><time>2026-08-11T21:29:54Z</time></trkpt><trkpt lat="59.6469947509" lon="31.0606562253"><ele>48.32</ele><time>2026-08-11T21:30:03Z</time></trkpt><trkpt lat="59.6469852794" lon="31.0608910862"><ele>47.79</ele><time>2026-08-11T21:30:34Z</time></trkpt><trkpt lat="59.6469724551" lon="31.0609678645"><ele>47.38</ele><time>2026-08-11T21:30:56Z</time></trkpt><trkpt lat="59.6470178850" lon="31.0609787609"><ele>46.27</ele><time>2026-08-11T21:31:26Z</time></trkpt><trkpt lat="59.6470259316" lon="31.0609991290"><ele>46.51</ele><time>2026-08-11T21:31:46Z</time></trkpt><trkpt lat="59.6470038034" lon="31.0609893221"><ele>45.16</ele><time>2026-08-11T21:32:15Z</time></trkpt><trkpt lat="59.6469591279" lon="31.0609805211"><ele>45.23</ele><time>2026-08-11T21:32:49Z</time></trkpt><trkpt lat="59.6469400171" lon="31.0609935969"><ele>44.51</ele><time>2026-08-11T21:33:22Z</time></trkpt><trkpt lat="59.6468914021" lon="31.0610011406"><ele>44.21</ele><time>2026-08-11T21:33:56Z</time></trkpt><trkpt lat="59.6469503269" lon="31.0611216724"><ele>45.83</ele><time>2026-08-11T21:34:19Z</time></trkpt><trkpt lat="59.6469754726" lon="31.0611786693"><ele>45.26</ele><time>2026-08-11T21:34:39Z</time></trkpt><trkpt lat="59.6470176335" lon="31.0610376857"><ele>44.38</ele><time>2026-08-11T21:35:00Z</time></trkpt><trkpt lat="59.6469426993" lon="31.0609082691"><ele>44.31</ele><time>2026-08-11T21:35:21Z</time></trkpt><trkpt lat="59.6468859538" lon="31.0607656930"><ele>43.64</ele><time>2026-08-11T21:35:40Z</time></trkpt><trkpt lat="59.6468773205" lon="31.0606522020"><ele>42.72</ele><time>2026-08-11T21:35:56Z</time></trkpt><trkpt lat="59.6468503308" lon="31.0604663752"><ele>42.32</ele><time>2026-08-11T21:36:19Z</time></trkpt><trkpt lat="59.6467365045" lon="31.0603260621"><ele>42.40</ele><time>2026-08-11T21:36:37Z</time></trkpt><trkpt lat="59.6467137896" lon="31.0604014993"><ele>42.34</ele><time>2026-08-11T21:37:02Z</time></trkpt><trkpt lat="59.6466991212" lon="31.0605886672"><ele>42.63</ele><time>2026-08-11T21:37:21Z</time></trkpt><trkpt lat="59.6466619056" lon="31.0607736558"><ele>43.21</ele><time>2026-08-11T21:37:47Z</time></trkpt><trkpt lat="59.6466070879" lon="31.0607771762"><ele>43.96</ele><time>2026-08-11T21:38:02Z</time></trkpt><trkpt lat="59.6466102730" lon="31.0608635098"><ele>44.74</ele><time>2026-08-11T21:38:21Z</time></trkpt><trkpt lat="59.6465919167" lon="31.0609397851"><ele>45.22</ele><time>2026-08-11T21:38:44Z</time></trkpt><trkpt lat="59.6465918329" lon="31.0609500110"><ele>45.18</ele><time>2026-08-11T21:38:45Z</time></trkpt><trkpt lat="59.6465222631" lon="31.0609863885"><ele>43.88</ele><time>2026-08-11T21:39:03Z</time></trkpt><trkpt lat="59.6465051640" lon="31.0609117895"><ele>43.03</ele><time>2026-08-11T21:39:22Z</time></trkpt><trkpt lat="59.6464652661" lon="31.0609592311"><ele>42.37</ele><time>2026-08-11T21:39:45Z</time></trkpt><trkpt lat="59.6464137174" lon="31.0609498434"><ele>42.26</ele><time>2026-08-11T21:40:10Z</time></trkpt><trkpt lat="59.6464284696" lon="31.0609356780"><ele>41.05</ele><time>2026-08-11T21:40:42Z</time></trkpt><trkpt lat="59.6463513561" lon="31.0610006377"><ele>41.67</ele><time>2026-08-11T21:41:08Z</time></trkpt><trkpt lat="59.6463375259" lon="31.0610801820"><ele>42.59</ele><time>2026-08-11T21:41:34Z</time></trkpt><trkpt lat="59.6463715564" lon="31.0612435453"><ele>41.16</ele><time>2026-08-11T21:41:55Z</time></trkpt><trkpt lat="59.6464090236" lon="31.0613085050"><ele>40.83</ele><time>2026-08-11T21:42:13Z</time></trkpt><trkpt lat="59.6464440599" lon="31.0614135303"><ele>40.97</ele><time>2026-08-11T21:42:31Z</time></trkpt><trkpt lat="59.6464915853" lon="31.0614872910"><ele>40.37</ele><time>2026-08-11T21:42:52Z</time></trkpt><trkpt lat="59.6465177368" lon="31.0615156218"><ele>41.52</ele><time>2026-08-11T21:43:16Z</time></trkpt><trkpt lat="59.6465534437" lon="31.0615248419"><ele>41.90</ele><time>2026-08-11T21:43:42Z</time></trkpt><trkpt lat="59.6465914976" lon="31.0615166277"><ele>42.87</ele><time>2026-08-11T21:44:09Z</time></trkpt><trkpt lat="59.6466331556" lon="31.0614779033"><ele>42.37</ele><time>2026-08-11T21:44:28Z</time></trkpt><trkpt lat="59.6466643363" lon="31.0614361614"><ele>43.22</ele><time>2026-08-11T21:44:45Z</time></trkpt><trkpt lat="59.6467049047" lon="31.0614266898"><ele>44.23</ele><time>2026-08-11T21:45:10Z</time></trkpt><trkpt lat="59.6467273682" lon="31.0614727065"><ele>44.92</ele><time>2026-08-11T21:45:34Z</time></trkpt><trkpt lat="59.6467981115" lon="31.0614674259"><ele>43.93</ele><time>2026-08-11T21:45:54Z</time></trkpt><trkpt lat="59.6468371712" lon="31.0613534320"><ele>44.27</ele><time>2026-08-11T21:46:14Z</time></trkpt><trkpt lat="59.6468892228" lon="31.0613489058"><ele>44.13</ele><time>2026-08-11T21:46:38Z</time></trkpt><trkpt lat="59.6469104290" lon="31.0613942519"><ele>43.87</ele><time>2026-08-11T21:46:44Z</time></trkpt><trkpt lat="59.6469388437" lon="31.0615704395"><ele>42.54</ele><time>2026-08-11T21:47:04Z</time></trkpt><trkpt lat="59.6468822658" lon="31.0616908874"><ele>41.96</ele><time>2026-08-11T21:47:26Z</time></trkpt><trkpt lat="59.6468392666" lon="31.0617577750"><ele>42.13</ele><time>2026-08-11T21:47:37Z</time></trkpt><trkpt lat="59.6467724629" lon="31.0618471261"><ele>43.89</ele><time>2026-08-11T21:48:00Z</time></trkpt><trkpt lat="59.6467259433" lon="31.0619283468"><ele>44.48</ele><time>2026-08-11T21:48:19Z</time></trkpt><trkpt lat="59.6466571279" lon="31.0620341264"><ele>45.19</ele><time>2026-08-11T21:48:39Z</time></trkpt><trkpt lat="59.6466212533" lon="31.0620384011"><ele>45.03</ele><time>2026-08-11T21:49:02Z</time></trkpt><trkpt lat="59.6466142964" lon="31.0619999282"><ele>44.12</ele><time>2026-08-11T21:49:25Z</time></trkpt><trkpt lat="59.6466039028" lon="31.0620207991"><ele>42.53</ele><time>2026-08-11T21:49:54Z</time></trkpt><trkpt lat="59.6466246061" lon="31.0620912910"><ele>42.68</ele><time>2026-08-11T21:50:25Z</time></trkpt><trkpt lat="59.6466474887" lon="31.0620949790"><ele>41.81</ele><time>2026-08-11T21:50:57Z</time></trkpt><trkpt lat="59.6466471534" lon="31.0620519798"><ele>41.24</ele><time>2026-08-11T21:51:23Z</time></trkpt><trkpt lat="59.6466220077" lon="31.0621067975"><ele>40.03</ele><time>2026-08-11T21:51:51Z</time></trkpt><trkpt lat="59.6466274559" lon="31.0621153470"><ele>38.13</ele><time>2026-08-11T21:52:21Z</time></trkpt><trkpt lat="59.6466299705" lon="31.0621881858"><ele>42.40</ele><time>2026-08-11T21:52:50Z</time></trkpt><trkpt lat="59.6466308087" lon="31.0621061269"><ele>43.27</ele><time>2026-08-11T21:53:19Z</time></trkpt><trkpt lat="59.6466329042" lon="31.0620434303"><ele>42.56</ele><time>2026-08-11T21:53:51Z</time></trkpt><trkpt lat="59.6466096863" lon="31.0620622057"><ele>42.57</ele><time>2026-08-11T21:54:20Z</time></trkpt><trkpt lat="59.6466069203" lon="31.0620619543"><ele>40.65</ele><time>2026-08-11T21:54:53Z</time></trkpt><trkpt lat="59.6466104407" lon="31.0622237250"><ele>41.53</ele><time>2026-08-11T21:55:12Z</time></trkpt><trkpt lat="59.6466574632" lon="31.0623770300"><ele>41.61</ele><time>2026-08-11T21:55:30Z</time></trkpt><trkpt lat="59.6466697007" lon="31.0623845737"><ele>41.64</ele><time>2026-08-11T21:55:35Z</time></trkpt><trkpt lat="59.6466973610" lon="31.0624561552"><ele>40.68</ele><time>2026-08-11T21:55:48Z</time></trkpt><trkpt lat="59.6467119455" lon="31.0626069456"><ele>41.76</ele><time>2026-08-11T21:56:13Z</time></trkpt><trkpt lat="59.6467588004" lon="31.0627354402"><ele>41.29</ele><time>2026-08-11T21:56:31Z</time></trkpt><trkpt lat="59.6467612311" lon="31.0627463367"><ele>41.23</ele><time>2026-08-11T21:56:32Z</time></trkpt><trkpt lat="59.6468257718" lon="31.0629850533"><ele>40.84</ele><time>2026-08-11T21:56:56Z</time></trkpt><trkpt lat="59.6468944196" lon="31.0631287191"><ele>40.58</ele><time>2026-08-11T21:57:12Z</time></trkpt><trkpt lat="59.6469224151" lon="31.0633023083"><ele>39.86</ele><time>2026-08-11T21:57:26Z</time></trkpt><trkpt lat="59.6469908953" lon="31.0634811781"><ele>39.14</ele><time>2026-08-11T21:57:41Z</time></trkpt><trkpt lat="59.6469913982" lon="31.0635817610"><ele>38.89</ele><time>2026-08-11T21:58:12Z</time></trkpt><trkpt lat="59.6470717806" lon="31.0636254307"><ele>37.85</ele><time>2026-08-11T21:58:41Z</time></trkpt><trkpt lat="59.6470232494" lon="31.0636448767"><ele>39.45</ele><time>2026-08-11T21:59:06Z</time></trkpt><trkpt lat="59.6470444556" lon="31.0636928212"><ele>42.47</ele><time>2026-08-11T21:59:37Z</time></trkpt><trkpt lat="59.6470573638" lon="31.0636524204"><ele>43.84</ele><time>2026-08-11T22:00:03Z</time></trkpt><trkpt lat="59.6469893865" lon="31.0636701901"><ele>43.91</ele><time>2026-08-11T22:00:34Z</time></trkpt><trkpt lat="59.6470636502" lon="31.0635782406"><ele>44.39</ele><time>2026-08-11T22:01:01Z</time></trkpt><trkpt lat="59.6471918095" lon="31.0634018853"><ele>44.03</ele><time>2026-08-11T22:01:21Z</time></trkpt><trkpt lat="59.6472627204" lon="31.0633887257"><ele>42.69</ele><time>2026-08-11T22:01:42Z</time></trkpt><trkpt lat="59.6472452860" lon="31.0633761529"><ele>42.81</ele><time>2026-08-11T22:02:00Z</time></trkpt><trkpt lat="59.6472266782" lon="31.0635692719"><ele>42.98</ele><time>2026-08-11T22:02:18Z</time></trkpt><trkpt lat="59.6472555120" lon="31.0638401750"><ele>40.70</ele><time>2026-08-11T22:02:37Z</time></trkpt><trkpt lat="59.6472996846" lon="31.0638151132"><ele>38.63</ele><time>2026-08-11T22:02:49Z</time></trkpt><trkpt lat="59.6474411711" lon="31.0636969283"><ele>37.74</ele><time>2026-08-11T22:03:08Z</time></trkpt><trkpt lat="59.6474871039" lon="31.0637607984"><ele>39.12</ele><time>2026-08-11T22:03:30Z</time></trkpt><trkpt lat="59.6474773809" lon="31.0637571104"><ele>41.24</ele><time>2026-08-11T22:03:59Z</time></trkpt><trkpt lat="59.6474939771" lon="31.0636674240"><ele>42.62</ele><time>2026-08-11T22:04:37Z</time></trkpt><trkpt lat="59.6475419216" lon="31.0636996105"><ele>43.95</ele><time>2026-08-11T22:05:03Z</time></trkpt><trkpt lat="59.6475148480" lon="31.0637074057"><ele>45.46</ele><time>2026-08-11T22:05:30Z</time></trkpt><trkpt lat="59.6475184523" lon="31.0638323799"><ele>48.71</ele><time>2026-08-11T22:05:53Z</time></trkpt><trkpt lat="59.6475798078" lon="31.0639897920"><ele>47.89</ele><time>2026-08-11T22:06:11Z</time></trkpt><trkpt lat="59.6476342063" lon="31.0641577654"><ele>47.32</ele><time>2026-08-11T22:06:39Z</time></trkpt><trkpt lat="59.6476665605" lon="31.0642202944"><ele>46.97</ele><time>2026-08-11T22:06:42Z</time></trkpt><trkpt lat="59.6478305943" lon="31.0644892696"><ele>46.60</ele><time>2026-08-11T22:07:05Z</time></trkpt><trkpt lat="59.6479121502" lon="31.0644849949"><ele>46.26</ele><time>2026-08-11T22:07:19Z</time></trkpt><trkpt lat="59.6480521280" lon="31.0644912813"><ele>45.44</ele><time>2026-08-11T22:07:40Z</time></trkpt><trkpt lat="59.6480214503" lon="31.0647761822"><ele>43.88</ele><time>2026-08-11T22:08:01Z</time></trkpt><trkpt lat="59.6480196062" lon="31.0648882482"><ele>43.52</ele><time>2026-08-11T22:08:15Z</time></trkpt><trkpt lat="59.6480474342" lon="31.0650757514"><ele>43.41</ele><time>2026-08-11T22:08:37Z</time></trkpt><trkpt lat="59.6482242085" lon="31.0650413856"><ele>41.43</ele><time>2026-08-11T22:08:55Z</time></trkpt><trkpt lat="59.6482981369" lon="31.0650650226"><ele>41.85</ele><time>2026-08-11T22:09:17Z</time></trkpt><trkpt lat="59.6484099515" lon="31.0650612507"><ele>42.55</ele><time>2026-08-11T22:09:32Z</time></trkpt><trkpt lat="59.6484792698" lon="31.0650827922"><ele>42.62</ele><time>2026-08-11T22:09:54Z</time></trkpt><trkpt lat="59.6485396195" lon="31.0651964508"><ele>45.44</ele><time>2026-08-11T22:10:37Z</time></trkpt><trkpt lat="59.6485504322" lon="31.0652042460"><ele>44.94</ele><time>2026-08-11T22:10:43Z</time></trkpt><trkpt lat="59.6484757494" lon="31.0651472490"><ele>47.74</ele><time>2026-08-11T22:11:13Z</time></trkpt><trkpt lat="59.6484896634" lon="31.0650592390"><ele>49.17</ele><time>2026-08-11T22:11:46Z</time></trkpt><trkpt lat="59.6485479176" lon="31.0651962832"><ele>48.27</ele><time>2026-08-11T22:12:03Z</time></trkpt><trkpt lat="59.6485775895" lon="31.0653151385"><ele>47.53</ele><time>2026-08-11T22:12:16Z</time></trkpt><trkpt lat="59.6485734824" lon="31.0655703675"><ele>46.10</ele><time>2026-08-11T22:12:34Z</time></trkpt><trkpt lat="59.6485791821" lon="31.0657451302"><ele>45.07</ele><time>2026-08-11T22:12:50Z</time></trkpt><trkpt lat="59.6485609934" lon="31.0659845173"><ele>44.79</ele><time>2026-08-11T22:13:10Z</time></trkpt><trkpt lat="59.6485709678" lon="31.0662607010"><ele>44.40</ele><time>2026-08-11T22:13:30Z</time></trkpt><trkpt lat="59.6485663578" lon="31.0664479528"><ele>44.36</ele><time>2026-08-11T22:13:47Z</time></trkpt><trkpt lat="59.6486081835" lon="31.0666433349"><ele>43.35</ele><time>2026-08-11T22:14:12Z</time></trkpt><trkpt lat="59.6486714669" lon="31.0668227077"><ele>42.24</ele><time>2026-08-11T22:14:30Z</time></trkpt><trkpt lat="59.6486391965" lon="31.0671026632"><ele>41.06</ele><time>2026-08-11T22:14:51Z</time></trkpt><trkpt lat="59.6486573853" lon="31.0673038289"><ele>41.32</ele><time>2026-08-11T22:15:12Z</time></trkpt><trkpt lat="59.6486542840" lon="31.0674015619"><ele>41.51</ele><time>2026-08-11T22:15:25Z</time></trkpt><trkpt lat="59.6486780047" lon="31.0675210878"><ele>41.55</ele><time>2026-08-11T22:15:42Z</time></trkpt><trkpt lat="59.6486606542" lon="31.0677270312"><ele>42.08</ele><time>2026-08-11T22:16:07Z</time></trkpt><trkpt lat="59.6486417111" lon="31.0677091777"><ele>42.37</ele><time>2026-08-11T22:16:30Z</time></trkpt><trkpt lat="59.6485457383" lon="31.0676519293"><ele>41.88</ele><time>2026-08-11T22:16:47Z</time></trkpt><trkpt lat="59.6485338360" lon="31.0675442219"><ele>42.83</ele><time>2026-08-11T22:17:15Z</time></trkpt><trkpt lat="59.6484907530" lon="31.0674888175"><ele>43.28</ele><time>2026-08-11T22:17:42Z</time></trkpt><trkpt lat="59.6485298127" lon="31.0673850495"><ele>43.12</ele><time>2026-08-11T22:18:07Z</time></trkpt><trkpt lat="59.6485205926" lon="31.0674783401"><ele>42.88</ele><time>2026-08-11T22:18:21Z</time></trkpt><trkpt lat="59.6485086065" lon="31.0675935075"><ele>43.17</ele><time>2026-08-11T22:18:30Z</time></trkpt><trkpt lat="59.6484252065" lon="31.0677369218"><ele>42.78</ele><time>2026-08-11T22:18:52Z</time></trkpt><trkpt lat="59.6484126337" lon="31.0677883867"><ele>43.33</ele><time>2026-08-11T22:19:15Z</time></trkpt><trkpt lat="59.6484275535" lon="31.0678121075"><ele>43.88</ele><time>2026-08-11T22:19:27Z</time></trkpt><trkpt lat="59.6484228596" lon="31.0677770711"><ele>42.33</ele><time>2026-08-11T22:19:57Z</time></trkpt><trkpt lat="59.6484462451" lon="31.0677976906"><ele>42.83</ele><time>2026-08-11T22:20:29Z</time></trkpt><trkpt lat="59.6484446526" lon="31.0678375047"><ele>44.23</ele><time>2026-08-11T22:20:55Z</time></trkpt><trkpt lat="59.6484112088" lon="31.0678700265"><ele>43.77</ele><time>2026-08-11T22:21:24Z</time></trkpt><trkpt lat="59.6484181657" lon="31.0678957589"><ele>44.88</ele><time>2026-08-11T22:21:59Z</time></trkpt><trkpt lat="59.6484017372" lon="31.0678192321"><ele>44.69</ele><time>2026-08-11T22:22:23Z</time></trkpt><trkpt lat="59.6483500209" lon="31.0677025560"><ele>43.83</ele><time>2026-08-11T22:22:47Z</time></trkpt><trkpt lat="59.6482701413" lon="31.0677737184"><ele>43.91</ele><time>2026-08-11T22:23:06Z</time></trkpt><trkpt lat="59.6482995618" lon="31.0679385066"><ele>45.34</ele><time>2026-08-11T22:23:27Z</time></trkpt><trkpt lat="59.6482502762" lon="31.0679389257"><ele>44.82</ele><time>2026-08-11T22:23:57Z</time></trkpt><trkpt lat="59.6481931116" lon="31.0679376684"><ele>44.85</ele><time>2026-08-11T22:24:24Z</time></trkpt><trkpt lat="59.6482724044" lon="31.0677914880"><ele>44.08</ele><time>2026-08-11T22:24:51Z</time></trkpt><trkpt lat="59.6483533736" lon="31.0677318089"><ele>43.57</ele><time>2026-08-11T22:25:11Z</time></trkpt><trkpt lat="59.6484467480" lon="31.0677811783"><ele>42.46</ele><time>2026-08-11T22:25:28Z</time></trkpt><trkpt lat="59.6484545432" lon="31.0677766521"><ele>42.83</ele><time>2026-08-11T22:25:36Z</time></trkpt><trkpt lat="59.6485164855" lon="31.0676528513"><ele>42.16</ele><time>2026-08-11T22:26:01Z</time></trkpt><trkpt lat="59.6485457383" lon="31.0677108541"><ele>41.88</ele><time>2026-08-11T22:26:16Z</time></trkpt><trkpt lat="59.6485001408" lon="31.0678101797"><ele>40.86</ele><time>2026-08-11T22:26:36Z</time></trkpt><trkpt lat="59.6484822873" lon="31.0678330623"><ele>40.29</ele><time>2026-08-11T22:26:58Z</time></trkpt><trkpt lat="59.6485006437" lon="31.0678126104"><ele>39.70</ele><time>2026-08-11T22:27:22Z</time></trkpt><trkpt lat="59.6485086065" lon="31.0676040687"><ele>38.95</ele><time>2026-08-11T22:27:39Z</time></trkpt><trkpt lat="59.6484921779" lon="31.0674535297"><ele>39.04</ele><time>2026-08-11T22:28:02Z</time></trkpt><trkpt lat="59.6485747397" lon="31.0674486682"><ele>38.44</ele><time>2026-08-11T22:28:25Z</time></trkpt><trkpt lat="59.6486324910" lon="31.0674909968"><ele>37.88</ele><time>2026-08-11T22:28:42Z</time></trkpt><trkpt lat="59.6487194113" lon="31.0676241852"><ele>36.02</ele><time>2026-08-11T22:28:59Z</time></trkpt><trkpt lat="59.6487657633" lon="31.0677649174"><ele>35.18</ele><time>2026-08-11T22:29:15Z</time></trkpt><trkpt lat="59.6488020569" lon="31.0677981935"><ele>35.11</ele><time>2026-08-11T22:29:37Z</time></trkpt><trkpt lat="59.6488601435" lon="31.0678331461"><ele>35.22</ele><time>2026-08-11T22:30:01Z</time></trkpt><trkpt lat="59.6488592215" lon="31.0678378399"><ele>35.04</ele><time>2026-08-11T22:30:04Z</time></trkpt><trkpt lat="59.6488844510" lon="31.0679194797"><ele>37.17</ele><time>2026-08-11T22:30:28Z</time></trkpt><trkpt lat="59.6488445532" lon="31.0679254308"><ele>40.85</ele><time>2026-08-11T22:30:57Z</time></trkpt><trkpt lat="59.6488445532" lon="31.0679568630"><ele>43.65</ele><time>2026-08-11T22:31:22Z</time></trkpt><trkpt lat="59.6488616522" lon="31.0678683501"><ele>43.61</ele><time>2026-08-11T22:31:43Z</time></trkpt><trkpt lat="59.6489220019" lon="31.0678003728"><ele>42.97</ele><time>2026-08-11T22:32:05Z</time></trkpt><trkpt lat="59.6488878876" lon="31.0677343234"><ele>43.61</ele><time>2026-08-11T22:32:31Z</time></trkpt><trkpt lat="59.6488373447" lon="31.0677906498"><ele>43.46</ele><time>2026-08-11T22:33:04Z</time></trkpt><trkpt lat="59.6487690322" lon="31.0678513348"><ele>42.59</ele><time>2026-08-11T22:33:26Z</time></trkpt><trkpt lat="59.6487577166" lon="31.0678328108"><ele>41.11</ele><time>2026-08-11T22:33:47Z</time></trkpt><trkpt lat="59.6486893203" lon="31.0678094253"><ele>40.59</ele><time>2026-08-11T22:34:07Z</time></trkpt><trkpt lat="59.6486119553" lon="31.0679176357"><ele>40.07</ele><time>2026-08-11T22:34:30Z</time></trkpt><trkpt lat="59.6485887375" lon="31.0681188013"><ele>40.36</ele><time>2026-08-11T22:34:53Z</time></trkpt><trkpt lat="59.6486249473" lon="31.0682151932"><ele>39.79</ele><time>2026-08-11T22:35:15Z</time></trkpt><trkpt lat="59.6486956906" lon="31.0684088152"><ele>39.12</ele><time>2026-08-11T22:35:36Z</time></trkpt><trkpt lat="59.6486323234" lon="31.0685011838"><ele>37.50</ele><time>2026-08-11T22:36:00Z</time></trkpt><trkpt lat="59.6485873125" lon="31.0685595218"><ele>39.09</ele><time>2026-08-11T22:36:28Z</time></trkpt><trkpt lat="59.6486163978" lon="31.0685204621"><ele>39.91</ele><time>2026-08-11T22:36:54Z</time></trkpt><trkpt lat="59.6486584749" lon="31.0684643034"><ele>39.99</ele><time>2026-08-11T22:37:19Z</time></trkpt><trkpt lat="59.6486863866" lon="31.0683377367"><ele>37.72</ele><time>2026-08-11T22:37:47Z</time></trkpt><trkpt lat="59.6486531943" lon="31.0682414286"><ele>35.99</ele><time>2026-08-11T22:38:16Z</time></trkpt><trkpt lat="59.6486443095" lon="31.0681145266"><ele>35.26</ele><time>2026-08-11T22:38:37Z</time></trkpt><trkpt lat="59.6486024838" lon="31.0680417717"><ele>34.99</ele><time>2026-08-11T22:38:53Z</time></trkpt><trkpt lat="59.6485300642" lon="31.0679376684"><ele>34.63</ele><time>2026-08-11T22:39:10Z</time></trkpt><trkpt lat="59.6484582312" lon="31.0679476429"><ele>34.22</ele><time>2026-08-11T22:39:25Z</time></trkpt><trkpt lat="59.6483316645" lon="31.0680023767"><ele>34.15</ele><time>2026-08-11T22:39:46Z</time></trkpt><trkpt lat="59.6482668724" lon="31.0681233276"><ele>33.60</ele><time>2026-08-11T22:40:07Z</time></trkpt><trkpt lat="59.6482377034" lon="31.0682721063"><ele>33.23</ele><time>2026-08-11T22:40:26Z</time></trkpt><trkpt lat="59.6481609251" lon="31.0683672410"><ele>33.01</ele><time>2026-08-11T22:40:48Z</time></trkpt><trkpt lat="59.6480437461" lon="31.0683888663"><ele>32.61</ele><time>2026-08-11T22:41:09Z</time></trkpt><trkpt lat="59.6479627769" lon="31.0684665665"><ele>32.68</ele><time>2026-08-11T22:41:31Z</time></trkpt><trkpt lat="59.6479507908" lon="31.0684882756"><ele>32.58</ele><time>2026-08-11T22:41:36Z</time></trkpt><trkpt lat="59.6478438377" lon="31.0684324522"><ele>32.37</ele><time>2026-08-11T22:41:56Z</time></trkpt><trkpt lat="59.6477499604" lon="31.0682848468"><ele>32.03</ele><time>2026-08-11T22:42:20Z</time></trkpt><trkpt lat="59.6476739366" lon="31.0680556856"><ele>31.68</ele><time>2026-08-11T22:42:39Z</time></trkpt><trkpt lat="59.6476534009" lon="31.0680288635"><ele>31.18</ele><time>2026-08-11T22:43:02Z</time></trkpt><trkpt lat="59.6476789657" lon="31.0679972637"><ele>29.98</ele><time>2026-08-11T22:43:31Z</time></trkpt><trkpt lat="59.6476477012" lon="31.0680101719"><ele>27.90</ele><time>2026-08-11T22:44:05Z</time></trkpt><trkpt lat="59.6476235613" lon="31.0680427775"><ele>28.98</ele><time>2026-08-11T22:44:43Z</time></trkpt><trkpt lat="59.6476264112" lon="31.0680141114"><ele>28.60</ele><time>2026-08-11T22:45:11Z</time></trkpt><trkpt lat="59.6475457773" lon="31.0679380875"><ele>28.19</ele><time>2026-08-11T22:45:29Z</time></trkpt><trkpt lat="59.6474772971" lon="31.0679271910"><ele>27.81</ele><time>2026-08-11T22:45:47Z</time></trkpt><trkpt lat="59.6473663207" lon="31.0680097528"><ele>26.91</ele><time>2026-08-11T22:46:06Z</time></trkpt><trkpt lat="59.6473035403" lon="31.0680129379"><ele>26.77</ele><time>2026-08-11T22:46:24Z</time></trkpt><trkpt lat="59.6472068969" lon="31.0680267680"><ele>27.35</ele><time>2026-08-11T22:46:47Z</time></trkpt><trkpt lat="59.6471571084" lon="31.0680514947"><ele>27.42</ele><time>2026-08-11T22:47:01Z</time></trkpt><trkpt lat="59.6470550168" lon="31.0680293664"><ele>27.11</ele><time>2026-08-11T22:47:21Z</time></trkpt><trkpt lat="59.6469722036" lon="31.0680338088"><ele>26.99</ele><time>2026-08-11T22:47:39Z</time></trkpt><trkpt lat="59.6468991973" lon="31.0680763889"><ele>26.61</ele><time>2026-08-11T22:48:01Z</time></trkpt><trkpt lat="59.6468427870" lon="31.0680397600"><ele>27.16</ele><time>2026-08-11T22:48:21Z</time></trkpt><trkpt lat="59.6468515880" lon="31.0681415163"><ele>27.64</ele><time>2026-08-11T22:48:41Z</time></trkpt><trkpt lat="59.6468598861" lon="31.0682913009"><ele>27.75</ele><time>2026-08-11T22:49:08Z</time></trkpt><trkpt lat="59.6468459722" lon="31.0683857650"><ele>27.58</ele><time>2026-08-11T22:49:22Z</time></trkpt><trkpt lat="59.6468016319" lon="31.0685032792"><ele>27.32</ele><time>2026-08-11T22:49:40Z</time></trkpt><trkpt lat="59.6467712056" lon="31.0685195401"><ele>27.09</ele><time>2026-08-11T22:49:51Z</time></trkpt><trkpt lat="59.6466838662" lon="31.0684938915"><ele>26.85</ele><time>2026-08-11T22:50:10Z</time></trkpt><trkpt lat="59.6466137934" lon="31.0684254952"><ele>27.28</ele><time>2026-08-11T22:50:28Z</time></trkpt><trkpt lat="59.6466033161" lon="31.0683964938"><ele>27.21</ele><time>2026-08-11T22:50:49Z</time></trkpt><trkpt lat="59.6465962753" lon="31.0683664028"><ele>26.67</ele><time>2026-08-11T22:51:20Z</time></trkpt><trkpt lat="59.6465883125" lon="31.0682793986"><ele>26.42</ele><time>2026-08-11T22:51:47Z</time></trkpt><trkpt lat="59.6465962753" lon="31.0682970844"><ele>25.22</ele><time>2026-08-11T22:52:13Z</time></trkpt><trkpt lat="59.6465791762" lon="31.0683509801"><ele>22.92</ele><time>2026-08-11T22:52:51Z</time></trkpt><trkpt lat="59.6465943474" lon="31.0683265887"><ele>19.45</ele><time>2026-08-11T22:53:24Z</time></trkpt><trkpt lat="59.6465828642" lon="31.0683379881"><ele>19.92</ele><time>2026-08-11T22:53:51Z</time></trkpt><trkpt lat="59.6465856303" lon="31.0682496428"><ele>20.12</ele><time>2026-08-11T22:54:17Z</time></trkpt><trkpt lat="59.6465738956" lon="31.0681863595"><ele>20.01</ele><time>2026-08-11T22:54:36Z</time></trkpt><trkpt lat="59.6465577185" lon="31.0680686776"><ele>20.22</ele><time>2026-08-11T22:54:51Z</time></trkpt><trkpt lat="59.6465627477" lon="31.0681657400"><ele>21.52</ele><time>2026-08-11T22:55:12Z</time></trkpt><trkpt lat="59.6465018112" lon="31.0684018582"><ele>21.28</ele><time>2026-08-11T22:55:34Z</time></trkpt><trkpt lat="59.6464834549" lon="31.0685080569"><ele>21.42</ele><time>2026-08-11T22:55:53Z</time></trkpt><trkpt lat="59.6464720555" lon="31.0685381480"><ele>21.60</ele><time>2026-08-11T22:55:59Z</time></trkpt><trkpt lat="59.6464765817" lon="31.0686057061"><ele>21.76</ele><time>2026-08-11T22:56:07Z</time></trkpt><trkpt lat="59.6463940199" lon="31.0687455162"><ele>21.56</ele><time>2026-08-11T22:56:28Z</time></trkpt><trkpt lat="59.6464069281" lon="31.0687478632"><ele>21.09</ele><time>2026-08-11T22:56:52Z</time></trkpt><trkpt lat="59.6464497596" lon="31.0687295906"><ele>22.03</ele><time>2026-08-11T22:57:22Z</time></trkpt><trkpt lat="59.6464320738" lon="31.0686748568"><ele>24.24</ele><time>2026-08-11T22:57:51Z</time></trkpt><trkpt lat="59.6464717202" lon="31.0686195362"><ele>25.47</ele><time>2026-08-11T22:58:07Z</time></trkpt><trkpt lat="59.6464552917" lon="31.0687860847"><ele>25.95</ele><time>2026-08-11T22:58:23Z</time></trkpt><trkpt lat="59.6464240272" lon="31.0689152498"><ele>26.10</ele><time>2026-08-11T22:58:40Z</time></trkpt><trkpt lat="59.6464024018" lon="31.0691238753"><ele>25.51</ele><time>2026-08-11T22:59:00Z</time></trkpt><trkpt lat="59.6464078501" lon="31.0692044254"><ele>25.49</ele><time>2026-08-11T22:59:08Z</time></trkpt><trkpt lat="59.6463635098" lon="31.0693482589"><ele>25.61</ele><time>2026-08-11T22:59:26Z</time></trkpt><trkpt lat="59.6463285573" lon="31.0694925953"><ele>26.18</ele><time>2026-08-11T22:59:47Z</time></trkpt><trkpt lat="59.6463236958" lon="31.0695324093"><ele>26.03</ele><time>2026-08-11T23:00:06Z</time></trkpt><trkpt lat="59.6463278029" lon="31.0696393624"><ele>25.98</ele><time>2026-08-11T23:00:28Z</time></trkpt><trkpt lat="59.6463635098" lon="31.0698269494"><ele>26.30</ele><time>2026-08-11T23:00:47Z</time></trkpt><trkpt lat="59.6463190857" lon="31.0699510854"><ele>26.28</ele><time>2026-08-11T23:01:02Z</time></trkpt><trkpt lat="59.6462556347" lon="31.0700971819"><ele>25.55</ele><time>2026-08-11T23:01:27Z</time></trkpt><trkpt lat="59.6461986378" lon="31.0700784065"><ele>25.36</ele><time>2026-08-11T23:01:53Z</time></trkpt><trkpt lat="59.6462239511" lon="31.0701917298"><ele>26.21</ele><time>2026-08-11T23:02:28Z</time></trkpt><trkpt lat="59.6462478396" lon="31.0701260995"><ele>27.43</ele><time>2026-08-11T23:03:20Z</time></trkpt><trkpt lat="59.6463027410" lon="31.0701683443"><ele>27.51</ele><time>2026-08-11T23:03:52Z</time></trkpt><trkpt lat="59.6463486739" lon="31.0701073240"><ele>27.19</ele><time>2026-08-11T23:04:07Z</time></trkpt><trkpt lat="59.6463548765" lon="31.0700765625"><ele>27.38</ele><time>2026-08-11T23:04:16Z</time></trkpt><trkpt lat="59.6464309841" lon="31.0700779036"><ele>27.84</ele><time>2026-08-11T23:04:35Z</time></trkpt><trkpt lat="59.6464722231" lon="31.0700233374"><ele>27.84</ele><time>2026-08-11T23:04:54Z</time></trkpt><trkpt lat="59.6465191618" lon="31.0699424520"><ele>27.79</ele><time>2026-08-11T23:05:13Z</time></trkpt><trkpt lat="59.6466215886" lon="31.0698869638"><ele>28.62</ele><time>2026-08-11T23:05:36Z</time></trkpt><trkpt lat="59.6467436291" lon="31.0698075034"><ele>28.60</ele><time>2026-08-11T23:05:57Z</time></trkpt><trkpt lat="59.6468233410" lon="31.0698572081"><ele>28.66</ele><time>2026-08-11T23:06:13Z</time></trkpt><trkpt lat="59.6469039749" lon="31.0697529372"><ele>29.31</ele><time>2026-08-11T23:06:32Z</time></trkpt><trkpt lat="59.6470106766" lon="31.0695675295"><ele>29.41</ele><time>2026-08-11T23:06:52Z</time></trkpt><trkpt lat="59.6470744628" lon="31.0695350077"><ele>31.01</ele><time>2026-08-11T23:07:13Z</time></trkpt><trkpt lat="59.6471039671" lon="31.0695376061"><ele>33.52</ele><time>2026-08-11T23:07:42Z</time></trkpt><trkpt lat="59.6471638978" lon="31.0696241073"><ele>33.97</ele><time>2026-08-11T23:08:01Z</time></trkpt><trkpt lat="59.6472042147" lon="31.0696148872"><ele>33.11</ele><time>2026-08-11T23:08:19Z</time></trkpt><trkpt lat="59.6472281031" lon="31.0697506741"><ele>32.83</ele><time>2026-08-11T23:08:34Z</time></trkpt><trkpt lat="59.6473030373" lon="31.0699242633"><ele>33.26</ele><time>2026-08-11T23:08:52Z</time></trkpt><trkpt lat="59.6473679133" lon="31.0700641572"><ele>33.67</ele><time>2026-08-11T23:09:10Z</time></trkpt><trkpt lat="59.6474159416" lon="31.0699901450"><ele>33.97</ele><time>2026-08-11T23:09:26Z</time></trkpt><trkpt lat="59.6474590246" lon="31.0699943360"><ele>34.69</ele><time>2026-08-11T23:09:45Z</time></trkpt><trkpt lat="59.6475502197" lon="31.0699482355"><ele>36.13</ele><time>2026-08-11T23:10:04Z</time></trkpt><trkpt lat="59.6476188675" lon="31.0699290410"><ele>36.87</ele><time>2026-08-11T23:10:20Z</time></trkpt><trkpt lat="59.6476779599" lon="31.0698419530"><ele>36.13</ele><time>2026-08-11T23:10:40Z</time></trkpt><trkpt lat="59.6477896906" lon="31.0697888117"><ele>34.67</ele><time>2026-08-11T23:11:00Z</time></trkpt><trkpt lat="59.6478472743" lon="31.0698044859"><ele>34.39</ele><time>2026-08-11T23:11:16Z</time></trkpt><trkpt lat="59.6478657983" lon="31.0698506702"><ele>34.44</ele><time>2026-08-11T23:11:22Z</time></trkpt><trkpt lat="59.6479315963" lon="31.0698993690"><ele>34.97</ele><time>2026-08-11T23:11:40Z</time></trkpt><trkpt lat="59.6480381303" lon="31.0699831042"><ele>35.37</ele><time>2026-08-11T23:12:00Z</time></trkpt><trkpt lat="59.6480915230" lon="31.0699504148"><ele>35.36</ele><time>2026-08-11T23:12:15Z</time></trkpt><trkpt lat="59.6481812093" lon="31.0698369239"><ele>36.27</ele><time>2026-08-11T23:12:38Z</time></trkpt><trkpt lat="59.6482118033" lon="31.0699081700"><ele>38.23</ele><time>2026-08-11T23:13:03Z</time></trkpt><trkpt lat="59.6482509468" lon="31.0699727107"><ele>41.94</ele><time>2026-08-11T23:13:32Z</time></trkpt><trkpt lat="59.6482427325" lon="31.0699696094"><ele>41.82</ele><time>2026-08-11T23:13:33Z</time></trkpt><trkpt lat="59.6482680459" lon="31.0699731298"><ele>41.29</ele><time>2026-08-11T23:13:59Z</time></trkpt><trkpt lat="59.6482804511" lon="31.0699496605"><ele>41.00</ele><time>2026-08-11T23:14:21Z</time></trkpt><trkpt lat="59.6483620908" lon="31.0698514245"><ele>39.83</ele><time>2026-08-11T23:14:42Z</time></trkpt><trkpt lat="59.6482967120" lon="31.0698367562"><ele>38.90</ele><time>2026-08-11T23:15:10Z</time></trkpt><trkpt lat="59.6482786909" lon="31.0698828567"><ele>32.21</ele><time>2026-08-11T23:15:44Z</time></trkpt><trkpt lat="59.6483692154" lon="31.0699372552"><ele>30.19</ele><time>2026-08-11T23:16:14Z</time></trkpt><trkpt lat="59.6482606698" lon="31.0697235167"><ele>31.21</ele><time>2026-08-11T23:16:37Z</time></trkpt><trkpt lat="59.6482591610" lon="31.0697411187"><ele>34.51</ele><time>2026-08-11T23:17:06Z</time></trkpt><trkpt lat="59.6482613403" lon="31.0698026419"><ele>31.58</ele><time>2026-08-11T23:17:34Z</time></trkpt><trkpt lat="59.6482967120" lon="31.0697851237"><ele>30.59</ele><time>2026-08-11T23:17:59Z</time></trkpt><trkpt lat="59.6482854802" lon="31.0696645081"><ele>32.27</ele><time>2026-08-11T23:18:25Z</time></trkpt><trkpt lat="59.6482852288" lon="31.0696441401"><ele>32.24</ele><time>2026-08-11T23:18:28Z</time></trkpt><trkpt lat="59.6483351011" lon="31.0695313197"><ele>32.90</ele><time>2026-08-11T23:18:44Z</time></trkpt><trkpt lat="59.6483162418" lon="31.0695785936"><ele>33.26</ele><time>2026-08-11T23:19:10Z</time></trkpt><trkpt lat="59.6483059321" lon="31.0696301423"><ele>32.17</ele><time>2026-08-11T23:19:37Z</time></trkpt><trkpt lat="59.6483328380" lon="31.0695977043"><ele>32.47</ele><time>2026-08-11T23:19:49Z</time></trkpt><trkpt lat="59.6484448202" lon="31.0695151426"><ele>32.27</ele><time>2026-08-11T23:20:02Z</time></trkpt><trkpt lat="59.6485133003" lon="31.0694226064"><ele>32.11</ele><time>2026-08-11T23:20:14Z</time></trkpt><trkpt lat="59.6486248635" lon="31.0693935212"><ele>31.92</ele><time>2026-08-11T23:20:31Z</time></trkpt><trkpt lat="59.6486604027" lon="31.0693884082"><ele>31.88</ele><time>2026-08-11T23:20:48Z</time></trkpt><trkpt lat="59.6487038210" lon="31.0694711376"><ele>30.99</ele><time>2026-08-11T23:21:12Z</time></trkpt><trkpt lat="59.6487395279" lon="31.0695382766"><ele>32.08</ele><time>2026-08-11T23:21:35Z</time></trkpt><trkpt lat="59.6487562079" lon="31.0696077626"><ele>31.57</ele><time>2026-08-11T23:22:14Z</time></trkpt><trkpt lat="59.6487489995" lon="31.0694908351"><ele>32.85</ele><time>2026-08-11T23:22:47Z</time></trkpt><trkpt lat="59.6487489156" lon="31.0694356821"><ele>33.99</ele><time>2026-08-11T23:23:20Z</time></trkpt><trkpt lat="59.6487470716" lon="31.0693732370"><ele>32.30</ele><time>2026-08-11T23:23:43Z</time></trkpt><trkpt lat="59.6487647574" lon="31.0695499275"><ele>33.35</ele><time>2026-08-11T23:24:06Z</time></trkpt><trkpt lat="59.6488007158" lon="31.0694910865"><ele>32.63</ele><time>2026-08-11T23:24:28Z</time></trkpt><trkpt lat="59.6488337405" lon="31.0694167390"><ele>32.46</ele><time>2026-08-11T23:24:57Z</time></trkpt><trkpt lat="59.6488421224" lon="31.0694324970"><ele>34.03</ele><time>2026-08-11T23:25:21Z</time></trkpt><trkpt lat="59.6488282923" lon="31.0693404637"><ele>34.62</ele><time>2026-08-11T23:25:41Z</time></trkpt><trkpt lat="59.6488870494" lon="31.0692230333"><ele>34.96</ele><time>2026-08-11T23:25:57Z</time></trkpt><trkpt lat="59.6489422861" lon="31.0691323411"><ele>33.71</ele><time>2026-08-11T23:26:05Z</time></trkpt><trkpt lat="59.6490390971" lon="31.0691253841"><ele>32.75</ele><time>2026-08-11T23:26:20Z</time></trkpt><trkpt lat="59.6491774824" lon="31.0692031682"><ele>32.49</ele><time>2026-08-11T23:26:36Z</time></trkpt><trkpt lat="59.6492891293" lon="31.0691963788"><ele>31.75</ele><time>2026-08-11T23:26:52Z</time></trkpt><trkpt lat="59.6493202262" lon="31.0692092869"><ele>31.02</ele><time>2026-08-11T23:26:57Z</time></trkpt><trkpt lat="59.6494653169" lon="31.0691878293"><ele>27.12</ele><time>2026-08-11T23:27:12Z</time></trkpt><trkpt lat="59.6494840924" lon="31.0691433214"><ele>26.55</ele><time>2026-08-11T23:27:16Z</time></trkpt><trkpt lat="59.6495566797" lon="31.0690605082"><ele>24.66</ele><time>2026-08-11T23:27:29Z</time></trkpt><trkpt lat="59.6496930532" lon="31.0690053552"><ele>23.88</ele><time>2026-08-11T23:27:44Z</time></trkpt><trkpt lat="59.6497653052" lon="31.0690257233"><ele>24.20</ele><time>2026-08-11T23:28:02Z</time></trkpt><trkpt lat="59.6498770360" lon="31.0689928662"><ele>22.85</ele><time>2026-08-11T23:28:19Z</time></trkpt><trkpt lat="59.6499503776" lon="31.0689945426"><ele>21.46</ele><time>2026-08-11T23:28:28Z</time></trkpt><trkpt lat="59.6501313429" lon="31.0690184310"><ele>20.93</ele><time>2026-08-11T23:28:42Z</time></trkpt><trkpt lat="59.6501655411" lon="31.0690551437"><ele>20.58</ele><time>2026-08-11T23:28:45Z</time></trkpt><trkpt lat="59.6502443310" lon="31.0691711493"><ele>20.54</ele><time>2026-08-11T23:28:58Z</time></trkpt><trkpt lat="59.6503058542" lon="31.0692376178"><ele>20.03</ele><time>2026-08-11T23:29:14Z</time></trkpt><trkpt lat="59.6503999829" lon="31.0692535434"><ele>20.06</ele><time>2026-08-11T23:29:30Z</time></trkpt><trkpt lat="59.6504960395" lon="31.0692739952"><ele>19.00</ele><time>2026-08-11T23:29:45Z</time></trkpt><trkpt lat="59.6505803615" lon="31.0691515356"><ele>16.38</ele><time>2026-08-11T23:29:55Z</time></trkpt><trkpt lat="59.6507096943" lon="31.0689460114"><ele>11.17</ele><time>2026-08-11T23:30:06Z</time></trkpt><trkpt lat="59.6507903282" lon="31.0688523855"><ele>8.26</ele><time>2026-08-11T23:30:16Z</time></trkpt><trkpt lat="59.6508598980" lon="31.0686311871"><ele>4.45</ele><time>2026-08-11T23:30:31Z</time></trkpt><trkpt lat="59.6509510931" lon="31.0684698354"><ele>2.71</ele><time>2026-08-11T23:30:43Z</time></trkpt><trkpt lat="59.6511372551" lon="31.0684068035"><ele>0.93</ele><time>2026-08-11T23:30:59Z</time></trkpt><trkpt lat="59.6512212418" lon="31.0683506448"><ele>-0.79</ele><time>2026-08-11T23:31:14Z</time></trkpt><trkpt lat="59.6512937453" lon="31.0682486370"><ele>-0.68</ele><time>2026-08-11T23:31:29Z</time></trkpt><trkpt lat="59.6512906440" lon="31.0681188013"><ele>-0.53</ele><time>2026-08-11T23:31:43Z</time></trkpt><trkpt lat="59.6513218246" lon="31.0680120997"><ele>-1.05</ele><time>2026-08-11T23:31:49Z</time></trkpt><trkpt lat="59.6513060667" lon="31.0677437112"><ele>-2.05</ele><time>2026-08-11T23:32:02Z</time></trkpt><trkpt lat="59.6512930747" lon="31.0674505960"><ele>-4.31</ele><time>2026-08-11T23:32:13Z</time></trkpt><trkpt lat="59.6512532607" lon="31.0670855641"><ele>-4.98</ele><time>2026-08-11T23:32:25Z</time></trkpt><trkpt lat="59.6512434538" lon="31.0669077002"><ele>-4.69</ele><time>2026-08-11T23:32:31Z</time></trkpt><trkpt lat="59.6512150392" lon="31.0667995736"><ele>-5.16</ele><time>2026-08-11T23:32:35Z</time></trkpt><trkpt lat="59.6512207389" lon="31.0667090490"><ele>-5.68</ele><time>2026-08-11T23:32:38Z</time></trkpt><trkpt lat="59.6512082499" lon="31.0666676424"><ele>-6.01</ele><time>2026-08-11T23:32:40Z</time></trkpt><trkpt lat="59.6511809248" lon="31.0662528221"><ele>-9.56</ele><time>2026-08-11T23:33:00Z</time></trkpt><trkpt lat="59.6511556953" lon="31.0658281948"><ele>-10.75</ele><time>2026-08-11T23:33:15Z</time></trkpt><trkpt lat="59.6511323936" lon="31.0656533483"><ele>-12.42</ele><time>2026-08-11T23:33:22Z</time></trkpt><trkpt lat="59.6510942560" lon="31.0654127877"><ele>-14.41</ele><time>2026-08-11T23:33:30Z</time></trkpt><trkpt lat="59.6510844491" lon="31.0648751725"><ele>-12.92</ele><time>2026-08-11T23:33:48Z</time></trkpt><trkpt lat="59.6510329004" lon="31.0644901078"><ele>-15.41</ele><time>2026-08-11T23:34:03Z</time></trkpt><trkpt lat="59.6510062460" lon="31.0641223937"><ele>-14.45</ele><time>2026-08-11T23:34:16Z</time></trkpt><trkpt lat="59.6510039829" lon="31.0640282650"><ele>-14.65</ele><time>2026-08-11T23:34:20Z</time></trkpt><trkpt lat="59.6509660967" lon="31.0637338925"><ele>-15.22</ele><time>2026-08-11T23:34:31Z</time></trkpt><trkpt lat="59.6509658452" lon="31.0636836011"><ele>-15.74</ele><time>2026-08-11T23:34:33Z</time></trkpt><trkpt lat="59.6509455610" lon="31.0631049983"><ele>-18.01</ele><time>2026-08-11T23:34:52Z</time></trkpt><trkpt lat="59.6509297192" lon="31.0629367735"><ele>-17.55</ele><time>2026-08-11T23:34:58Z</time></trkpt><trkpt lat="59.6509208344" lon="31.0628586542"><ele>-17.34</ele><time>2026-08-11T23:35:01Z</time></trkpt><trkpt lat="59.6509136260" lon="31.0625740886"><ele>-14.46</ele><time>2026-08-11T23:35:11Z</time></trkpt><trkpt lat="59.6509117819" lon="31.0624543112"><ele>-10.44</ele><time>2026-08-11T23:35:15Z</time></trkpt><trkpt lat="59.6508949343" lon="31.0621314403"><ele>-3.19</ele><time>2026-08-11T23:35:27Z</time></trkpt><trkpt lat="59.6508942638" lon="31.0620248225"><ele>-2.24</ele><time>2026-08-11T23:35:31Z</time></trkpt><trkpt lat="59.6509000473" lon="31.0619191267"><ele>-2.02</ele><time>2026-08-11T23:35:35Z</time></trkpt><trkpt lat="59.6509000473" lon="31.0616861098"><ele>-2.66</ele><time>2026-08-11T23:35:45Z</time></trkpt><trkpt lat="59.6509056631" lon="31.0616181325"><ele>-2.49</ele><time>2026-08-11T23:35:48Z</time></trkpt><trkpt lat="59.6508817747" lon="31.0613822658"><ele>-1.92</ele><time>2026-08-11T23:36:00Z</time></trkpt><trkpt lat="59.6508248616" lon="31.0609975364"><ele>-2.73</ele><time>2026-08-11T23:36:18Z</time></trkpt><trkpt lat="59.6507939324" lon="31.0605083685"><ele>-7.32</ele><time>2026-08-11T23:36:38Z</time></trkpt><trkpt lat="59.6507496759" lon="31.0600772873"><ele>-11.50</ele><time>2026-08-11T23:36:53Z</time></trkpt><trkpt lat="59.6507057548" lon="31.0595716909"><ele>-15.64</ele><time>2026-08-11T23:37:11Z</time></trkpt><trkpt lat="59.6507021505" lon="31.0592271946"><ele>-17.35</ele><time>2026-08-11T23:37:25Z</time></trkpt><trkpt lat="59.6506468300" lon="31.0587007273"><ele>-19.65</ele><time>2026-08-11T23:37:44Z</time></trkpt><trkpt lat="59.6506319102" lon="31.0581822228"><ele>-24.19</ele><time>2026-08-11T23:38:04Z</time></trkpt><trkpt lat="59.6505994722" lon="31.0578895267"><ele>-26.90</ele><time>2026-08-11T23:38:16Z</time></trkpt><trkpt lat="59.6506091952" lon="31.0576731898"><ele>-28.48</ele><time>2026-08-11T23:38:25Z</time></trkpt><trkpt lat="59.6505999751" lon="31.0572176334"><ele>-25.41</ele><time>2026-08-11T23:38:41Z</time></trkpt><trkpt lat="59.6505433973" lon="31.0567023978"><ele>-25.55</ele><time>2026-08-11T23:38:59Z</time></trkpt><trkpt lat="59.6505303215" lon="31.0566443950"><ele>-25.88</ele><time>2026-08-11T23:39:01Z</time></trkpt><trkpt lat="59.6504696365" lon="31.0561263096"><ele>-27.76</ele><time>2026-08-11T23:39:21Z</time></trkpt><trkpt lat="59.6504406352" lon="31.0558322724"><ele>-30.39</ele><time>2026-08-11T23:39:32Z</time></trkpt><trkpt lat="59.6504384559" lon="31.0555357207"><ele>-30.93</ele><time>2026-08-11T23:39:44Z</time></trkpt><trkpt lat="59.6503569838" lon="31.0551154520"><ele>-36.48</ele><time>2026-08-11T23:40:02Z</time></trkpt><trkpt lat="59.6503250487" lon="31.0549215786"><ele>-38.85</ele><time>2026-08-11T23:40:11Z</time></trkpt><trkpt lat="59.6502913535" lon="31.0546614882"><ele>-43.14</ele><time>2026-08-11T23:40:22Z</time></trkpt><trkpt lat="59.6502678003" lon="31.0543452390"><ele>-47.30</ele><time>2026-08-11T23:40:34Z</time></trkpt><trkpt lat="59.6502420679" lon="31.0541583225"><ele>-49.50</ele><time>2026-08-11T23:40:42Z</time></trkpt><trkpt lat="59.6502596699" lon="31.0537771974"><ele>-52.30</ele><time>2026-08-11T23:40:55Z</time></trkpt><trkpt lat="59.6501867473" lon="31.0534567572"><ele>-56.08</ele><time>2026-08-11T23:41:07Z</time></trkpt><trkpt lat="59.6501634456" lon="31.0530763026"><ele>-57.52</ele><time>2026-08-11T23:41:19Z</time></trkpt><trkpt lat="59.6501107235" lon="31.0526046529"><ele>-54.23</ele><time>2026-08-11T23:41:34Z</time></trkpt><trkpt lat="59.6501038503" lon="31.0524592269"><ele>-53.18</ele><time>2026-08-11T23:41:41Z</time></trkpt><trkpt lat="59.6500996593" lon="31.0524059180"><ele>-53.02</ele><time>2026-08-11T23:41:43Z</time></trkpt><trkpt lat="59.6500344481" lon="31.0521011520"><ele>-55.51</ele><time>2026-08-11T23:41:57Z</time></trkpt><trkpt lat="59.6500285808" lon="31.0519445781"><ele>-55.91</ele><time>2026-08-11T23:42:04Z</time></trkpt><trkpt lat="59.6500125714" lon="31.0514953081"><ele>-58.66</ele><time>2026-08-11T23:42:21Z</time></trkpt><trkpt lat="59.6500093024" lon="31.0512964893"><ele>-60.09</ele><time>2026-08-11T23:42:32Z</time></trkpt><trkpt lat="59.6499293391" lon="31.0509571899"><ele>-59.84</ele><time>2026-08-11T23:42:45Z</time></trkpt><trkpt lat="59.6498997509" lon="31.0506263562"><ele>-58.59</ele><time>2026-08-11T23:43:01Z</time></trkpt><trkpt lat="59.6498487890" lon="31.0502813570"><ele>-59.02</ele><time>2026-08-11T23:43:18Z</time></trkpt><trkpt lat="59.6498050354" lon="31.0498264711"><ele>-60.86</ele><time>2026-08-11T23:43:34Z</time></trkpt><trkpt lat="59.6498118248" lon="31.0493714176"><ele>-60.99</ele><time>2026-08-11T23:43:49Z</time></trkpt><trkpt lat="59.6498035267" lon="31.0492101498"><ele>-61.12</ele><time>2026-08-11T23:43:57Z</time></trkpt><trkpt lat="59.6498109028" lon="31.0489425994"><ele>-64.17</ele><time>2026-08-11T23:44:11Z</time></trkpt><trkpt lat="59.6497813985" lon="31.0488685034"><ele>-64.97</ele><time>2026-08-11T23:44:16Z</time></trkpt><trkpt lat="59.6497679874" lon="31.0486762226"><ele>-65.10</ele><time>2026-08-11T23:44:26Z</time></trkpt><trkpt lat="59.6497866791" lon="31.0484615620"><ele>-65.39</ele><time>2026-08-11T23:44:36Z</time></trkpt><trkpt lat="59.6498041134" lon="31.0483756475"><ele>-65.03</ele><time>2026-08-11T23:44:39Z</time></trkpt><trkpt lat="59.6497660596" lon="31.0479858890"><ele>-62.86</ele><time>2026-08-11T23:44:53Z</time></trkpt><trkpt lat="59.6497394890" lon="31.0477607511"><ele>-64.35</ele><time>2026-08-11T23:45:03Z</time></trkpt><trkpt lat="59.6497088950" lon="31.0474736709"><ele>-65.87</ele><time>2026-08-11T23:45:13Z</time></trkpt><trkpt lat="59.6496767085" lon="31.0471943859"><ele>-68.41</ele><time>2026-08-11T23:45:26Z</time></trkpt><trkpt lat="59.6496874373" lon="31.0468711797"><ele>-70.40</ele><time>2026-08-11T23:45:38Z</time></trkpt><trkpt lat="59.6496835817" lon="31.0465887934"><ele>-73.57</ele><time>2026-08-11T23:45:49Z</time></trkpt><trkpt lat="59.6496518143" lon="31.0462722927"><ele>-78.68</ele><time>2026-08-11T23:46:02Z</time></trkpt><trkpt lat="59.6496271715" lon="31.0461537726"><ele>-79.31</ele><time>2026-08-11T23:46:08Z</time></trkpt><trkpt lat="59.6496286802" lon="31.0460552014"><ele>-79.70</ele><time>2026-08-11T23:46:12Z</time></trkpt><trkpt lat="59.6496135090" lon="31.0457061790"><ele>-78.44</ele><time>2026-08-11T23:46:24Z</time></trkpt><trkpt lat="59.6496343799" lon="31.0452033486"><ele>-78.72</ele><time>2026-08-11T23:46:41Z</time></trkpt><trkpt lat="59.6495859325" lon="31.0448539909"><ele>-77.49</ele><time>2026-08-11T23:46:53Z</time></trkpt><trkpt lat="59.6495384071" lon="31.0445392504"><ele>-76.81</ele><time>2026-08-11T23:47:03Z</time></trkpt><trkpt lat="59.6494544204" lon="31.0439886432"><ele>-74.14</ele><time>2026-08-11T23:47:19Z</time></trkpt><trkpt lat="59.6494360641" lon="31.0436350945"><ele>-71.53</ele><time>2026-08-11T23:47:31Z</time></trkpt><trkpt lat="59.6494086552" lon="31.0433384590"><ele>-71.21</ele><time>2026-08-11T23:47:41Z</time></trkpt><trkpt lat="59.6493477188" lon="31.0428937152"><ele>-66.70</ele><time>2026-08-11T23:47:55Z</time></trkpt><trkpt lat="59.6493115928" lon="31.0426312778"><ele>-65.74</ele><time>2026-08-11T23:48:04Z</time></trkpt><trkpt lat="59.6493009478" lon="31.0425098240"><ele>-65.23</ele><time>2026-08-11T23:48:08Z</time></trkpt><trkpt lat="59.6492747962" lon="31.0423440300"><ele>-64.46</ele><time>2026-08-11T23:48:13Z</time></trkpt><trkpt lat="59.6492881235" lon="31.0422581155"><ele>-63.40</ele><time>2026-08-11T23:48:17Z</time></trkpt><trkpt lat="59.6492941584" lon="31.0422331374"><ele>-62.86</ele><time>2026-08-11T23:48:18Z</time></trkpt><trkpt lat="59.6492965054" lon="31.0419685207"><ele>-60.93</ele><time>2026-08-11T23:48:28Z</time></trkpt><trkpt lat="59.6492903028" lon="31.0419242643"><ele>-60.48</ele><time>2026-08-11T23:48:30Z</time></trkpt><trkpt lat="59.6492785681" lon="31.0417767428"><ele>-59.81</ele><time>2026-08-11T23:48:36Z</time></trkpt><trkpt lat="59.6492268518" lon="31.0414149798"><ele>-58.72</ele><time>2026-08-11T23:48:47Z</time></trkpt><trkpt lat="59.6491748001" lon="31.0410025902"><ele>-55.47</ele><time>2026-08-11T23:48:59Z</time></trkpt><trkpt lat="59.6491637360" lon="31.0407448467"><ele>-53.87</ele><time>2026-08-11T23:49:11Z</time></trkpt><trkpt lat="59.6491723694" lon="31.0406021867"><ele>-54.99</ele><time>2026-08-11T23:49:18Z</time></trkpt><trkpt lat="59.6491675917" lon="31.0403012764"><ele>-55.60</ele><time>2026-08-11T23:49:30Z</time></trkpt><trkpt lat="59.6491664182" lon="31.0402785614"><ele>-55.66</ele><time>2026-08-11T23:49:31Z</time></trkpt><trkpt lat="59.6491539292" lon="31.0399503261"><ele>-56.51</ele><time>2026-08-11T23:49:42Z</time></trkpt><trkpt lat="59.6491358243" lon="31.0397003777"><ele>-54.18</ele><time>2026-08-11T23:49:48Z</time></trkpt><trkpt lat="59.6490715351" lon="31.0394176561"><ele>-53.44</ele><time>2026-08-11T23:50:02Z</time></trkpt><trkpt lat="59.6490603033" lon="31.0390418116"><ele>-54.51</ele><time>2026-08-11T23:50:16Z</time></trkpt><trkpt lat="59.6490525082" lon="31.0387854092"><ele>-56.01</ele><time>2026-08-11T23:50:28Z</time></trkpt><trkpt lat="59.6490614768" lon="31.0386071261"><ele>-57.12</ele><time>2026-08-11T23:50:35Z</time></trkpt><trkpt lat="59.6490511671" lon="31.0384829063"><ele>-57.92</ele><time>2026-08-11T23:50:40Z</time></trkpt><trkpt lat="59.6490608063" lon="31.0384363867"><ele>-58.29</ele><time>2026-08-11T23:50:42Z</time></trkpt><trkpt lat="59.6490545198" lon="31.0381420981"><ele>-62.07</ele><time>2026-08-11T23:50:55Z</time></trkpt><trkpt lat="59.6490247641" lon="31.0377603862"><ele>-63.25</ele><time>2026-08-11T23:51:09Z</time></trkpt><trkpt lat="59.6489988640" lon="31.0374920815"><ele>-64.79</ele><time>2026-08-11T23:51:18Z</time></trkpt><trkpt lat="59.6489628218" lon="31.0372628365"><ele>-63.33</ele><time>2026-08-11T23:51:29Z</time></trkpt><trkpt lat="59.6488920785" lon="31.0368266422"><ele>-60.50</ele><time>2026-08-11T23:51:44Z</time></trkpt><trkpt lat="59.6488557011" lon="31.0366789531"><ele>-60.30</ele><time>2026-08-11T23:51:51Z</time></trkpt><trkpt lat="59.6488351654" lon="31.0365109798"><ele>-60.24</ele><time>2026-08-11T23:51:58Z</time></trkpt><trkpt lat="59.6486867219" lon="31.0361589398"><ele>-60.06</ele><time>2026-08-11T23:52:10Z</time></trkpt><trkpt lat="59.6486218460" lon="31.0358840972"><ele>-59.27</ele><time>2026-08-11T23:52:24Z</time></trkpt><trkpt lat="59.6485712193" lon="31.0356419440"><ele>-58.76</ele><time>2026-08-11T23:52:35Z</time></trkpt><trkpt lat="59.6484429762" lon="31.0352144670"><ele>-60.34</ele><time>2026-08-11T23:52:54Z</time></trkpt><trkpt lat="59.6482969634" lon="31.0349133052"><ele>-55.98</ele><time>2026-08-11T23:53:08Z</time></trkpt><trkpt lat="59.6481618471" lon="31.0345857404"><ele>-52.84</ele><time>2026-08-11T23:53:23Z</time></trkpt><trkpt lat="59.6480362024" lon="31.0342046991"><ele>-53.78</ele><time>2026-08-11T23:53:43Z</time></trkpt><trkpt lat="59.6478524711" lon="31.0338673275"><ele>-52.52</ele><time>2026-08-11T23:54:03Z</time></trkpt><trkpt lat="59.6477590129" lon="31.0336473025"><ele>-56.04</ele><time>2026-08-11T23:54:19Z</time></trkpt><trkpt lat="59.6477077994" lon="31.0335605498"><ele>-52.90</ele><time>2026-08-11T23:54:40Z</time></trkpt><trkpt lat="59.6477154270" lon="31.0335618071"><ele>-52.75</ele><time>2026-08-11T23:54:41Z</time></trkpt><trkpt lat="59.6477946360" lon="31.0336308740"><ele>-51.68</ele><time>2026-08-11T23:54:54Z</time></trkpt><trkpt lat="59.6477585100" lon="31.0336578637"><ele>-45.60</ele><time>2026-08-11T23:55:18Z</time></trkpt><trkpt lat="59.6477919538" lon="31.0336100869"><ele>-33.28</ele><time>2026-08-11T23:55:41Z</time></trkpt><trkpt lat="59.6477751900" lon="31.0335886292"><ele>-31.72</ele><time>2026-08-11T23:55:46Z</time></trkpt><trkpt lat="59.6474975813" lon="31.0331659298"><ele>-30.76</ele><time>2026-08-11T23:55:55Z</time></trkpt><trkpt lat="59.6469698567" lon="31.0324696451"><ele>-31.21</ele><time>2026-08-11T23:56:05Z</time></trkpt><trkpt lat="59.6466093510" lon="31.0320647154"><ele>-31.76</ele><time>2026-08-11T23:56:12Z</time></trkpt><trkpt lat="59.6463588160" lon="31.0318273399"><ele>-32.88</ele><time>2026-08-11T23:56:19Z</time></trkpt><trkpt lat="59.6459307522" lon="31.0316255875"><ele>-34.65</ele><time>2026-08-11T23:56:31Z</time></trkpt><trkpt lat="59.6455480345" lon="31.0316267610"><ele>-35.63</ele><time>2026-08-11T23:56:42Z</time></trkpt><trkpt lat="59.6452529076" lon="31.0315509047"><ele>-34.44</ele><time>2026-08-11T23:56:47Z</time></trkpt><trkpt lat="59.6448275261" lon="31.0313384235"><ele>-29.53</ele><time>2026-08-11T23:56:52Z</time></trkpt><trkpt lat="59.6445658430" lon="31.0312538501"><ele>-25.78</ele><time>2026-08-11T23:56:55Z</time></trkpt><trkpt lat="59.6441320796" lon="31.0312945023"><ele>-20.24</ele><time>2026-08-11T23:57:01Z</time></trkpt><trkpt lat="59.6436052769" lon="31.0313682631"><ele>-14.10</ele><time>2026-08-11T23:57:12Z</time></trkpt><trkpt lat="59.6432403289" lon="31.0316492245"><ele>-9.03</ele><time>2026-08-11T23:57:23Z</time></trkpt><trkpt lat="59.6429029573" lon="31.0319521464"><ele>-7.57</ele><time>2026-08-11T23:57:32Z</time></trkpt><trkpt lat="59.6426293720" lon="31.0321559943"><ele>-4.08</ele><time>2026-08-11T23:57:37Z</time></trkpt><trkpt lat="59.6422666032" lon="31.0324292444"><ele>-2.73</ele><time>2026-08-11T23:57:44Z</time></trkpt><trkpt lat="59.6417833026" lon="31.0326059349"><ele>-3.48</ele><time>2026-08-11T23:57:53Z</time></trkpt><trkpt lat="59.6415828075" lon="31.0326901730"><ele>-2.81</ele><time>2026-08-11T23:57:57Z</time></trkpt><trkpt lat="59.6409864351" lon="31.0330608208"><ele>1.48</ele><time>2026-08-11T23:58:09Z</time></trkpt><trkpt lat="59.6404351573" lon="31.0334623139"><ele>2.29</ele><time>2026-08-11T23:58:16Z</time></trkpt><trkpt lat="59.6398519445" lon="31.0339326225"><ele>4.42</ele><time>2026-08-11T23:58:26Z</time></trkpt><trkpt lat="59.6393306740" lon="31.0340266675"><ele>6.26</ele><time>2026-08-11T23:58:35Z</time></trkpt><trkpt lat="59.6391607728" lon="31.0341012664"><ele>6.38</ele><time>2026-08-11T23:58:37Z</time></trkpt><trkpt lat="59.6390285064" lon="31.0341690760"><ele>6.52</ele><time>2026-08-11T23:58:39Z</time></trkpt><trkpt lat="59.6384934895" lon="31.0345670488"><ele>7.82</ele><time>2026-08-11T23:58:50Z</time></trkpt><trkpt lat="59.6381583810" lon="31.0347725730"><ele>9.05</ele><time>2026-08-11T23:58:59Z</time></trkpt><trkpt lat="59.6376933530" lon="31.0349246208"><ele>12.27</ele><time>2026-08-11T23:59:11Z</time></trkpt><trkpt lat="59.6371424943" lon="31.0347006563"><ele>15.53</ele><time>2026-08-11T23:59:23Z</time></trkpt><trkpt lat="59.6369465254" lon="31.0346528795"><ele>17.68</ele><time>2026-08-11T23:59:28Z</time></trkpt><trkpt lat="59.6365593653" lon="31.0345721617"><ele>20.84</ele><time>2026-08-11T23:59:38Z</time></trkpt><trkpt lat="59.6360343229" lon="31.0344125703"><ele>24.82</ele><time>2026-08-11T23:59:51Z</time></trkpt><trkpt lat="59.6354044229" lon="31.0339202173"><ele>23.54</ele><time>2026-08-12T00:00:02Z</time></trkpt><trkpt lat="59.6350243874" lon="31.0335638188"><ele>23.87</ele><time>2026-08-12T00:00:13Z</time></trkpt><trkpt lat="59.6346192900" lon="31.0330543667"><ele>23.41</ele><time>2026-08-12T00:00:25Z</time></trkpt><trkpt lat="59.6343369875" lon="31.0327053443"><ele>27.01</ele><time>2026-08-12T00:00:32Z</time></trkpt><trkpt lat="59.6335813589" lon="31.0318779666"><ele>32.17</ele><time>2026-08-12T00:00:46Z</time></trkpt><trkpt lat="59.6334617492" lon="31.0317568481"><ele>32.96</ele><time>2026-08-12T00:00:57Z</time></trkpt><trkpt lat="59.6333023254" lon="31.0315669980"><ele>26.22</ele><time>2026-08-12T00:01:41Z</time></trkpt><trkpt lat="59.6332760062" lon="31.0315122642"><ele>26.24</ele><time>2026-08-12T00:02:05Z</time></trkpt><trkpt lat="59.6330281533" lon="31.0312904790"><ele>25.91</ele><time>2026-08-12T00:02:13Z</time></trkpt><trkpt lat="59.6323747840" lon="31.0304848105"><ele>25.07</ele><time>2026-08-12T00:02:21Z</time></trkpt><trkpt lat="59.6309925243" lon="31.0289306380"><ele>27.17</ele><time>2026-08-12T00:02:33Z</time></trkpt><trkpt lat="59.6293572988" lon="31.0270037223"><ele>31.64</ele><time>2026-08-12T00:02:48Z</time></trkpt><trkpt lat="59.6275248472" lon="31.0248696897"><ele>34.69</ele><time>2026-08-12T00:03:05Z</time></trkpt><trkpt lat="59.6269428078" lon="31.0241703875"><ele>34.33</ele><time>2026-08-12T00:03:11Z</time></trkpt><trkpt lat="59.6268027462" lon="31.0244059190"><ele>32.51</ele><time>2026-08-12T00:03:18Z</time></trkpt><trkpt lat="59.6263888478" lon="31.0259154160"><ele>32.13</ele><time>2026-08-12T00:03:28Z</time></trkpt><trkpt lat="59.6256463788" lon="31.0285165720"><ele>31.27</ele><time>2026-08-12T00:03:42Z</time></trkpt><trkpt lat="59.6249926742" lon="31.0307418834"><ele>28.35</ele><time>2026-08-12T00:03:55Z</time></trkpt><trkpt lat="59.6244056057" lon="31.0327255446"><ele>29.38</ele><time>2026-08-12T00:04:05Z</time></trkpt><trkpt lat="59.6236391645" lon="31.0353202466"><ele>29.81</ele><time>2026-08-12T00:04:19Z</time></trkpt><trkpt lat="59.6229253616" lon="31.0377128609"><ele>31.99</ele><time>2026-08-12T00:04:33Z</time></trkpt><trkpt lat="59.6224210225" lon="31.0393942706"><ele>31.80</ele><time>2026-08-12T00:04:44Z</time></trkpt><trkpt lat="59.6222146600" lon="31.0402552597"><ele>32.66</ele><time>2026-08-12T00:04:52Z</time></trkpt><trkpt lat="59.6222982276" lon="31.0406245664"><ele>30.04</ele><time>2026-08-12T00:04:58Z</time></trkpt><trkpt lat="59.6226270497" lon="31.0411152430"><ele>23.78</ele><time>2026-08-12T00:05:04Z</time></trkpt><trkpt lat="59.6228329930" lon="31.0414012335"><ele>21.58</ele><time>2026-08-12T00:05:07Z</time></trkpt><trkpt lat="59.6230045706" lon="31.0415420495"><ele>20.63</ele><time>2026-08-12T00:05:09Z</time></trkpt><trkpt lat="59.6237562597" lon="31.0419332329"><ele>17.71</ele><time>2026-08-12T00:05:17Z</time></trkpt><trkpt lat="59.6239912882" lon="31.0430043563"><ele>16.24</ele><time>2026-08-12T00:05:24Z</time></trkpt><trkpt lat="59.6240173560" lon="31.0437617451"><ele>14.69</ele><time>2026-08-12T00:05:28Z</time></trkpt><trkpt lat="59.6240180265" lon="31.0440380126"><ele>14.12</ele><time>2026-08-12T00:05:30Z</time></trkpt><trkpt lat="59.6240334492" lon="31.0447856784"><ele>11.13</ele><time>2026-08-12T00:05:35Z</time></trkpt><trkpt lat="59.6239960659" lon="31.0456443205"><ele>7.46</ele><time>2026-08-12T00:05:40Z</time></trkpt><trkpt lat="59.6243776102" lon="31.0468405019"><ele>3.63</ele><time>2026-08-12T00:05:48Z</time></trkpt><trkpt lat="59.6247007325" lon="31.0473015904"><ele>0.99</ele><time>2026-08-12T00:05:52Z</time></trkpt><trkpt lat="59.6249841247" lon="31.0475237109"><ele>-0.56</ele><time>2026-08-12T00:05:55Z</time></trkpt><trkpt lat="59.6251892298" lon="31.0486085806"><ele>-5.43</ele><time>2026-08-12T00:06:02Z</time></trkpt><trkpt lat="59.6251767408" lon="31.0488011967"><ele>-6.16</ele><time>2026-08-12T00:06:03Z</time></trkpt><trkpt lat="59.6250396967" lon="31.0501632560"><ele>-10.94</ele><time>2026-08-12T00:06:13Z</time></trkpt><trkpt lat="59.6250087675" lon="31.0504850373"><ele>6.02</ele><time>2026-08-12T00:06:23Z</time></trkpt><trkpt lat="59.6250173170" lon="31.0505418666"><ele>9.18</ele><time>2026-08-12T00:06:38Z</time></trkpt><trkpt lat="59.6249029040" lon="31.0509696789"><ele>8.14</ele><time>2026-08-12T00:06:42Z</time></trkpt><trkpt lat="59.6248132177" lon="31.0529276077"><ele>3.94</ele><time>2026-08-12T00:06:53Z</time></trkpt><trkpt lat="59.6248526126" lon="31.0549901426"><ele>-2.35</ele><time>2026-08-12T00:07:03Z</time></trkpt><trkpt lat="59.6248708852" lon="31.0554971639"><ele>-5.68</ele><time>2026-08-12T00:07:09Z</time></trkpt><trkpt lat="59.6247788519" lon="31.0558115691"><ele>3.25</ele><time>2026-08-12T00:07:19Z</time></trkpt><trkpt lat="59.6247794386" lon="31.0558914486"><ele>17.68</ele><time>2026-08-12T00:07:33Z</time></trkpt><trkpt lat="59.6248398721" lon="31.0559213720"><ele>28.80</ele><time>2026-08-12T00:07:56Z</time></trkpt><trkpt lat="59.6248418838" lon="31.0560319293"><ele>32.90</ele><time>2026-08-12T00:08:19Z</time></trkpt><trkpt lat="59.6248212643" lon="31.0560203623"><ele>34.45</ele><time>2026-08-12T00:08:39Z</time></trkpt><trkpt lat="59.6248324122" lon="31.0556406621"><ele>30.94</ele><time>2026-08-12T00:08:54Z</time></trkpt><trkpt lat="59.6248645987" lon="31.0551373288"><ele>26.09</ele><time>2026-08-12T00:09:12Z</time></trkpt><trkpt lat="59.6248650178" lon="31.0548807587"><ele>20.64</ele><time>2026-08-12T00:09:24Z</time></trkpt><trkpt lat="59.6249316540" lon="31.0546789225"><ele>19.89</ele><time>2026-08-12T00:09:41Z</time></trkpt><trkpt lat="59.6249603201" lon="31.0545513500"><ele>25.33</ele><time>2026-08-12T00:10:09Z</time></trkpt><trkpt lat="59.6250088513" lon="31.0544652678"><ele>28.26</ele><time>2026-08-12T00:10:28Z</time></trkpt><trkpt lat="59.6250381041" lon="31.0544508509"><ele>28.96</ele><time>2026-08-12T00:10:47Z</time></trkpt><trkpt lat="59.6250807680" lon="31.0544835404"><ele>29.00</ele><time>2026-08-12T00:10:56Z</time></trkpt><trkpt lat="59.6250909101" lon="31.0545230191"><ele>29.30</ele><time>2026-08-12T00:10:59Z</time></trkpt><trkpt lat="59.6251478232" lon="31.0546873044"><ele>29.29</ele><time>2026-08-12T00:11:24Z</time></trkpt><trkpt lat="59.6252158843" lon="31.0548552778"><ele>29.34</ele><time>2026-08-12T00:11:46Z</time></trkpt><trkpt lat="59.6252279542" lon="31.0549829341"><ele>29.06</ele><time>2026-08-12T00:12:01Z</time></trkpt><trkpt lat="59.6252047364" lon="31.0551673360"><ele>28.91</ele><time>2026-08-12T00:12:21Z</time></trkpt><trkpt lat="59.6251906548" lon="31.0553515702"><ele>29.81</ele><time>2026-08-12T00:12:47Z</time></trkpt><trkpt lat="59.6252006292" lon="31.0553823318"><ele>30.31</ele><time>2026-08-12T00:12:52Z</time></trkpt><trkpt lat="59.6252025571" lon="31.0554592777"><ele>32.81</ele><time>2026-08-12T00:13:13Z</time></trkpt><trkpt lat="59.6252543572" lon="31.0554386582"><ele>32.46</ele><time>2026-08-12T00:13:34Z</time></trkpt><trkpt lat="59.6253108513" lon="31.0554699227"><ele>31.64</ele><time>2026-08-12T00:13:48Z</time></trkpt><trkpt lat="59.6254228335" lon="31.0554545000"><ele>31.31</ele><time>2026-08-12T00:14:03Z</time></trkpt><trkpt lat="59.6254756395" lon="31.0554573499"><ele>31.04</ele><time>2026-08-12T00:14:22Z</time></trkpt><trkpt lat="59.6255541779" lon="31.0554664861"><ele>32.41</ele><time>2026-08-12T00:14:36Z</time></trkpt><trkpt lat="59.6256110910" lon="31.0555048753"><ele>32.93</ele><time>2026-08-12T00:14:52Z</time></trkpt><trkpt lat="59.6256797388" lon="31.0555296857"><ele>32.52</ele><time>2026-08-12T00:15:12Z</time></trkpt><trkpt lat="59.6257048007" lon="31.0555401631"><ele>32.18</ele><time>2026-08-12T00:15:21Z</time></trkpt><trkpt lat="59.6258177049" lon="31.0555327032"><ele>33.31</ele><time>2026-08-12T00:15:46Z</time></trkpt><trkpt lat="59.6259408351" lon="31.0555855930"><ele>29.83</ele><time>2026-08-12T00:16:08Z</time></trkpt><trkpt lat="59.6260099858" lon="31.0556296818"><ele>28.98</ele><time>2026-08-12T00:16:20Z</time></trkpt><trkpt lat="59.6261275839" lon="31.0556216352"><ele>31.58</ele><time>2026-08-12T00:16:36Z</time></trkpt><trkpt lat="59.6262285858" lon="31.0556324478"><ele>33.34</ele><time>2026-08-12T00:16:58Z</time></trkpt><trkpt lat="59.6262956411" lon="31.0556238983"><ele>32.21</ele><time>2026-08-12T00:17:15Z</time></trkpt><trkpt lat="59.6263755206" lon="31.0557138361"><ele>30.32</ele><time>2026-08-12T00:17:31Z</time></trkpt><trkpt lat="59.6264326852" lon="31.0556292627"><ele>29.55</ele><time>2026-08-12T00:17:48Z</time></trkpt><trkpt lat="59.6265000757" lon="31.0554914642"><ele>28.92</ele><time>2026-08-12T00:18:06Z</time></trkpt><trkpt lat="59.6265226230" lon="31.0554691684"><ele>28.74</ele><time>2026-08-12T00:18:12Z</time></trkpt><trkpt lat="59.6266268939" lon="31.0554073937"><ele>29.21</ele><time>2026-08-12T00:18:30Z</time></trkpt><trkpt lat="59.6266662888" lon="31.0553617124"><ele>32.44</ele><time>2026-08-12T00:19:01Z</time></trkpt><trkpt lat="59.6266294084" lon="31.0552431084"><ele>34.02</ele><time>2026-08-12T00:19:22Z</time></trkpt><trkpt lat="59.6266215295" lon="31.0552538373"><ele>34.73</ele><time>2026-08-12T00:19:43Z</time></trkpt><trkpt lat="59.6266021673" lon="31.0552078206"><ele>35.00</ele><time>2026-08-12T00:19:55Z</time></trkpt><trkpt lat="59.6266009938" lon="31.0551467165"><ele>35.70</ele><time>2026-08-12T00:20:12Z</time></trkpt><trkpt lat="59.6266201884" lon="31.0550440382"><ele>35.98</ele><time>2026-08-12T00:20:37Z</time></trkpt><trkpt lat="59.6266348567" lon="31.0549401026"><ele>36.03</ele><time>2026-08-12T00:20:57Z</time></trkpt><trkpt lat="59.6266317554" lon="31.0547816008"><ele>35.81</ele><time>2026-08-12T00:21:19Z</time></trkpt><trkpt lat="59.6266136505" lon="31.0546798445"><ele>35.61</ele><time>2026-08-12T00:21:38Z</time></trkpt><trkpt lat="59.6265942045" lon="31.0546660144"><ele>36.97</ele><time>2026-08-12T00:22:01Z</time></trkpt><trkpt lat="59.6265745070" lon="31.0546298884"><ele>37.24</ele><time>2026-08-12T00:22:20Z</time></trkpt><trkpt lat="59.6265639458" lon="31.0545390286"><ele>37.43</ele><time>2026-08-12T00:22:40Z</time></trkpt><trkpt lat="59.6265337709" lon="31.0545318201"><ele>38.60</ele><time>2026-08-12T00:23:05Z</time></trkpt><trkpt lat="59.6264771931" lon="31.0545378551"><ele>38.75</ele><time>2026-08-12T00:23:26Z</time></trkpt><trkpt lat="59.6264467668" lon="31.0544215143"><ele>38.90</ele><time>2026-08-12T00:23:47Z</time></trkpt><trkpt lat="59.6263789572" lon="31.0542778485"><ele>38.84</ele><time>2026-08-12T00:24:09Z</time></trkpt><trkpt lat="59.6263811365" lon="31.0541648604"><ele>38.37</ele><time>2026-08-12T00:24:32Z</time></trkpt><trkpt lat="59.6264409833" lon="31.0540674627"><ele>38.08</ele><time>2026-08-12T00:24:50Z</time></trkpt><trkpt lat="59.6264612675" lon="31.0539276525"><ele>38.40</ele><time>2026-08-12T00:25:03Z</time></trkpt><trkpt lat="59.6264705714" lon="31.0537697375"><ele>38.65</ele><time>2026-08-12T00:25:25Z</time></trkpt><trkpt lat="59.6265280712" lon="31.0537623614"><ele>40.55</ele><time>2026-08-12T00:26:00Z</time></trkpt><trkpt lat="59.6265442483" lon="31.0537179373"><ele>40.16</ele><time>2026-08-12T00:26:25Z</time></trkpt><trkpt lat="59.6266071126" lon="31.0536888521"><ele>39.90</ele><time>2026-08-12T00:26:46Z</time></trkpt><trkpt lat="59.6266561467" lon="31.0536787938"><ele>39.65</ele><time>2026-08-12T00:27:09Z</time></trkpt><trkpt lat="59.6267354395" lon="31.0538025107"><ele>39.93</ele><time>2026-08-12T00:27:30Z</time></trkpt><trkpt lat="59.6268349327" lon="31.0538299195"><ele>38.74</ele><time>2026-08-12T00:27:53Z</time></trkpt><trkpt lat="59.6268777642" lon="31.0538640339"><ele>38.62</ele><time>2026-08-12T00:28:00Z</time></trkpt><trkpt lat="59.6269736532" lon="31.0539268982"><ele>38.02</ele><time>2026-08-12T00:28:22Z</time></trkpt><trkpt lat="59.6270614956" lon="31.0538647883"><ele>37.83</ele><time>2026-08-12T00:28:48Z</time></trkpt><trkpt lat="59.6271126252" lon="31.0539388843"><ele>37.28</ele><time>2026-08-12T00:29:08Z</time></trkpt><trkpt lat="59.6271524392" lon="31.0539523792"><ele>37.24</ele><time>2026-08-12T00:29:33Z</time></trkpt><trkpt lat="59.6271595638" lon="31.0539064463"><ele>37.64</ele><time>2026-08-12T00:30:00Z</time></trkpt><trkpt lat="59.6271776687" lon="31.0539287422"><ele>37.06</ele><time>2026-08-12T00:30:32Z</time></trkpt><trkpt lat="59.6271743998" lon="31.0538724996"><ele>37.16</ele><time>2026-08-12T00:31:03Z</time></trkpt><trkpt lat="59.6271666884" lon="31.0538625252"><ele>36.92</ele><time>2026-08-12T00:31:36Z</time></trkpt><trkpt lat="59.6271702927" lon="31.0538272373"><ele>35.22</ele><time>2026-08-12T00:32:09Z</time></trkpt><trkpt lat="59.6271765791" lon="31.0538479406"><ele>35.31</ele><time>2026-08-12T00:32:40Z</time></trkpt><trkpt lat="59.6271652635" lon="31.0538807139"><ele>35.87</ele><time>2026-08-12T00:33:11Z</time></trkpt><trkpt lat="59.6271550376" lon="31.0537403170"><ele>35.93</ele><time>2026-08-12T00:33:29Z</time></trkpt><trkpt lat="59.6271991264" lon="31.0536525585"><ele>35.31</ele><time>2026-08-12T00:33:45Z</time></trkpt><trkpt lat="59.6271962766" lon="31.0535140894"><ele>35.48</ele><time>2026-08-12T00:34:05Z</time></trkpt><trkpt lat="59.6271667723" lon="31.0533624608"><ele>34.87</ele><time>2026-08-12T00:34:28Z</time></trkpt><trkpt lat="59.6271608211" lon="31.0533511452"><ele>34.82</ele><time>2026-08-12T00:34:29Z</time></trkpt><trkpt lat="59.6271255333" lon="31.0531945713"><ele>34.37</ele><time>2026-08-12T00:34:48Z</time></trkpt><trkpt lat="59.6270942688" lon="31.0529738758"><ele>33.85</ele><time>2026-08-12T00:35:08Z</time></trkpt><trkpt lat="59.6271065902" lon="31.0528566130"><ele>33.90</ele><time>2026-08-12T00:35:28Z</time></trkpt><trkpt lat="59.6270823665" lon="31.0527351592"><ele>34.08</ele><time>2026-08-12T00:35:47Z</time></trkpt><trkpt lat="59.6270796005" lon="31.0525391903"><ele>33.32</ele><time>2026-08-12T00:36:17Z</time></trkpt><trkpt lat="59.6270406246" lon="31.0524448100"><ele>33.34</ele><time>2026-08-12T00:36:35Z</time></trkpt><trkpt lat="59.6270044986" lon="31.0522714723"><ele>32.98</ele><time>2026-08-12T00:36:53Z</time></trkpt><trkpt lat="59.6270112041" lon="31.0520989727"><ele>32.59</ele><time>2026-08-12T00:37:15Z</time></trkpt><trkpt lat="59.6270811930" lon="31.0520050954"><ele>32.15</ele><time>2026-08-12T00:37:35Z</time></trkpt><trkpt lat="59.6271262038" lon="31.0519003216"><ele>31.87</ele><time>2026-08-12T00:37:51Z</time></trkpt><trkpt lat="59.6271951031" lon="31.0517015029"><ele>30.17</ele><time>2026-08-12T00:38:09Z</time></trkpt><trkpt lat="59.6273402777" lon="31.0517100524"><ele>29.43</ele><time>2026-08-12T00:38:25Z</time></trkpt><trkpt lat="59.6274981927" lon="31.0516598448"><ele>28.72</ele><time>2026-08-12T00:38:44Z</time></trkpt><trkpt lat="59.6275209915" lon="31.0516519658"><ele>28.63</ele><time>2026-08-12T00:38:47Z</time></trkpt><trkpt lat="59.6276292019" lon="31.0515799653"><ele>27.76</ele><time>2026-08-12T00:39:09Z</time></trkpt><trkpt lat="59.6277812496" lon="31.0515405703"><ele>27.53</ele><time>2026-08-12T00:39:32Z</time></trkpt><trkpt lat="59.6278656553" lon="31.0514380597"><ele>26.41</ele><time>2026-08-12T00:39:52Z</time></trkpt><trkpt lat="59.6281440184" lon="31.0514513869"><ele>23.63</ele><time>2026-08-12T00:40:26Z</time></trkpt><trkpt lat="59.6282958984" lon="31.0514303483"><ele>21.01</ele><time>2026-08-12T00:40:41Z</time></trkpt><trkpt lat="59.6284184419" lon="31.0513541568"><ele>21.24</ele><time>2026-08-12T00:40:55Z</time></trkpt><trkpt lat="59.6285271551" lon="31.0512974113"><ele>21.79</ele><time>2026-08-12T00:41:13Z</time></trkpt><trkpt lat="59.6285263170" lon="31.0513045359"><ele>21.75</ele><time>2026-08-12T00:41:14Z</time></trkpt><trkpt lat="59.6285949647" lon="31.0512880236"><ele>21.43</ele><time>2026-08-12T00:41:22Z</time></trkpt><trkpt lat="59.6287321765" lon="31.0512986686"><ele>20.89</ele><time>2026-08-12T00:41:34Z</time></trkpt><trkpt lat="59.6288110502" lon="31.0514138360"><ele>19.75</ele><time>2026-08-12T00:41:47Z</time></trkpt><trkpt lat="59.6289411373" lon="31.0515164305"><ele>20.35</ele><time>2026-08-12T00:41:58Z</time></trkpt><trkpt lat="59.6290304884" lon="31.0518454202"><ele>20.75</ele><time>2026-08-12T00:42:17Z</time></trkpt><trkpt lat="59.6290737391" lon="31.0521676205"><ele>22.14</ele><time>2026-08-12T00:42:33Z</time></trkpt><trkpt lat="59.6291189175" lon="31.0523568001"><ele>22.23</ele><time>2026-08-12T00:42:52Z</time></trkpt><trkpt lat="59.6292536985" lon="31.0526282899"><ele>19.65</ele><time>2026-08-12T00:43:12Z</time></trkpt><trkpt lat="59.6292886510" lon="31.0526738875"><ele>19.91</ele><time>2026-08-12T00:43:17Z</time></trkpt><trkpt lat="59.6293688659" lon="31.0528975166"><ele>18.26</ele><time>2026-08-12T00:43:44Z</time></trkpt><trkpt lat="59.6293636691" lon="31.0528299585"><ele>19.37</ele><time>2026-08-12T00:44:01Z</time></trkpt><trkpt lat="59.6294149663" lon="31.0527554434"><ele>19.88</ele><time>2026-08-12T00:44:22Z</time></trkpt><trkpt lat="59.6294671018" lon="31.0527814273"><ele>19.81</ele><time>2026-08-12T00:44:39Z</time></trkpt><trkpt lat="59.6295407787" lon="31.0527212452"><ele>21.13</ele><time>2026-08-12T00:45:00Z</time></trkpt><trkpt lat="59.6296006255" lon="31.0526890587"><ele>21.41</ele><time>2026-08-12T00:45:12Z</time></trkpt><trkpt lat="59.6298027132" lon="31.0526405275"><ele>22.67</ele><time>2026-08-12T00:45:42Z</time></trkpt><trkpt lat="59.6298043057" lon="31.0526433773"><ele>22.76</ele><time>2026-08-12T00:45:43Z</time></trkpt><trkpt lat="59.6298191417" lon="31.0526795872"><ele>22.79</ele><time>2026-08-12T00:45:49Z</time></trkpt><trkpt lat="59.6298602968" lon="31.0527401045"><ele>25.75</ele><time>2026-08-12T00:46:06Z</time></trkpt><trkpt lat="59.6299218200" lon="31.0527224187"><ele>26.94</ele><time>2026-08-12T00:46:28Z</time></trkpt><trkpt lat="59.6300063934" lon="31.0527310520"><ele>28.99</ele><time>2026-08-12T00:46:46Z</time></trkpt><trkpt lat="59.6301005222" lon="31.0526601411"><ele>29.45</ele><time>2026-08-12T00:47:02Z</time></trkpt><trkpt lat="59.6301543340" lon="31.0525776632"><ele>29.74</ele><time>2026-08-12T00:47:22Z</time></trkpt><trkpt lat="59.6302412543" lon="31.0524671897"><ele>28.79</ele><time>2026-08-12T00:47:43Z</time></trkpt><trkpt lat="59.6303409152" lon="31.0524025653"><ele>27.98</ele><time>2026-08-12T00:48:02Z</time></trkpt><trkpt lat="59.6303804778" lon="31.0523158126"><ele>27.48</ele><time>2026-08-12T00:48:19Z</time></trkpt><trkpt lat="59.6304323617" lon="31.0522416327"><ele>28.25</ele><time>2026-08-12T00:48:39Z</time></trkpt><trkpt lat="59.6304713376" lon="31.0522284731"><ele>28.04</ele><time>2026-08-12T00:48:48Z</time></trkpt><trkpt lat="59.6305844933" lon="31.0522485897"><ele>28.92</ele><time>2026-08-12T00:49:05Z</time></trkpt><trkpt lat="59.6306546498" lon="31.0522751603"><ele>29.25</ele><time>2026-08-12T00:49:24Z</time></trkpt><trkpt lat="59.6307672188" lon="31.0523676965"><ele>28.69</ele><time>2026-08-12T00:49:45Z</time></trkpt><trkpt lat="59.6308196057" lon="31.0525001306"><ele>30.39</ele><time>2026-08-12T00:50:02Z</time></trkpt><trkpt lat="59.6308502834" lon="31.0526659247"><ele>31.12</ele><time>2026-08-12T00:50:23Z</time></trkpt><trkpt lat="59.6308766864" lon="31.0527757276"><ele>30.86</ele><time>2026-08-12T00:50:43Z</time></trkpt><trkpt lat="59.6309446637" lon="31.0528186429"><ele>31.43</ele><time>2026-08-12T00:51:22Z</time></trkpt><trkpt lat="59.6309604216" lon="31.0528346524"><ele>33.35</ele><time>2026-08-12T00:51:58Z</time></trkpt><trkpt lat="59.6309395507" lon="31.0527608916"><ele>33.06</ele><time>2026-08-12T00:52:29Z</time></trkpt><trkpt lat="59.6309575718" lon="31.0527212452"><ele>32.65</ele><time>2026-08-12T00:52:35Z</time></trkpt><trkpt lat="59.6310161613" lon="31.0525866318"><ele>31.90</ele><time>2026-08-12T00:52:51Z</time></trkpt><trkpt lat="59.6311096195" lon="31.0525297187"><ele>31.07</ele><time>2026-08-12T00:53:06Z</time></trkpt><trkpt lat="59.6311974619" lon="31.0524686985"><ele>30.20</ele><time>2026-08-12T00:53:19Z</time></trkpt><trkpt lat="59.6312225237" lon="31.0524671897"><ele>30.03</ele><time>2026-08-12T00:53:23Z</time></trkpt><trkpt lat="59.6313027386" lon="31.0524847079"><ele>29.52</ele><time>2026-08-12T00:53:39Z</time></trkpt><trkpt lat="59.6313843783" lon="31.0524789244"><ele>29.48</ele><time>2026-08-12T00:53:57Z</time></trkpt><trkpt lat="59.6313910838" lon="31.0524782538"><ele>29.48</ele><time>2026-08-12T00:53:58Z</time></trkpt><trkpt lat="59.6315238532" lon="31.0525352508"><ele>29.11</ele><time>2026-08-12T00:54:16Z</time></trkpt><trkpt lat="59.6316046547" lon="31.0525270365"><ele>29.54</ele><time>2026-08-12T00:54:32Z</time></trkpt><trkpt lat="59.6316365898" lon="31.0525334068"><ele>31.79</ele><time>2026-08-12T00:55:07Z</time></trkpt><trkpt lat="59.6316457260" lon="31.0524949338"><ele>32.63</ele><time>2026-08-12T00:55:52Z</time></trkpt><trkpt lat="59.6316806786" lon="31.0525277071"><ele>32.86</ele><time>2026-08-12T00:56:23Z</time></trkpt><trkpt lat="59.6316510066" lon="31.0524571314"><ele>32.67</ele><time>2026-08-12T00:56:57Z</time></trkpt><trkpt lat="59.6316505875" lon="31.0523436405"><ele>32.92</ele><time>2026-08-12T00:57:49Z</time></trkpt><trkpt lat="59.6316931676" lon="31.0525733884"><ele>32.61</ele><time>2026-08-12T00:58:27Z</time></trkpt><trkpt lat="59.6316274535" lon="31.0525489971"><ele>34.39</ele><time>2026-08-12T00:59:08Z</time></trkpt><trkpt lat="59.6315896511" lon="31.0525754001"><ele>34.23</ele><time>2026-08-12T00:59:42Z</time></trkpt><trkpt lat="59.6316418704" lon="31.0525513440"><ele>33.77</ele><time>2026-08-12T01:00:30Z</time></trkpt><trkpt lat="59.6316356678" lon="31.0523720551"><ele>33.54</ele><time>2026-08-12T01:01:36Z</time></trkpt><trkpt lat="59.6316663455" lon="31.0524110310"><ele>34.68</ele><time>2026-08-12T01:02:07Z</time></trkpt><trkpt lat="59.6316223405" lon="31.0524719674"><ele>34.48</ele><time>2026-08-12T01:02:39Z</time></trkpt><trkpt lat="59.6316189878" lon="31.0525103565"><ele>34.87</ele><time>2026-08-12T01:03:06Z</time></trkpt><trkpt lat="59.6315764077" lon="31.0525829438"><ele>34.78</ele><time>2026-08-12T01:03:34Z</time></trkpt><trkpt lat="59.6315267868" lon="31.0526020546"><ele>35.85</ele><time>2026-08-12T01:04:04Z</time></trkpt><trkpt lat="59.6315681096" lon="31.0527488217"><ele>36.37</ele><time>2026-08-12T01:04:40Z</time></trkpt><trkpt lat="59.6316040680" lon="31.0527695250"><ele>37.02</ele><time>2026-08-12T01:05:10Z</time></trkpt><trkpt lat="59.6316349134" lon="31.0528262705"><ele>37.84</ele><time>2026-08-12T01:05:33Z</time></trkpt><trkpt lat="59.6316682734" lon="31.0528955050"><ele>38.00</ele><time>2026-08-12T01:05:55Z</time></trkpt><trkpt lat="59.6316681057" lon="31.0529636499"><ele>37.83</ele><time>2026-08-12T01:06:16Z</time></trkpt><trkpt lat="59.6316815168" lon="31.0530031286"><ele>38.29</ele><time>2026-08-12T01:06:44Z</time></trkpt><trkpt lat="59.6317221690" lon="31.0531058069"><ele>38.84</ele><time>2026-08-12T01:07:12Z</time></trkpt><trkpt lat="59.6317869611" lon="31.0532196332"><ele>38.62</ele><time>2026-08-12T01:07:33Z</time></trkpt><trkpt lat="59.6318570338" lon="31.0532525741"><ele>38.97</ele><time>2026-08-12T01:07:55Z</time></trkpt><trkpt lat="59.6318350732" lon="31.0532649793"><ele>38.99</ele><time>2026-08-12T01:08:15Z</time></trkpt><trkpt lat="59.6317841951" lon="31.0533585213"><ele>39.92</ele><time>2026-08-12T01:08:37Z</time></trkpt><trkpt lat="59.6317663416" lon="31.0533978324"><ele>40.24</ele><time>2026-08-12T01:08:57Z</time></trkpt><trkpt lat="59.6317319758" lon="31.0535122454"><ele>39.84</ele><time>2026-08-12T01:09:20Z</time></trkpt><trkpt lat="59.6316795889" lon="31.0535309371"><ele>38.53</ele><time>2026-08-12T01:09:59Z</time></trkpt><trkpt lat="59.6316539403" lon="31.0534931347"><ele>39.37</ele><time>2026-08-12T01:10:21Z</time></trkpt><trkpt lat="59.6316157188" lon="31.0535808094"><ele>39.51</ele><time>2026-08-12T01:10:44Z</time></trkpt><trkpt lat="59.6315810177" lon="31.0536363814"><ele>39.27</ele><time>2026-08-12T01:11:00Z</time></trkpt><trkpt lat="59.6315578837" lon="31.0537530575"><ele>39.57</ele><time>2026-08-12T01:11:25Z</time></trkpt><trkpt lat="59.6314694546" lon="31.0539103020"><ele>38.51</ele><time>2026-08-12T01:11:46Z</time></trkpt><trkpt lat="59.6314254496" lon="31.0539700650"><ele>37.09</ele><time>2026-08-12T01:12:05Z</time></trkpt><trkpt lat="59.6313800197" lon="31.0539982282"><ele>36.73</ele><time>2026-08-12T01:12:26Z</time></trkpt><trkpt lat="59.6313316561" lon="31.0539436620"><ele>36.30</ele><time>2026-08-12T01:12:53Z</time></trkpt><trkpt lat="59.6312536206" lon="31.0539736692"><ele>35.73</ele><time>2026-08-12T01:13:18Z</time></trkpt><trkpt lat="59.6312072687" lon="31.0540037602"><ele>35.43</ele><time>2026-08-12T01:13:37Z</time></trkpt><trkpt lat="59.6311209351" lon="31.0540508665"><ele>35.08</ele><time>2026-08-12T01:14:01Z</time></trkpt><trkpt lat="59.6310900059" lon="31.0539892595"><ele>34.82</ele><time>2026-08-12T01:14:22Z</time></trkpt><trkpt lat="59.6310389601" lon="31.0539921094"><ele>34.81</ele><time>2026-08-12T01:14:41Z</time></trkpt><trkpt lat="59.6310128085" lon="31.0538828932"><ele>35.38</ele><time>2026-08-12T01:15:14Z</time></trkpt><trkpt lat="59.6309115551" lon="31.0539087094"><ele>35.62</ele><time>2026-08-12T01:15:50Z</time></trkpt><trkpt lat="59.6308199409" lon="31.0538600106"><ele>35.35</ele><time>2026-08-12T01:16:09Z</time></trkpt><trkpt lat="59.6307470184" lon="31.0537929554"><ele>36.15</ele><time>2026-08-12T01:16:51Z</time></trkpt><trkpt lat="59.6306920331" lon="31.0537498724"><ele>36.13</ele><time>2026-08-12T01:17:08Z</time></trkpt><trkpt lat="59.6306603495" lon="31.0538116470"><ele>36.58</ele><time>2026-08-12T01:17:33Z</time></trkpt><trkpt lat="59.6306404844" lon="31.0536965635"><ele>36.91</ele><time>2026-08-12T01:18:18Z</time></trkpt><trkpt lat="59.6306566615" lon="31.0536017641"><ele>36.98</ele><time>2026-08-12T01:18:41Z</time></trkpt><trkpt lat="59.6306149196" lon="31.0536439251"><ele>37.23</ele><time>2026-08-12T01:19:23Z</time></trkpt><trkpt lat="59.6305732615" lon="31.0535754450"><ele>38.10</ele><time>2026-08-12T01:19:47Z</time></trkpt><trkpt lat="59.6305864211" lon="31.0535640456"><ele>37.85</ele><time>2026-08-12T01:20:08Z</time></trkpt><trkpt lat="59.6306281630" lon="31.0535721760"><ele>37.61</ele><time>2026-08-12T01:20:29Z</time></trkpt><trkpt lat="59.6306365449" lon="31.0535282549"><ele>37.37</ele><time>2026-08-12T01:20:37Z</time></trkpt><trkpt lat="59.6306630317" lon="31.0534787178"><ele>36.69</ele><time>2026-08-12T01:20:56Z</time></trkpt><trkpt lat="59.6306751855" lon="31.0534244869"><ele>35.75</ele><time>2026-08-12T01:21:27Z</time></trkpt><trkpt lat="59.6306530572" lon="31.0534653068"><ele>35.88</ele><time>2026-08-12T01:21:52Z</time></trkpt><trkpt lat="59.6306558233" lon="31.0533804819"><ele>36.69</ele><time>2026-08-12T01:22:11Z</time></trkpt><trkpt lat="59.6306469385" lon="31.0533402488"><ele>37.25</ele><time>2026-08-12T01:22:34Z</time></trkpt><trkpt lat="59.6306260675" lon="31.0532540828"><ele>37.88</ele><time>2026-08-12T01:22:57Z</time></trkpt><trkpt lat="59.6306322701" lon="31.0534106568"><ele>38.73</ele><time>2026-08-12T01:23:26Z</time></trkpt><trkpt lat="59.6306572482" lon="31.0534061305"><ele>39.03</ele><time>2026-08-12T01:23:47Z</time></trkpt><trkpt lat="59.6306465194" lon="31.0536338668"><ele>38.98</ele><time>2026-08-12T01:24:18Z</time></trkpt><trkpt lat="59.6305926237" lon="31.0537150037"><ele>38.96</ele><time>2026-08-12T01:24:48Z</time></trkpt><trkpt lat="59.6306104772" lon="31.0536971502"><ele>38.82</ele><time>2026-08-12T01:25:15Z</time></trkpt><trkpt lat="59.6306663007" lon="31.0536452662"><ele>38.90</ele><time>2026-08-12T01:25:39Z</time></trkpt><trkpt lat="59.6306631155" lon="31.0535135027"><ele>39.22</ele><time>2026-08-12T01:26:10Z</time></trkpt><trkpt lat="59.6306419093" lon="31.0533904564"><ele>38.63</ele><time>2026-08-12T01:26:48Z</time></trkpt><trkpt lat="59.6306389757" lon="31.0533069726"><ele>37.88</ele><time>2026-08-12T01:27:16Z</time></trkpt><trkpt lat="59.6305677295" lon="31.0532400012"><ele>38.14</ele><time>2026-08-12T01:27:56Z</time></trkpt><trkpt lat="59.6305745188" lon="31.0532510653"><ele>38.57</ele><time>2026-08-12T01:28:49Z</time></trkpt><trkpt lat="59.6305939648" lon="31.0532718524"><ele>39.38</ele><time>2026-08-12T01:29:11Z</time></trkpt><trkpt lat="59.6306038555" lon="31.0532513168"><ele>42.71</ele><time>2026-08-12T01:29:37Z</time></trkpt><trkpt lat="59.6306300908" lon="31.0531944875"><ele>43.35</ele><time>2026-08-12T01:30:20Z</time></trkpt><trkpt lat="59.6305797994" lon="31.0532382410"><ele>43.65</ele><time>2026-08-12T01:31:04Z</time></trkpt><trkpt lat="59.6306357067" lon="31.0532464553"><ele>43.61</ele><time>2026-08-12T01:31:59Z</time></trkpt><trkpt lat="59.6306209546" lon="31.0532580223"><ele>43.64</ele><time>2026-08-12T01:32:47Z</time></trkpt><trkpt lat="59.6305664722" lon="31.0532318708"><ele>44.95</ele><time>2026-08-12T01:34:11Z</time></trkpt><trkpt lat="59.6305975690" lon="31.0532624647"><ele>45.16</ele><time>2026-08-12T01:34:36Z</time></trkpt><trkpt lat="59.6306384727" lon="31.0532706790"><ele>45.50</ele><time>2026-08-12T01:35:35Z</time></trkpt><trkpt lat="59.6306700725" lon="31.0531628039"><ele>41.99</ele><time>2026-08-12T01:36:16Z</time></trkpt><trkpt lat="59.6306365449" lon="31.0532213096"><ele>41.90</ele><time>2026-08-12T01:37:09Z</time></trkpt><trkpt lat="59.6306472737" lon="31.0533051286"><ele>42.14</ele><time>2026-08-12T01:37:42Z</time></trkpt><trkpt lat="59.6306665521" lon="31.0534000117"><ele>42.76</ele><time>2026-08-12T01:38:25Z</time></trkpt><trkpt lat="59.6306584217" lon="31.0535620339"><ele>42.96</ele><time>2026-08-12T01:38:59Z</time></trkpt><trkpt lat="59.6306652948" lon="31.0537244752"><ele>44.48</ele><time>2026-08-12T01:39:45Z</time></trkpt><trkpt lat="59.6307473537" lon="31.0537257325"><ele>45.16</ele><time>2026-08-12T01:40:08Z</time></trkpt><trkpt lat="59.6307542268" lon="31.0538041033"><ele>45.11</ele><time>2026-08-12T01:40:26Z</time></trkpt><trkpt lat="59.6307943761" lon="31.0539054405"><ele>45.48</ele><time>2026-08-12T01:40:47Z</time></trkpt><trkpt lat="59.6308307536" lon="31.0539591685"><ele>45.91</ele><time>2026-08-12T01:41:04Z</time></trkpt><trkpt lat="59.6308663767" lon="31.0540206078"><ele>46.38</ele><time>2026-08-12T01:41:24Z</time></trkpt><trkpt lat="59.6308955457" lon="31.0540684685"><ele>46.94</ele><time>2026-08-12T01:41:50Z</time></trkpt><trkpt lat="59.6308963839" lon="31.0541544668"><ele>47.32</ele><time>2026-08-12T01:42:21Z</time></trkpt><trkpt lat="59.6309445798" lon="31.0541864857"><ele>47.52</ele><time>2026-08-12T01:42:50Z</time></trkpt><trkpt lat="59.6309451666" lon="31.0542703047"><ele>49.09</ele><time>2026-08-12T01:43:30Z</time></trkpt><trkpt lat="59.6310038399" lon="31.0542904213"><ele>50.44</ele><time>2026-08-12T01:44:06Z</time></trkpt><trkpt lat="59.6309605055" lon="31.0544045828"><ele>50.71</ele><time>2026-08-12T01:44:52Z</time></trkpt><trkpt lat="59.6310265549" lon="31.0543475859"><ele>50.72</ele><time>2026-08-12T01:45:09Z</time></trkpt><trkpt lat="59.6310418099" lon="31.0542445723"><ele>51.10</ele><time>2026-08-12T01:45:29Z</time></trkpt><trkpt lat="59.6310272254" lon="31.0540823825"><ele>50.96</ele><time>2026-08-12T01:46:00Z</time></trkpt><trkpt lat="59.6310173348" lon="31.0541201010"><ele>51.87</ele><time>2026-08-12T01:46:42Z</time></trkpt><trkpt lat="59.6309836395" lon="31.0541386250"><ele>51.70</ele><time>2026-08-12T01:47:18Z</time></trkpt><trkpt lat="59.6309569851" lon="31.0540693067"><ele>52.13</ele><time>2026-08-12T01:48:01Z</time></trkpt><trkpt lat="59.6310200170" lon="31.0541695543"><ele>54.26</ele><time>2026-08-12T01:48:58Z</time></trkpt><trkpt lat="59.6310306620" lon="31.0541291535"><ele>54.27</ele><time>2026-08-12T01:50:03Z</time></trkpt><trkpt lat="59.6309985593" lon="31.0541374516"><ele>52.71</ele><time>2026-08-12T01:50:32Z</time></trkpt><trkpt lat="59.6309626009" lon="31.0541641898"><ele>51.99</ele><time>2026-08-12T01:51:03Z</time></trkpt><trkpt lat="59.6310070250" lon="31.0541312490"><ele>52.81</ele><time>2026-08-12T01:51:36Z</time></trkpt><trkpt lat="59.6310056001" lon="31.0541206039"><ele>53.24</ele><time>2026-08-12T01:52:05Z</time></trkpt><trkpt lat="59.6309905965" lon="31.0541439056"><ele>52.48</ele><time>2026-08-12T01:52:37Z</time></trkpt><trkpt lat="59.6310146526" lon="31.0541475099"><ele>51.57</ele><time>2026-08-12T01:53:32Z</time></trkpt><trkpt lat="59.6309210267" lon="31.0541030858"><ele>50.77</ele><time>2026-08-12T01:55:00Z</time></trkpt><trkpt lat="59.6309406403" lon="31.0542247072"><ele>50.12</ele><time>2026-08-12T01:55:29Z</time></trkpt><trkpt lat="59.6309725754" lon="31.0541563947"><ele>49.72</ele><time>2026-08-12T01:55:53Z</time></trkpt><trkpt lat="59.6309474297" lon="31.0541973822"><ele>49.24</ele><time>2026-08-12T01:56:15Z</time></trkpt><trkpt lat="59.6309486870" lon="31.0541157424"><ele>49.96</ele><time>2026-08-12T01:56:39Z</time></trkpt><trkpt lat="59.6309272293" lon="31.0540351085"><ele>50.31</ele><time>2026-08-12T01:57:01Z</time></trkpt><trkpt lat="59.6308797039" lon="31.0539144929"><ele>49.86</ele><time>2026-08-12T01:57:23Z</time></trkpt><trkpt lat="59.6308250539" lon="31.0538264830"><ele>50.10</ele><time>2026-08-12T01:57:45Z</time></trkpt><trkpt lat="59.6307813842" lon="31.0537117347"><ele>50.23</ele><time>2026-08-12T01:58:10Z</time></trkpt><trkpt lat="59.6307451744" lon="31.0536830686"><ele>50.49</ele><time>2026-08-12T01:58:32Z</time></trkpt><trkpt lat="59.6307107247" lon="31.0536509659"><ele>50.10</ele><time>2026-08-12T01:58:59Z</time></trkpt><trkpt lat="59.6307176817" lon="31.0535803065"><ele>50.36</ele><time>2026-08-12T01:59:16Z</time></trkpt><trkpt lat="59.6306951344" lon="31.0535275843"><ele>50.11</ele><time>2026-08-12T01:59:33Z</time></trkpt><trkpt lat="59.6307290811" lon="31.0534804780"><ele>49.78</ele><time>2026-08-12T02:00:08Z</time></trkpt><trkpt lat="59.6307085454" lon="31.0534144286"><ele>49.29</ele><time>2026-08-12T02:00:29Z</time></trkpt><trkpt lat="59.6307226270" lon="31.0533135943"><ele>49.09</ele><time>2026-08-12T02:00:47Z</time></trkpt><trkpt lat="59.6307105571" lon="31.0532360617"><ele>50.40</ele><time>2026-08-12T02:01:10Z</time></trkpt><trkpt lat="59.6306369640" lon="31.0532140173"><ele>51.00</ele><time>2026-08-12T02:01:37Z</time></trkpt><trkpt lat="59.6305176057" lon="31.0534120817"><ele>49.56</ele><time>2026-08-12T02:02:11Z</time></trkpt><trkpt lat="59.6304673143" lon="31.0534720123"><ele>49.13</ele><time>2026-08-12T02:02:50Z</time></trkpt><trkpt lat="59.6304219682" lon="31.0534908716"><ele>49.13</ele><time>2026-08-12T02:03:08Z</time></trkpt><trkpt lat="59.6303791367" lon="31.0534757841"><ele>48.87</ele><time>2026-08-12T02:03:37Z</time></trkpt><trkpt lat="59.6303023584" lon="31.0535063781"><ele>49.02</ele><time>2026-08-12T02:03:59Z</time></trkpt><trkpt lat="59.6302699205" lon="31.0534334555"><ele>49.54</ele><time>2026-08-12T02:04:15Z</time></trkpt><trkpt lat="59.6302044578" lon="31.0533380695"><ele>50.45</ele><time>2026-08-12T02:04:40Z</time></trkpt><trkpt lat="59.6301826648" lon="31.0533287656"><ele>50.88</ele><time>2026-08-12T02:04:58Z</time></trkpt><trkpt lat="59.6300639771" lon="31.0533291008"><ele>50.99</ele><time>2026-08-12T02:05:26Z</time></trkpt><trkpt lat="59.6300292760" lon="31.0532987583"><ele>50.99</ele><time>2026-08-12T02:05:50Z</time></trkpt><trkpt lat="59.6299804933" lon="31.0532581899"><ele>51.04</ele><time>2026-08-12T02:06:15Z</time></trkpt><trkpt lat="59.6299009491" lon="31.0532307811"><ele>50.04</ele><time>2026-08-12T02:06:42Z</time></trkpt><trkpt lat="59.6298508253" lon="31.0532557592"><ele>49.54</ele><time>2026-08-12T02:07:07Z</time></trkpt><trkpt lat="59.6298142802" lon="31.0533028655"><ele>48.83</ele><time>2026-08-12T02:07:24Z</time></trkpt><trkpt lat="59.6297750529" lon="31.0533771291"><ele>48.56</ele><time>2026-08-12T02:07:49Z</time></trkpt><trkpt lat="59.6297613904" lon="31.0534324497"><ele>48.25</ele><time>2026-08-12T02:08:13Z</time></trkpt><trkpt lat="59.6297355741" lon="31.0534129199"><ele>47.98</ele><time>2026-08-12T02:08:37Z</time></trkpt><trkpt lat="59.6296899766" lon="31.0533567611"><ele>47.74</ele><time>2026-08-12T02:09:01Z</time></trkpt><trkpt lat="59.6296437923" lon="31.0533040389"><ele>46.97</ele><time>2026-08-12T02:09:23Z</time></trkpt><trkpt lat="59.6296429541" lon="31.0533003509"><ele>46.27</ele><time>2026-08-12T02:09:52Z</time></trkpt><trkpt lat="59.6296256036" lon="31.0532342177"><ele>45.66</ele><time>2026-08-12T02:10:16Z</time></trkpt><trkpt lat="59.6296027210" lon="31.0531497281"><ele>45.29</ele><time>2026-08-12T02:10:43Z</time></trkpt><trkpt lat="59.6295831073" lon="31.0531219002"><ele>44.90</ele><time>2026-08-12T02:11:13Z</time></trkpt><trkpt lat="59.6295831911" lon="31.0530957486"><ele>44.51</ele><time>2026-08-12T02:11:44Z</time></trkpt><trkpt lat="59.6295585483" lon="31.0530818347"><ele>43.57</ele><time>2026-08-12T02:12:09Z</time></trkpt><trkpt lat="59.6295518428" lon="31.0530255083"><ele>43.02</ele><time>2026-08-12T02:12:37Z</time></trkpt><trkpt lat="59.6295127831" lon="31.0530223232"><ele>42.49</ele><time>2026-08-12T02:13:01Z</time></trkpt><trkpt lat="59.6294795070" lon="31.0529722832"><ele>42.32</ele><time>2026-08-12T02:13:27Z</time></trkpt><trkpt lat="59.6295069158" lon="31.0528931580"><ele>42.54</ele><time>2026-08-12T02:13:54Z</time></trkpt><trkpt lat="59.6295323968" lon="31.0528542660"><ele>44.26</ele><time>2026-08-12T02:14:29Z</time></trkpt><trkpt lat="59.6295111068" lon="31.0528062377"><ele>44.50</ele><time>2026-08-12T02:14:49Z</time></trkpt><trkpt lat="59.6294744778" lon="31.0527502466"><ele>44.02</ele><time>2026-08-12T02:15:14Z</time></trkpt><trkpt lat="59.6294183191" lon="31.0526677687"><ele>43.76</ele><time>2026-08-12T02:15:37Z</time></trkpt><trkpt lat="59.6293830313" lon="31.0526365880"><ele>43.63</ele><time>2026-08-12T02:15:55Z</time></trkpt><trkpt lat="59.6292901598" lon="31.0525849555"><ele>43.70</ele><time>2026-08-12T02:16:15Z</time></trkpt><trkpt lat="59.6292350907" lon="31.0525533557"><ele>43.99</ele><time>2026-08-12T02:16:40Z</time></trkpt><trkpt lat="59.6291824523" lon="31.0525301378"><ele>44.60</ele><time>2026-08-12T02:17:04Z</time></trkpt><trkpt lat="59.6291659400" lon="31.0524998792"><ele>45.34</ele><time>2026-08-12T02:17:35Z</time></trkpt><trkpt lat="59.6291825362" lon="31.0524666868"><ele>44.97</ele><time>2026-08-12T02:18:00Z</time></trkpt><trkpt lat="59.6291717235" lon="31.0524567124"><ele>44.91</ele><time>2026-08-12T02:18:30Z</time></trkpt><trkpt lat="59.6292189974" lon="31.0524742305"><ele>43.63</ele><time>2026-08-12T02:18:59Z</time></trkpt><trkpt lat="59.6291800216" lon="31.0524386913"><ele>45.53</ele><time>2026-08-12T02:19:30Z</time></trkpt><trkpt lat="59.6291697957" lon="31.0524243582"><ele>45.30</ele><time>2026-08-12T02:20:01Z</time></trkpt><trkpt lat="59.6291936841" lon="31.0524474923"><ele>44.96</ele><time>2026-08-12T02:20:50Z</time></trkpt><trkpt lat="59.6291407943" lon="31.0524759069"><ele>45.36</ele><time>2026-08-12T02:21:29Z</time></trkpt><trkpt lat="59.6290353499" lon="31.0525089316"><ele>39.19</ele><time>2026-08-12T02:22:56Z</time></trkpt><trkpt lat="59.6292155609" lon="31.0524399485"><ele>45.97</ele><time>2026-08-12T02:23:24Z</time></trkpt><trkpt lat="59.6292034909" lon="31.0524324887"><ele>47.35</ele><time>2026-08-12T02:23:53Z</time></trkpt><trkpt lat="59.6292071790" lon="31.0525086801"><ele>45.88</ele><time>2026-08-12T02:24:16Z</time></trkpt><trkpt lat="59.6291881520" lon="31.0524887312"><ele>45.26</ele><time>2026-08-12T02:24:45Z</time></trkpt><trkpt lat="59.6291744057" lon="31.0524359252"><ele>47.34</ele><time>2026-08-12T02:25:12Z</time></trkpt><trkpt lat="59.6291880682" lon="31.0524407867"><ele>47.74</ele><time>2026-08-12T02:25:38Z</time></trkpt><trkpt lat="59.6291548759" lon="31.0524427146"><ele>45.20</ele><time>2026-08-12T02:26:09Z</time></trkpt><trkpt lat="59.6290324163" lon="31.0524065886"><ele>45.26</ele><time>2026-08-12T02:26:26Z</time></trkpt><trkpt lat="59.6289141476" lon="31.0523618292"><ele>44.73</ele><time>2026-08-12T02:26:42Z</time></trkpt><trkpt lat="59.6287594177" lon="31.0523135494"><ele>44.37</ele><time>2026-08-12T02:27:00Z</time></trkpt><trkpt lat="59.6286547277" lon="31.0522355977"><ele>44.06</ele><time>2026-08-12T02:27:18Z</time></trkpt><trkpt lat="59.6285112295" lon="31.0521762539"><ele>43.31</ele><time>2026-08-12T02:27:37Z</time></trkpt><trkpt lat="59.6283861715" lon="31.0522338375"><ele>41.94</ele><time>2026-08-12T02:27:59Z</time></trkpt><trkpt lat="59.6282608621" lon="31.0522739869"><ele>40.68</ele><time>2026-08-12T02:28:19Z</time></trkpt><trkpt lat="59.6281747799" lon="31.0523745697"><ele>40.61</ele><time>2026-08-12T02:28:38Z</time></trkpt><trkpt lat="59.6280493028" lon="31.0524276271"><ele>40.64</ele><time>2026-08-12T02:28:58Z</time></trkpt><trkpt lat="59.6279475465" lon="31.0526342411"><ele>40.37</ele><time>2026-08-12T02:29:18Z</time></trkpt><trkpt lat="59.6278934833" lon="31.0526382644"><ele>41.04</ele><time>2026-08-12T02:29:39Z</time></trkpt><trkpt lat="59.6278654877" lon="31.0528485663"><ele>41.04</ele><time>2026-08-12T02:30:00Z</time></trkpt><trkpt lat="59.6278352290" lon="31.0530076548"><ele>40.93</ele><time>2026-08-12T02:30:16Z</time></trkpt><trkpt lat="59.6277338918" lon="31.0531270131"><ele>40.68</ele><time>2026-08-12T02:30:36Z</time></trkpt><trkpt lat="59.6276149526" lon="31.0532933939"><ele>40.77</ele><time>2026-08-12T02:30:55Z</time></trkpt><trkpt lat="59.6275588777" lon="31.0534182843"><ele>40.96</ele><time>2026-08-12T02:31:14Z</time></trkpt><trkpt lat="59.6275239252" lon="31.0534927994"><ele>40.68</ele><time>2026-08-12T02:31:34Z</time></trkpt><trkpt lat="59.6274608932" lon="31.0535765346"><ele>40.59</ele><time>2026-08-12T02:31:53Z</time></trkpt><trkpt lat="59.6274291258" lon="31.0536462720"><ele>40.05</ele><time>2026-08-12T02:32:12Z</time></trkpt><trkpt lat="59.6273972746" lon="31.0536713339"><ele>40.11</ele><time>2026-08-12T02:32:35Z</time></trkpt><trkpt lat="59.6273297165" lon="31.0537031852"><ele>40.63</ele><time>2026-08-12T02:33:04Z</time></trkpt><trkpt lat="59.6272887290" lon="31.0536367167"><ele>40.99</ele><time>2026-08-12T02:33:24Z</time></trkpt><trkpt lat="59.6272316482" lon="31.0536859185"><ele>41.50</ele><time>2026-08-12T02:33:41Z</time></trkpt><trkpt lat="59.6271583904" lon="31.0537690669"><ele>41.45</ele><time>2026-08-12T02:34:01Z</time></trkpt><trkpt lat="59.6270448994" lon="31.0539974738"><ele>41.11</ele><time>2026-08-12T02:34:20Z</time></trkpt><trkpt lat="59.6270272974" lon="31.0540325940"><ele>41.10</ele><time>2026-08-12T02:34:23Z</time></trkpt><trkpt lat="59.6269723959" lon="31.0541822948"><ele>40.99</ele><time>2026-08-12T02:34:39Z</time></trkpt><trkpt lat="59.6269546263" lon="31.0542215221"><ele>41.08</ele><time>2026-08-12T02:35:07Z</time></trkpt><trkpt lat="59.6269546263" lon="31.0542800277"><ele>40.45</ele><time>2026-08-12T02:35:31Z</time></trkpt><trkpt lat="59.6269435622" lon="31.0543362703"><ele>40.36</ele><time>2026-08-12T02:35:52Z</time></trkpt><trkpt lat="59.6269118786" lon="31.0544361826"><ele>41.20</ele><time>2026-08-12T02:36:15Z</time></trkpt><trkpt lat="59.6269406285" lon="31.0544682015"><ele>40.43</ele><time>2026-08-12T02:36:41Z</time></trkpt><trkpt lat="59.6268973779" lon="31.0545168165"><ele>39.82</ele><time>2026-08-12T02:37:01Z</time></trkpt><trkpt lat="59.6268734057" lon="31.0546309780"><ele>39.58</ele><time>2026-08-12T02:37:17Z</time></trkpt><trkpt lat="59.6268417221" lon="31.0546726361"><ele>39.56</ele><time>2026-08-12T02:37:46Z</time></trkpt><trkpt lat="59.6268440690" lon="31.0547301359"><ele>40.33</ele><time>2026-08-12T02:38:05Z</time></trkpt><trkpt lat="59.6268719807" lon="31.0547852889"><ele>40.19</ele><time>2026-08-12T02:38:21Z</time></trkpt><trkpt lat="59.6268690471" lon="31.0547849536"><ele>39.51</ele><time>2026-08-12T02:38:47Z</time></trkpt><trkpt lat="59.6268547978" lon="31.0548361670"><ele>39.22</ele><time>2026-08-12T02:39:14Z</time></trkpt><trkpt lat="59.6268313285" lon="31.0548788309"><ele>39.66</ele><time>2026-08-12T02:39:35Z</time></trkpt><trkpt lat="59.6268229466" lon="31.0549146216"><ele>40.25</ele><time>2026-08-12T02:39:51Z</time></trkpt><trkpt lat="59.6267668717" lon="31.0550227482"><ele>40.39</ele><time>2026-08-12T02:40:10Z</time></trkpt><trkpt lat="59.6266783588" lon="31.0550820921"><ele>40.14</ele><time>2026-08-12T02:40:34Z</time></trkpt><trkpt lat="59.6265890077" lon="31.0552034620"><ele>40.51</ele><time>2026-08-12T02:40:55Z</time></trkpt><trkpt lat="59.6264853235" lon="31.0553802364"><ele>40.71</ele><time>2026-08-12T02:41:13Z</time></trkpt><trkpt lat="59.6263488661" lon="31.0553399194"><ele>40.58</ele><time>2026-08-12T02:41:33Z</time></trkpt><trkpt lat="59.6262422483" lon="31.0553422663"><ele>41.00</ele><time>2026-08-12T02:41:54Z</time></trkpt><trkpt lat="59.6262370516" lon="31.0552375764"><ele>41.18</ele><time>2026-08-12T02:42:06Z</time></trkpt><trkpt lat="59.6261632070" lon="31.0551846027"><ele>42.79</ele><time>2026-08-12T02:42:28Z</time></trkpt><trkpt lat="59.6260661446" lon="31.0552137718"><ele>43.98</ele><time>2026-08-12T02:42:49Z</time></trkpt><trkpt lat="59.6259082295" lon="31.0552516580"><ele>43.54</ele><time>2026-08-12T02:43:15Z</time></trkpt><trkpt lat="59.6257903799" lon="31.0552493948"><ele>43.36</ele><time>2026-08-12T02:43:35Z</time></trkpt><trkpt lat="59.6256980952" lon="31.0552792344"><ele>43.60</ele><time>2026-08-12T02:43:51Z</time></trkpt><trkpt lat="59.6255821735" lon="31.0552569386"><ele>43.18</ele><time>2026-08-12T02:44:14Z</time></trkpt><trkpt lat="59.6254950855" lon="31.0552369058"><ele>43.46</ele><time>2026-08-12T02:44:26Z</time></trkpt><trkpt lat="59.6253772359" lon="31.0552545078"><ele>44.12</ele><time>2026-08-12T02:44:49Z</time></trkpt><trkpt lat="59.6253161319" lon="31.0553572699"><ele>44.61</ele><time>2026-08-12T02:45:08Z</time></trkpt><trkpt lat="59.6252985299" lon="31.0553731117"><ele>44.78</ele><time>2026-08-12T02:45:13Z</time></trkpt><trkpt lat="59.6252365876" lon="31.0554244928"><ele>45.25</ele><time>2026-08-12T02:45:31Z</time></trkpt><trkpt lat="59.6251520980" lon="31.0554102436"><ele>44.49</ele><time>2026-08-12T02:45:51Z</time></trkpt><trkpt lat="59.6249792632" lon="31.0554399155"><ele>42.83</ele><time>2026-08-12T02:46:12Z</time></trkpt><trkpt lat="59.6248780098" lon="31.0554331262"><ele>41.65</ele><time>2026-08-12T02:46:28Z</time></trkpt><trkpt lat="59.6248715557" lon="31.0554261692"><ele>41.61</ele><time>2026-08-12T02:46:30Z</time></trkpt><trkpt lat="59.6247923467" lon="31.0554011911"><ele>41.56</ele><time>2026-08-12T02:46:42Z</time></trkpt><trkpt lat="59.6247615013" lon="31.0553323757"><ele>44.03</ele><time>2026-08-12T02:47:05Z</time></trkpt><trkpt lat="59.6247467492" lon="31.0551365744"><ele>45.53</ele><time>2026-08-12T02:47:20Z</time></trkpt><trkpt lat="59.6247956995" lon="31.0546531901"><ele>45.92</ele><time>2026-08-12T02:47:45Z</time></trkpt><trkpt lat="59.6248022374" lon="31.0543713905"><ele>45.43</ele><time>2026-08-12T02:47:59Z</time></trkpt><trkpt lat="59.6248012315" lon="31.0538421571"><ele>40.42</ele><time>2026-08-12T02:48:21Z</time></trkpt><trkpt lat="59.6247704700" lon="31.0533474572"><ele>37.58</ele><time>2026-08-12T02:48:42Z</time></trkpt><trkpt lat="59.6247778460" lon="31.0530527495"><ele>36.15</ele><time>2026-08-12T02:48:55Z</time></trkpt><trkpt lat="59.6247946937" lon="31.0525643360"><ele>34.80</ele><time>2026-08-12T02:49:14Z</time></trkpt><trkpt lat="59.6247890778" lon="31.0524960235"><ele>35.06</ele><time>2026-08-12T02:49:16Z</time></trkpt><trkpt lat="59.6247876529" lon="31.0523578059"><ele>35.25</ele><time>2026-08-12T02:49:20Z</time></trkpt><trkpt lat="59.6247920953" lon="31.0520675406"><ele>33.51</ele><time>2026-08-12T02:49:32Z</time></trkpt><trkpt lat="59.6248003095" lon="31.0520192608"><ele>32.98</ele><time>2026-08-12T02:49:34Z</time></trkpt><trkpt lat="59.6248422191" lon="31.0516870860"><ele>28.55</ele><time>2026-08-12T02:49:48Z</time></trkpt><trkpt lat="59.6248902474" lon="31.0513614491"><ele>23.65</ele><time>2026-08-12T02:50:01Z</time></trkpt><trkpt lat="59.6249681991" lon="31.0508861113"><ele>18.79</ele><time>2026-08-12T02:50:19Z</time></trkpt><trkpt lat="59.6250386070" lon="31.0504732188"><ele>16.92</ele><time>2026-08-12T02:50:37Z</time></trkpt><trkpt lat="59.6251118649" lon="31.0500903334"><ele>15.12</ele><time>2026-08-12T02:50:52Z</time></trkpt><trkpt lat="59.6251212526" lon="31.0499942768"><ele>13.71</ele><time>2026-08-12T02:50:56Z</time></trkpt><trkpt lat="59.6251988690" lon="31.0496943723"><ele>11.14</ele><time>2026-08-12T02:51:09Z</time></trkpt><trkpt lat="59.6251967736" lon="31.0494624451"><ele>10.38</ele><time>2026-08-12T02:51:18Z</time></trkpt><trkpt lat="59.6251946781" lon="31.0491372272"><ele>8.42</ele><time>2026-08-12T02:51:31Z</time></trkpt><trkpt lat="59.6252466459" lon="31.0488229059"><ele>8.82</ele><time>2026-08-12T02:51:46Z</time></trkpt><trkpt lat="59.6252528485" lon="31.0485665873"><ele>11.11</ele><time>2026-08-12T02:52:04Z</time></trkpt><trkpt lat="59.6252059098" lon="31.0484323930"><ele>22.41</ele><time>2026-08-12T02:52:22Z</time></trkpt><trkpt lat="59.6252114419" lon="31.0484271962"><ele>29.31</ele><time>2026-08-12T02:52:44Z</time></trkpt><trkpt lat="59.6252199914" lon="31.0482891463"><ele>32.00</ele><time>2026-08-12T02:53:03Z</time></trkpt><trkpt lat="59.6251271199" lon="31.0479348432"><ele>32.18</ele><time>2026-08-12T02:53:18Z</time></trkpt><trkpt lat="59.6249710489" lon="31.0477703065"><ele>29.07</ele><time>2026-08-12T02:53:33Z</time></trkpt><trkpt lat="59.6247904189" lon="31.0476761777"><ele>21.20</ele><time>2026-08-12T02:53:51Z</time></trkpt><trkpt lat="59.6246043406" lon="31.0475299135"><ele>17.96</ele><time>2026-08-12T02:54:06Z</time></trkpt><trkpt lat="59.6244611777" lon="31.0472393967"><ele>14.85</ele><time>2026-08-12T02:54:29Z</time></trkpt><trkpt lat="59.6242481098" lon="31.0468807351"><ele>16.07</ele><time>2026-08-12T02:54:51Z</time></trkpt><trkpt lat="59.6241352055" lon="31.0465589538"><ele>21.14</ele><time>2026-08-12T02:55:10Z</time></trkpt><trkpt lat="59.6240599360" lon="31.0461194906"><ele>23.25</ele><time>2026-08-12T02:55:32Z</time></trkpt><trkpt lat="59.6240426693" lon="31.0457706358"><ele>22.95</ele><time>2026-08-12T02:55:48Z</time></trkpt><trkpt lat="59.6240248997" lon="31.0454531293"><ele>19.37</ele><time>2026-08-12T02:56:03Z</time></trkpt><trkpt lat="59.6240027715" lon="31.0451025981"><ele>16.80</ele><time>2026-08-12T02:56:17Z</time></trkpt><trkpt lat="59.6240041964" lon="31.0447930545"><ele>12.77</ele><time>2026-08-12T02:56:30Z</time></trkpt><trkpt lat="59.6240146738" lon="31.0443038866"><ele>11.51</ele><time>2026-08-12T02:56:50Z</time></trkpt><trkpt lat="59.6239865944" lon="31.0437977035"><ele>8.35</ele><time>2026-08-12T02:57:14Z</time></trkpt><trkpt lat="59.6239944734" lon="31.0433835536"><ele>6.81</ele><time>2026-08-12T02:57:32Z</time></trkpt><trkpt lat="59.6239772905" lon="31.0428065434"><ele>3.17</ele><time>2026-08-12T02:57:57Z</time></trkpt><trkpt lat="59.6239871811" lon="31.0423571896"><ele>0.92</ele><time>2026-08-12T02:58:18Z</time></trkpt><trkpt lat="59.6237622947" lon="31.0420373362"><ele>1.80</ele><time>2026-08-12T02:58:40Z</time></trkpt><trkpt lat="59.6236833371" lon="31.0419983603"><ele>3.29</ele><time>2026-08-12T02:58:51Z</time></trkpt><trkpt lat="59.6236735303" lon="31.0419960972"><ele>3.60</ele><time>2026-08-12T02:58:53Z</time></trkpt><trkpt lat="59.6234664135" lon="31.0419011302"><ele>11.95</ele><time>2026-08-12T02:59:09Z</time></trkpt><trkpt lat="59.6232158784" lon="31.0417957697"><ele>24.42</ele><time>2026-08-12T02:59:27Z</time></trkpt><trkpt lat="59.6230450552" lon="31.0416950192"><ele>30.54</ele><time>2026-08-12T02:59:41Z</time></trkpt><trkpt lat="59.6229240205" lon="31.0416085180"><ele>33.77</ele><time>2026-08-12T02:59:56Z</time></trkpt><trkpt lat="59.6227564663" lon="31.0414644331"><ele>33.10</ele><time>2026-08-12T03:00:17Z</time></trkpt><trkpt lat="59.6226314083" lon="31.0412733257"><ele>31.93</ele><time>2026-08-12T03:00:37Z</time></trkpt><trkpt lat="59.6225993056" lon="31.0411674622"><ele>35.96</ele><time>2026-08-12T03:00:59Z</time></trkpt><trkpt lat="59.6226038318" lon="31.0412005708"><ele>36.76</ele><time>2026-08-12T03:01:19Z</time></trkpt><trkpt lat="59.6225890797" lon="31.0411765147"><ele>39.20</ele><time>2026-08-12T03:01:40Z</time></trkpt><trkpt lat="59.6225159056" lon="31.0410211142"><ele>40.40</ele><time>2026-08-12T03:02:02Z</time></trkpt><trkpt lat="59.6224419773" lon="31.0408333596"><ele>40.49</ele><time>2026-08-12T03:02:19Z</time></trkpt><trkpt lat="59.6224209387" lon="31.0407741833"><ele>40.67</ele><time>2026-08-12T03:02:22Z</time></trkpt><trkpt lat="59.6222781949" lon="31.0405572597"><ele>40.50</ele><time>2026-08-12T03:02:37Z</time></trkpt><trkpt lat="59.6222340222" lon="31.0405206308"><ele>40.40</ele><time>2026-08-12T03:02:41Z</time></trkpt><trkpt lat="59.6222139057" lon="31.0404909588"><ele>40.19</ele><time>2026-08-12T03:02:43Z</time></trkpt><trkpt lat="59.6221657097" lon="31.0404307768"><ele>39.45</ele><time>2026-08-12T03:02:56Z</time></trkpt><trkpt lat="59.6220946312" lon="31.0405095667"><ele>39.07</ele><time>2026-08-12T03:03:14Z</time></trkpt><trkpt lat="59.6221712418" lon="31.0403129272"><ele>38.07</ele><time>2026-08-12T03:03:32Z</time></trkpt><trkpt lat="59.6221807972" lon="31.0402966663"><ele>38.21</ele><time>2026-08-12T03:03:33Z</time></trkpt><trkpt lat="59.6222360339" lon="31.0402028728"><ele>38.90</ele><time>2026-08-12T03:03:38Z</time></trkpt><trkpt lat="59.6222480200" lon="31.0401445348"><ele>38.88</ele><time>2026-08-12T03:03:41Z</time></trkpt><trkpt lat="59.6222870797" lon="31.0399822611"><ele>37.89</ele><time>2026-08-12T03:03:47Z</time></trkpt><trkpt lat="59.6223034244" lon="31.0399520863"><ele>37.45</ele><time>2026-08-12T03:03:49Z</time></trkpt><trkpt lat="59.6223491058" lon="31.0397510044"><ele>35.96</ele><time>2026-08-12T03:03:57Z</time></trkpt><trkpt lat="59.6224289853" lon="31.0393348429"><ele>33.93</ele><time>2026-08-12T03:04:13Z</time></trkpt><trkpt lat="59.6225233655" lon="31.0390060209"><ele>32.80</ele><time>2026-08-12T03:04:28Z</time></trkpt><trkpt lat="59.6226462442" lon="31.0385836568"><ele>33.83</ele><time>2026-08-12T03:04:47Z</time></trkpt><trkpt lat="59.6227189992" lon="31.0383192915"><ele>32.97</ele><time>2026-08-12T03:04:59Z</time></trkpt><trkpt lat="59.6228048299" lon="31.0380566027"><ele>32.85</ele><time>2026-08-12T03:05:11Z</time></trkpt><trkpt lat="59.6229132079" lon="31.0376613960"><ele>30.80</ele><time>2026-08-12T03:05:30Z</time></trkpt><trkpt lat="59.6230071690" lon="31.0373573005"><ele>30.83</ele><time>2026-08-12T03:05:45Z</time></trkpt><trkpt lat="59.6230921615" lon="31.0370215215"><ele>29.17</ele><time>2026-08-12T03:06:01Z</time></trkpt><trkpt lat="59.6231882181" lon="31.0366267338"><ele>25.21</ele><time>2026-08-12T03:06:20Z</time></trkpt><trkpt lat="59.6232406050" lon="31.0364726745"><ele>23.15</ele><time>2026-08-12T03:06:28Z</time></trkpt><trkpt lat="59.6232900582" lon="31.0363337863"><ele>22.15</ele><time>2026-08-12T03:06:35Z</time></trkpt><trkpt lat="59.6234253421" lon="31.0360214766"><ele>20.54</ele><time>2026-08-12T03:06:52Z</time></trkpt><trkpt lat="59.6234574448" lon="31.0359065607"><ele>19.83</ele><time>2026-08-12T03:06:58Z</time></trkpt><trkpt lat="59.6234736219" lon="31.0358012002"><ele>19.42</ele><time>2026-08-12T03:07:03Z</time></trkpt><trkpt lat="59.6234803274" lon="31.0357582010"><ele>19.06</ele><time>2026-08-12T03:07:05Z</time></trkpt><trkpt lat="59.6235279366" lon="31.0354483221"><ele>16.36</ele><time>2026-08-12T03:07:19Z</time></trkpt><trkpt lat="59.6236799844" lon="31.0350311548"><ele>17.93</ele><time>2026-08-12T03:07:38Z</time></trkpt><trkpt lat="59.6237834170" lon="31.0346420668"><ele>19.77</ele><time>2026-08-12T03:07:56Z</time></trkpt><trkpt lat="59.6238759533" lon="31.0342728440"><ele>20.59</ele><time>2026-08-12T03:08:12Z</time></trkpt><trkpt lat="59.6239616163" lon="31.0340068024"><ele>21.24</ele><time>2026-08-12T03:08:27Z</time></trkpt><trkpt lat="59.6240299288" lon="31.0337529145"><ele>18.93</ele><time>2026-08-12T03:08:39Z</time></trkpt><trkpt lat="59.6240791306" lon="31.0336894635"><ele>18.97</ele><time>2026-08-12T03:08:43Z</time></trkpt><trkpt lat="59.6242079604" lon="31.0333370045"><ele>17.09</ele><time>2026-08-12T03:09:00Z</time></trkpt><trkpt lat="59.6243306715" lon="31.0328821186"><ele>21.47</ele><time>2026-08-12T03:09:16Z</time></trkpt><trkpt lat="59.6244538855" lon="31.0324531328"><ele>23.71</ele><time>2026-08-12T03:09:34Z</time></trkpt><trkpt lat="59.6246187575" lon="31.0319789685"><ele>31.55</ele><time>2026-08-12T03:09:55Z</time></trkpt><trkpt lat="59.6247407980" lon="31.0315738712"><ele>30.78</ele><time>2026-08-12T03:10:15Z</time></trkpt><trkpt lat="59.6247577295" lon="31.0315068159"><ele>29.80</ele><time>2026-08-12T03:10:18Z</time></trkpt><trkpt lat="59.6248590667" lon="31.0310692806"><ele>24.50</ele><time>2026-08-12T03:10:36Z</time></trkpt><trkpt lat="59.6249274630" lon="31.0306884907"><ele>19.22</ele><time>2026-08-12T03:10:53Z</time></trkpt><trkpt lat="59.6250194125" lon="31.0303283203"><ele>14.60</ele><time>2026-08-12T03:11:10Z</time></trkpt><trkpt lat="59.6251129545" lon="31.0299808066"><ele>13.66</ele><time>2026-08-12T03:11:25Z</time></trkpt><trkpt lat="59.6252455562" lon="31.0295685008"><ele>10.33</ele><time>2026-08-12T03:11:44Z</time></trkpt><trkpt lat="59.6253106836" lon="31.0292108450"><ele>7.20</ele><time>2026-08-12T03:12:00Z</time></trkpt><trkpt lat="59.6253912337" lon="31.0289101023"><ele>4.60</ele><time>2026-08-12T03:12:13Z</time></trkpt><trkpt lat="59.6255561896" lon="31.0284963716"><ele>8.39</ele><time>2026-08-12T03:12:31Z</time></trkpt><trkpt lat="59.6257349756" lon="31.0280725826"><ele>16.06</ele><time>2026-08-12T03:12:50Z</time></trkpt><trkpt lat="59.6258698404" lon="31.0277408268"><ele>22.47</ele><time>2026-08-12T03:13:07Z</time></trkpt><trkpt lat="59.6259125881" lon="31.0277373902"><ele>32.76</ele><time>2026-08-12T03:13:28Z</time></trkpt><trkpt lat="59.6259377338" lon="31.0275978316"><ele>33.46</ele><time>2026-08-12T03:13:42Z</time></trkpt><trkpt lat="59.6260107402" lon="31.0273513198"><ele>32.42</ele><time>2026-08-12T03:13:55Z</time></trkpt><trkpt lat="59.6261488739" lon="31.0268772393"><ele>34.09</ele><time>2026-08-12T03:14:18Z</time></trkpt><trkpt lat="59.6262161806" lon="31.0266521852"><ele>34.42</ele><time>2026-08-12T03:14:33Z</time></trkpt><trkpt lat="59.6262385603" lon="31.0266052466"><ele>33.92</ele><time>2026-08-12T03:14:36Z</time></trkpt><trkpt lat="59.6262915339" lon="31.0263925139"><ele>32.05</ele><time>2026-08-12T03:14:51Z</time></trkpt><trkpt lat="59.6263504587" lon="31.0261625983"><ele>32.79</ele><time>2026-08-12T03:15:04Z</time></trkpt><trkpt lat="59.6264761873" lon="31.0257539805"><ele>31.53</ele><time>2026-08-12T03:15:23Z</time></trkpt><trkpt lat="59.6265916061" lon="31.0253617074"><ele>31.17</ele><time>2026-08-12T03:15:42Z</time></trkpt><trkpt lat="59.6267439891" lon="31.0248355754"><ele>31.78</ele><time>2026-08-12T03:16:06Z</time></trkpt><trkpt lat="59.6268772613" lon="31.0243816953"><ele>33.17</ele><time>2026-08-12T03:16:28Z</time></trkpt><trkpt lat="59.6270080190" lon="31.0243059229"><ele>33.44</ele><time>2026-08-12T03:16:46Z</time></trkpt><trkpt lat="59.6272008866" lon="31.0245316476"><ele>33.15</ele><time>2026-08-12T03:17:07Z</time></trkpt><trkpt lat="59.6273591369" lon="31.0247215815"><ele>31.04</ele><time>2026-08-12T03:17:25Z</time></trkpt><trkpt lat="59.6275230031" lon="31.0249219090"><ele>31.09</ele><time>2026-08-12T03:17:43Z</time></trkpt><trkpt lat="59.6276657470" lon="31.0250917263"><ele>33.43</ele><time>2026-08-12T03:17:58Z</time></trkpt><trkpt lat="59.6279000212" lon="31.0253580194"><ele>34.67</ele><time>2026-08-12T03:18:19Z</time></trkpt><trkpt lat="59.6281376481" lon="31.0256666411"><ele>33.84</ele><time>2026-08-12T03:18:41Z</time></trkpt><trkpt lat="59.6283943020" lon="31.0259085428"><ele>32.77</ele><time>2026-08-12T03:19:03Z</time></trkpt><trkpt lat="59.6286341920" lon="31.0261941981"><ele>31.93</ele><time>2026-08-12T03:19:24Z</time></trkpt><trkpt lat="59.6288566478" lon="31.0264885705"><ele>32.53</ele><time>2026-08-12T03:19:44Z</time></trkpt><trkpt lat="59.6291557979" lon="31.0268644150"><ele>33.88</ele><time>2026-08-12T03:20:11Z</time></trkpt><trkpt lat="59.6293935925" lon="31.0271612182"><ele>34.63</ele><time>2026-08-12T03:20:32Z</time></trkpt></trkseg><trkseg><trkpt lat="59.6295661759" lon="31.0273507331"><ele>35.03</ele><time>2026-08-12T03:20:47Z</time></trkpt><trkpt lat="59.6296022180" lon="31.0273922235"><ele>34.94</ele><time>2026-08-12T03:20:50Z</time></trkpt></trkseg><trkseg><trkpt lat="59.3505606148" lon="34.6995620057"><ele>157.71</ele><time>2026-08-13T22:01:21Z</time></trkpt><trkpt lat="59.3505820725" lon="34.6996121295"><ele>157.10</ele><time>2026-08-13T22:01:52Z</time></trkpt><trkpt lat="59.3505719304" lon="34.6995594911"><ele>162.94</ele><time>2026-08-13T22:02:20Z</time></trkpt><trkpt lat="59.3505611178" lon="34.6995135583"><ele>166.33</ele><time>2026-08-13T22:02:55Z</time></trkpt><trkpt lat="59.3505412526" lon="34.6995316632"><ele>164.79</ele><time>2026-08-13T22:03:24Z</time></trkpt><trkpt lat="59.3505323678" lon="34.6995073557"><ele>166.37</ele><time>2026-08-13T22:03:52Z</time></trkpt><trkpt lat="59.3506228086" lon="34.6995422244"><ele>166.43</ele><time>2026-08-13T22:04:27Z</time></trkpt><trkpt lat="59.3506008480" lon="34.6995147318"><ele>164.37</ele><time>2026-08-13T22:05:03Z</time></trkpt><trkpt lat="59.3505869340" lon="34.6995126363"><ele>160.74</ele><time>2026-08-13T22:05:37Z</time></trkpt><trkpt lat="59.3505803123" lon="34.6994695533"><ele>162.62</ele><time>2026-08-13T22:06:14Z</time></trkpt><trkpt lat="59.3505964894" lon="34.6994929388"><ele>163.18</ele><time>2026-08-13T22:06:45Z</time></trkpt><trkpt lat="59.3505985010" lon="34.6995060984"><ele>162.22</ele><time>2026-08-13T22:07:19Z</time></trkpt><trkpt lat="59.3505788036" lon="34.6995449066"><ele>161.95</ele><time>2026-08-13T22:07:50Z</time></trkpt><trkpt lat="59.3505584355" lon="34.6994512808"><ele>162.38</ele><time>2026-08-13T22:08:16Z</time></trkpt><trkpt lat="59.3505862635" lon="34.6994118020"><ele>162.38</ele><time>2026-08-13T22:08:34Z</time></trkpt><trkpt lat="59.3505622912" lon="34.6995027456"><ele>161.02</ele><time>2026-08-13T22:09:05Z</time></trkpt><trkpt lat="59.3506207131" lon="34.6996064298"><ele>160.97</ele><time>2026-08-13T22:09:31Z</time></trkpt><trkpt lat="59.3506035302" lon="34.6996672824"><ele>160.70</ele><time>2026-08-13T22:09:49Z</time></trkpt><trkpt lat="59.3506152648" lon="34.6996667795"><ele>159.89</ele><time>2026-08-13T22:10:12Z</time></trkpt><trkpt lat="59.3506115768" lon="34.6996511891"><ele>157.31</ele><time>2026-08-13T22:10:52Z</time></trkpt><trkpt lat="59.3506101519" lon="34.6996539552"><ele>157.58</ele><time>2026-08-13T22:11:10Z</time></trkpt><trkpt lat="59.3505705055" lon="34.6995712258"><ele>157.88</ele><time>2026-08-13T22:11:28Z</time></trkpt><trkpt lat="59.3505301885" lon="34.6995393746"><ele>158.34</ele><time>2026-08-13T22:11:54Z</time></trkpt><trkpt lat="59.3505035341" lon="34.6994494367"><ele>159.63</ele><time>2026-08-13T22:12:25Z</time></trkpt><trkpt lat="59.3505491316" lon="34.6995314956"><ele>159.65</ele><time>2026-08-13T22:12:54Z</time></trkpt><trkpt lat="59.3505229801" lon="34.6994172502"><ele>159.30</ele><time>2026-08-13T22:13:13Z</time></trkpt><trkpt lat="59.3505285960" lon="34.6993492730"><ele>159.02</ele><time>2026-08-13T22:13:39Z</time></trkpt><trkpt lat="59.3505508080" lon="34.6993406396"><ele>159.63</ele><time>2026-08-13T22:14:12Z</time></trkpt><trkpt lat="59.3505529873" lon="34.6993389633"><ele>160.42</ele><time>2026-08-13T22:15:16Z</time></trkpt><trkpt lat="59.3505524844" lon="34.6993299946"><ele>159.39</ele><time>2026-08-13T22:15:51Z</time></trkpt><trkpt lat="59.3505284283" lon="34.6993169188"><ele>157.49</ele><time>2026-08-13T22:16:29Z</time></trkpt><trkpt lat="59.3505384028" lon="34.6993365325"><ele>157.18</ele><time>2026-08-13T22:17:33Z</time></trkpt><trkpt lat="59.3505464494" lon="34.6993342694"><ele>159.39</ele><time>2026-08-13T22:18:21Z</time></trkpt><trkpt lat="59.3505517300" lon="34.6993558109"><ele>159.55</ele><time>2026-08-13T22:18:57Z</time></trkpt><trkpt lat="59.3505594414" lon="34.6993349399"><ele>159.85</ele><time>2026-08-13T22:19:24Z</time></trkpt><trkpt lat="59.3505292665" lon="34.6993383765"><ele>160.07</ele><time>2026-08-13T22:19:55Z</time></trkpt><trkpt lat="59.3505439349" lon="34.6993636061"><ele>157.85</ele><time>2026-08-13T22:20:25Z</time></trkpt><trkpt lat="59.3505361397" lon="34.6993782744"><ele>158.29</ele><time>2026-08-13T22:21:06Z</time></trkpt><trkpt lat="59.3505384028" lon="34.6993606724"><ele>157.20</ele><time>2026-08-13T22:21:42Z</time></trkpt><trkpt lat="59.3505259976" lon="34.6993584931"><ele>156.26</ele><time>2026-08-13T22:22:28Z</time></trkpt><trkpt lat="59.3505316135" lon="34.6993626002"><ele>155.78</ele><time>2026-08-13T22:23:01Z</time></trkpt><trkpt lat="59.3504976667" lon="34.6993391309"><ele>154.90</ele><time>2026-08-13T22:23:32Z</time></trkpt><trkpt lat="59.3505394924" lon="34.6993678808"><ele>154.25</ele><time>2026-08-13T22:24:01Z</time></trkpt><trkpt lat="59.3505555857" lon="34.6993806213"><ele>153.88</ele><time>2026-08-13T22:24:29Z</time></trkpt><trkpt lat="59.3505470362" lon="34.6993501950"><ele>153.67</ele><time>2026-08-13T22:24:59Z</time></trkpt><trkpt lat="59.3505370617" lon="34.6993783582"><ele>152.87</ele><time>2026-08-13T22:25:26Z</time></trkpt><trkpt lat="59.3505219743" lon="34.6993945353"><ele>152.83</ele><time>2026-08-13T22:25:55Z</time></trkpt><trkpt lat="59.3505405821" lon="34.6993965469"><ele>153.41</ele><time>2026-08-13T22:26:28Z</time></trkpt><trkpt lat="59.3505524006" lon="34.6993865725"><ele>154.12</ele><time>2026-08-13T22:27:22Z</time></trkpt><trkpt lat="59.3505451921" lon="34.6993997321"><ele>155.01</ele><time>2026-08-13T22:27:54Z</time></trkpt><trkpt lat="59.3505322840" lon="34.6993684676"><ele>154.41</ele><time>2026-08-13T22:28:22Z</time></trkpt><trkpt lat="59.3505260814" lon="34.6993395500"><ele>154.80</ele><time>2026-08-13T22:28:53Z</time></trkpt><trkpt lat="59.3505255785" lon="34.6993569843"><ele>155.59</ele><time>2026-08-13T22:29:21Z</time></trkpt><trkpt lat="59.3505500536" lon="34.6993698087"><ele>157.10</ele><time>2026-08-13T22:29:49Z</time></trkpt><trkpt lat="59.3505622074" lon="34.6993481833"><ele>159.28</ele><time>2026-08-13T22:30:18Z</time></trkpt><trkpt lat="59.3505824078" lon="34.6993315872"><ele>161.98</ele><time>2026-08-13T22:30:49Z</time></trkpt><trkpt lat="59.3505860120" lon="34.6993735805"><ele>163.63</ele><time>2026-08-13T22:31:18Z</time></trkpt><trkpt lat="59.3505607825" lon="34.6993534639"><ele>163.87</ele><time>2026-08-13T22:31:48Z</time></trkpt><trkpt lat="59.3505627941" lon="34.6993662044"><ele>164.98</ele><time>2026-08-13T22:32:16Z</time></trkpt><trkpt lat="59.3505664822" lon="34.6993729938"><ele>164.75</ele><time>2026-08-13T22:32:44Z</time></trkpt><trkpt lat="59.3505801447" lon="34.6993726585"><ele>164.10</ele><time>2026-08-13T22:33:14Z</time></trkpt><trkpt lat="59.3505697511" lon="34.6993633546"><ele>164.41</ele><time>2026-08-13T22:33:42Z</time></trkpt><trkpt lat="59.3505273387" lon="34.6993440762"><ele>165.52</ele><time>2026-08-13T22:34:12Z</time></trkpt><trkpt lat="59.3505338766" lon="34.6993251331"><ele>165.59</ele><time>2026-08-13T22:34:45Z</time></trkpt><trkpt lat="59.3505536579" lon="34.6993435733"><ele>166.60</ele><time>2026-08-13T22:35:16Z</time></trkpt><trkpt lat="59.3505676556" lon="34.6993299108"><ele>167.33</ele><time>2026-08-13T22:35:42Z</time></trkpt><trkpt lat="59.3505625427" lon="34.6993230376"><ele>166.75</ele><time>2026-08-13T22:36:12Z</time></trkpt><trkpt lat="59.3505768757" lon="34.6993530449"><ele>165.99</ele><time>2026-08-13T22:36:39Z</time></trkpt><trkpt lat="59.3505697511" lon="34.6993564814"><ele>166.16</ele><time>2026-08-13T22:37:05Z</time></trkpt><trkpt lat="59.3505680747" lon="34.6993929427"><ele>164.93</ele><time>2026-08-13T22:37:35Z</time></trkpt><trkpt lat="59.3505529873" lon="34.6993313357"><ele>161.45</ele><time>2026-08-13T22:38:10Z</time></trkpt><trkpt lat="59.3505487125" lon="34.6993541345"><ele>159.22</ele><time>2026-08-13T22:39:32Z</time></trkpt><trkpt lat="59.3505412526" lon="34.6993512847"><ele>159.31</ele><time>2026-08-13T22:41:05Z</time></trkpt><trkpt lat="59.3505541608" lon="34.6993225347"><ele>160.74</ele><time>2026-08-13T22:42:32Z</time></trkpt><trkpt lat="59.3505497184" lon="34.6993265580"><ele>161.48</ele><time>2026-08-13T22:43:54Z</time></trkpt><trkpt lat="59.3505612016" lon="34.6993518714"><ele>162.16</ele><time>2026-08-13T22:45:28Z</time></trkpt><trkpt lat="59.3505612016" lon="34.6993047651"><ele>160.73</ele><time>2026-08-13T22:46:58Z</time></trkpt><trkpt lat="59.3505453598" lon="34.6993368678"><ele>160.03</ele><time>2026-08-13T22:48:27Z</time></trkpt><trkpt lat="59.3505441025" lon="34.6993418969"><ele>158.88</ele><time>2026-08-13T22:49:52Z</time></trkpt><trkpt lat="59.3505479582" lon="34.6993385442"><ele>159.04</ele><time>2026-08-13T22:51:25Z</time></trkpt><trkpt lat="59.3505483773" lon="34.6993408073"><ele>160.21</ele><time>2026-08-13T22:52:55Z</time></trkpt><trkpt lat="59.3505629618" lon="34.6993828006"><ele>161.10</ele><time>2026-08-13T22:54:19Z</time></trkpt><trkpt lat="59.3505404145" lon="34.6993704792"><ele>160.42</ele><time>2026-08-13T22:55:36Z</time></trkpt><trkpt lat="59.3505484611" lon="34.6993633546"><ele>161.30</ele><time>2026-08-13T22:57:05Z</time></trkpt><trkpt lat="59.3505365588" lon="34.6993477643"><ele>162.14</ele><time>2026-08-13T22:58:28Z</time></trkpt><trkpt lat="59.3505450245" lon="34.6993934456"><ele>164.57</ele><time>2026-08-13T22:59:54Z</time></trkpt><trkpt lat="59.3505524006" lon="34.6993768495"><ele>164.78</ele><time>2026-08-13T23:01:22Z</time></trkpt><trkpt lat="59.3505520653" lon="34.6994339302"><ele>165.25</ele><time>2026-08-13T23:01:53Z</time></trkpt><trkpt lat="59.3505390733" lon="34.6994353551"><ele>164.28</ele><time>2026-08-13T23:02:15Z</time></trkpt><trkpt lat="59.3505315296" lon="34.6994235367"><ele>163.08</ele><time>2026-08-13T23:03:01Z</time></trkpt><trkpt lat="59.3505312782" lon="34.6994087845"><ele>161.01</ele><time>2026-08-13T23:04:02Z</time></trkpt><trkpt lat="59.3505179510" lon="34.6993889194"><ele>158.11</ele><time>2026-08-13T23:05:09Z</time></trkpt><trkpt lat="59.3505126704" lon="34.6993830521"><ele>157.76</ele><time>2026-08-13T23:05:47Z</time></trkpt><trkpt lat="59.3505145144" lon="34.6993805375"><ele>157.06</ele><time>2026-08-13T23:06:42Z</time></trkpt><trkpt lat="59.3505056296" lon="34.6993769333"><ele>155.93</ele><time>2026-08-13T23:07:32Z</time></trkpt><trkpt lat="59.3505087309" lon="34.6993886679"><ele>155.26</ele><time>2026-08-13T23:08:27Z</time></trkpt><trkpt lat="59.3505151011" lon="34.6993814595"><ele>156.31</ele><time>2026-08-13T23:09:19Z</time></trkpt><trkpt lat="59.3505843356" lon="34.6993557271"><ele>164.81</ele><time>2026-08-13T23:33:38Z</time></trkpt><trkpt lat="59.3505738582" lon="34.6994165797"><ele>161.20</ele><time>2026-08-13T23:34:09Z</time></trkpt><trkpt lat="59.3505837489" lon="34.6994485147"><ele>164.18</ele><time>2026-08-13T23:34:30Z</time></trkpt><trkpt lat="59.3505739421" lon="34.6994298231"><ele>162.98</ele><time>2026-08-13T23:35:01Z</time></trkpt><trkpt lat="59.3505874369" lon="34.6994123049"><ele>162.01</ele><time>2026-08-13T23:35:36Z</time></trkpt><trkpt lat="59.3505637161" lon="34.6993962955"><ele>163.17</ele><time>2026-08-13T23:36:08Z</time></trkpt><trkpt lat="59.3505402468" lon="34.6993991453"><ele>162.88</ele><time>2026-08-13T23:36:37Z</time></trkpt><trkpt lat="59.3505370617" lon="34.6994356066"><ele>162.52</ele><time>2026-08-13T23:37:06Z</time></trkpt><trkpt lat="59.3505559210" lon="34.6994260512"><ele>162.85</ele><time>2026-08-13T23:37:36Z</time></trkpt><trkpt lat="59.3505672365" lon="34.6994144004"><ele>163.79</ele><time>2026-08-13T23:38:04Z</time></trkpt><trkpt lat="59.3505512271" lon="34.6994279791"><ele>164.73</ele><time>2026-08-13T23:38:35Z</time></trkpt><trkpt lat="59.3505477067" lon="34.6994365286"><ele>165.55</ele><time>2026-08-13T23:39:18Z</time></trkpt><trkpt lat="59.3505622912" lon="34.6994277276"><ele>165.15</ele><time>2026-08-13T23:39:47Z</time></trkpt><trkpt lat="59.3505593576" lon="34.6994383726"><ele>164.20</ele><time>2026-08-13T23:40:18Z</time></trkpt><trkpt lat="59.3505627103" lon="34.6994537115"><ele>163.71</ele><time>2026-08-13T23:40:47Z</time></trkpt><trkpt lat="59.3505699188" lon="34.6994327568"><ele>162.49</ele><time>2026-08-13T23:41:55Z</time></trkpt><trkpt lat="59.3505451921" lon="34.6994268894"><ele>161.27</ele><time>2026-08-13T23:42:45Z</time></trkpt><trkpt lat="59.3505487964" lon="34.6994154900"><ele>160.73</ele><time>2026-08-13T23:43:14Z</time></trkpt><trkpt lat="59.3505632970" lon="34.6994137298"><ele>160.67</ele><time>2026-08-13T23:43:43Z</time></trkpt><trkpt lat="59.3505612854" lon="34.6994102933"><ele>162.57</ele><time>2026-08-13T23:44:16Z</time></trkpt><trkpt lat="59.3505625427" lon="34.6994332597"><ele>163.17</ele><time>2026-08-13T23:44:46Z</time></trkpt><trkpt lat="59.3505637161" lon="34.6994298231"><ele>164.18</ele><time>2026-08-13T23:45:23Z</time></trkpt><trkpt lat="59.3505577650" lon="34.6994192619"><ele>164.07</ele><time>2026-08-13T23:45:53Z</time></trkpt><trkpt lat="59.3505421747" lon="34.6994149033"><ele>164.20</ele><time>2026-08-13T23:46:18Z</time></trkpt><trkpt lat="59.3505675718" lon="34.6994294040"><ele>163.74</ele><time>2026-08-13T23:46:44Z</time></trkpt><trkpt lat="59.3506083079" lon="34.6993906796"><ele>163.65</ele><time>2026-08-13T23:46:57Z</time></trkpt><trkpt lat="59.3506104033" lon="34.6994149871"><ele>163.57</ele><time>2026-08-13T23:47:03Z</time></trkpt><trkpt lat="59.3506569229" lon="34.6995769255"><ele>162.89</ele><time>2026-08-13T23:47:18Z</time></trkpt><trkpt lat="59.3506621197" lon="34.6995523665"><ele>162.12</ele><time>2026-08-13T23:47:33Z</time></trkpt><trkpt lat="59.3505946454" lon="34.6994565614"><ele>161.90</ele><time>2026-08-13T23:47:51Z</time></trkpt><trkpt lat="59.3506162707" lon="34.6993952058"><ele>161.31</ele><time>2026-08-13T23:48:12Z</time></trkpt><trkpt lat="59.3506145105" lon="34.6993821301"><ele>161.11</ele><time>2026-08-13T23:48:40Z</time></trkpt><trkpt lat="59.3506196234" lon="34.6993763465"><ele>161.25</ele><time>2026-08-13T23:49:08Z</time></trkpt><trkpt lat="59.3506228924" lon="34.6993849799"><ele>161.03</ele><time>2026-08-13T23:49:15Z</time></trkpt><trkpt lat="59.3505471200" lon="34.6994090360"><ele>161.46</ele><time>2026-08-13T23:49:35Z</time></trkpt><trkpt lat="59.3505757023" lon="34.6994083654"><ele>161.78</ele><time>2026-08-13T23:50:06Z</time></trkpt><trkpt lat="59.3505669851" lon="34.6994059347"><ele>163.41</ele><time>2026-08-13T23:50:34Z</time></trkpt><trkpt lat="59.3505788874" lon="34.6994206030"><ele>164.26</ele><time>2026-08-13T23:51:05Z</time></trkpt><trkpt lat="59.3505749479" lon="34.6994388755"><ele>164.87</ele><time>2026-08-13T23:51:30Z</time></trkpt><trkpt lat="59.3505733553" lon="34.6994254645"><ele>166.51</ele><time>2026-08-13T23:51:57Z</time></trkpt><trkpt lat="59.3505869340" lon="34.6994332597"><ele>166.17</ele><time>2026-08-13T23:52:19Z</time></trkpt><trkpt lat="59.3506130856" lon="34.6993994806"><ele>165.61</ele><time>2026-08-13T23:52:38Z</time></trkpt><trkpt lat="59.3506248202" lon="34.6993868239"><ele>165.89</ele><time>2026-08-13T23:53:01Z</time></trkpt><trkpt lat="59.3506275862" lon="34.6994393785"><ele>165.76</ele><time>2026-08-13T23:53:16Z</time></trkpt><trkpt lat="59.3506513070" lon="34.6995479241"><ele>164.61</ele><time>2026-08-13T23:53:31Z</time></trkpt><trkpt lat="59.3506601080" lon="34.6995527856"><ele>163.80</ele><time>2026-08-13T23:54:01Z</time></trkpt><trkpt lat="59.3506679870" lon="34.6995374467"><ele>163.08</ele><time>2026-08-13T23:54:16Z</time></trkpt><trkpt lat="59.3506601918" lon="34.6995563898"><ele>163.08</ele><time>2026-08-13T23:54:42Z</time></trkpt><trkpt lat="59.3506735191" lon="34.6995319985"><ele>161.72</ele><time>2026-08-13T23:55:11Z</time></trkpt><trkpt lat="59.3506544083" lon="34.6995329205"><ele>160.82</ele><time>2026-08-13T23:55:46Z</time></trkpt><trkpt lat="59.3506855890" lon="34.6995589882"><ele>160.84</ele><time>2026-08-13T23:56:18Z</time></trkpt><trkpt lat="59.3506676517" lon="34.6995426435"><ele>162.01</ele><time>2026-08-13T23:56:51Z</time></trkpt><trkpt lat="59.3506953958" lon="34.6995458286"><ele>162.16</ele><time>2026-08-13T23:57:22Z</time></trkpt><trkpt lat="59.3506902829" lon="34.6995283943"><ele>162.52</ele><time>2026-08-13T23:57:28Z</time></trkpt><trkpt lat="59.3506329507" lon="34.6995052602"><ele>163.43</ele><time>2026-08-13T23:57:58Z</time></trkpt><trkpt lat="59.3506245688" lon="34.6995194256"><ele>163.23</ele><time>2026-08-13T23:58:28Z</time></trkpt><trkpt lat="59.3505863473" lon="34.6995526180"><ele>163.41</ele><time>2026-08-13T23:58:57Z</time></trkpt><trkpt lat="59.3505967408" lon="34.6995573118"><ele>163.59</ele><time>2026-08-14T00:00:02Z</time></trkpt><trkpt lat="59.3506371416" lon="34.6995221078"><ele>164.26</ele><time>2026-08-14T00:00:28Z</time></trkpt><trkpt lat="59.3506373931" lon="34.6995439846"><ele>163.79</ele><time>2026-08-14T00:01:19Z</time></trkpt><trkpt lat="59.3506425060" lon="34.6995544620"><ele>163.17</ele><time>2026-08-14T00:01:53Z</time></trkpt><trkpt lat="59.3506181985" lon="34.6995189227"><ele>163.75</ele><time>2026-08-14T00:02:26Z</time></trkpt><trkpt lat="59.3506306037" lon="34.6995747462"><ele>163.63</ele><time>2026-08-14T00:02:53Z</time></trkpt><trkpt lat="59.3506407458" lon="34.6995146479"><ele>164.35</ele><time>2026-08-14T00:03:20Z</time></trkpt><trkpt lat="59.3506378960" lon="34.6995048411"><ele>164.41</ele><time>2026-08-14T00:03:46Z</time></trkpt><trkpt lat="59.3506566714" lon="34.6994885802"><ele>163.30</ele><time>2026-08-14T00:04:06Z</time></trkpt><trkpt lat="59.3506575935" lon="34.6995065175"><ele>162.74</ele><time>2026-08-14T00:04:22Z</time></trkpt><trkpt lat="59.3506529834" lon="34.6995201800"><ele>162.04</ele><time>2026-08-14T00:04:40Z</time></trkpt><trkpt lat="59.3505799770" lon="34.6994436532"><ele>160.79</ele><time>2026-08-14T00:05:00Z</time></trkpt><trkpt lat="59.3505585194" lon="34.6994330920"><ele>160.99</ele><time>2026-08-14T00:05:15Z</time></trkpt><trkpt lat="59.3506450206" lon="34.6995128039"><ele>160.33</ele><time>2026-08-14T00:05:34Z</time></trkpt><trkpt lat="59.3506506365" lon="34.6995580662"><ele>159.93</ele><time>2026-08-14T00:05:58Z</time></trkpt><trkpt lat="59.3506539054" lon="34.6996034961"><ele>160.41</ele><time>2026-08-14T00:06:28Z</time></trkpt><trkpt lat="59.3506436795" lon="34.6995794401"><ele>160.40</ele><time>2026-08-14T00:06:51Z</time></trkpt><trkpt lat="59.3506297655" lon="34.6995601617"><ele>161.04</ele><time>2026-08-14T00:07:18Z</time></trkpt><trkpt lat="59.3506360520" lon="34.6995388716"><ele>161.54</ele><time>2026-08-14T00:07:42Z</time></trkpt><trkpt lat="59.3506210484" lon="34.6994826291"><ele>161.52</ele><time>2026-08-14T00:07:57Z</time></trkpt><trkpt lat="59.3506378122" lon="34.6994720679"><ele>161.66</ele><time>2026-08-14T00:08:21Z</time></trkpt><trkpt lat="59.3506295979" lon="34.6995062660"><ele>161.64</ele><time>2026-08-14T00:08:51Z</time></trkpt><trkpt lat="59.3506482895" lon="34.6994983032"><ele>162.15</ele><time>2026-08-14T00:09:22Z</time></trkpt><trkpt lat="59.3506460264" lon="34.6995373629"><ele>161.88</ele><time>2026-08-14T00:09:32Z</time></trkpt><trkpt lat="59.3506538216" lon="34.6995008178"><ele>161.92</ele><time>2026-08-14T00:09:49Z</time></trkpt><trkpt lat="59.3505889457" lon="34.6995155700"><ele>162.37</ele><time>2026-08-14T00:10:16Z</time></trkpt><trkpt lat="59.3506306875" lon="34.6995631792"><ele>162.20</ele><time>2026-08-14T00:10:28Z</time></trkpt><trkpt lat="59.3507629540" lon="34.6999381855"><ele>161.02</ele><time>2026-08-14T00:10:39Z</time></trkpt><trkpt lat="59.3509166781" lon="34.7007928882"><ele>159.40</ele><time>2026-08-14T00:10:53Z</time></trkpt><trkpt lat="59.3510321807" lon="34.7016259655"><ele>157.23</ele><time>2026-08-14T00:11:06Z</time></trkpt><trkpt lat="59.3510424066" lon="34.7025744617"><ele>155.13</ele><time>2026-08-14T00:11:21Z</time></trkpt><trkpt lat="59.3510732520" lon="34.7036235407"><ele>153.42</ele><time>2026-08-14T00:11:34Z</time></trkpt><trkpt lat="59.3511139043" lon="34.7049417626"><ele>152.79</ele><time>2026-08-14T00:11:49Z</time></trkpt><trkpt lat="59.3511163350" lon="34.7059714794"><ele>154.54</ele><time>2026-08-14T00:12:02Z</time></trkpt><trkpt lat="59.3512649462" lon="34.7072946467"><ele>157.57</ele><time>2026-08-14T00:12:17Z</time></trkpt><trkpt lat="59.3514730688" lon="34.7076232173"><ele>159.09</ele><time>2026-08-14T00:12:24Z</time></trkpt><trkpt lat="59.3519406952" lon="34.7078764345"><ele>159.67</ele><time>2026-08-14T00:12:39Z</time></trkpt><trkpt lat="59.3520294596" lon="34.7082003113"><ele>159.34</ele><time>2026-08-14T00:12:47Z</time></trkpt><trkpt lat="59.3520921562" lon="34.7081443202"><ele>159.78</ele><time>2026-08-14T00:12:52Z</time></trkpt><trkpt lat="59.3521467224" lon="34.7079816274"><ele>159.77</ele><time>2026-08-14T00:12:55Z</time></trkpt><trkpt lat="59.3522385042" lon="34.7079631872"><ele>159.31</ele><time>2026-08-14T00:12:59Z</time></trkpt><trkpt lat="59.3526597787" lon="34.7080952860"><ele>157.75</ele><time>2026-08-14T00:13:13Z</time></trkpt><trkpt lat="59.3530739285" lon="34.7081083618"><ele>153.33</ele><time>2026-08-14T00:13:28Z</time></trkpt><trkpt lat="59.3534242082" lon="34.7083781753"><ele>155.22</ele><time>2026-08-14T00:13:40Z</time></trkpt><trkpt lat="59.3537752423" lon="34.7087463085"><ele>157.42</ele><time>2026-08-14T00:13:53Z</time></trkpt><trkpt lat="59.3541177269" lon="34.7091156151"><ele>158.79</ele><time>2026-08-14T00:14:06Z</time></trkpt><trkpt lat="59.3542406056" lon="34.7093295213"><ele>156.89</ele><time>2026-08-14T00:14:11Z</time></trkpt><trkpt lat="59.3546183780" lon="34.7096531466"><ele>156.94</ele><time>2026-08-14T00:14:21Z</time></trkpt><trkpt lat="59.3546863552" lon="34.7095057089"><ele>156.86</ele><time>2026-08-14T00:14:27Z</time></trkpt><trkpt lat="59.3544488121" lon="34.7086065821"><ele>156.68</ele><time>2026-08-14T00:14:40Z</time></trkpt><trkpt lat="59.3543319684" lon="34.7082258761"><ele>156.68</ele><time>2026-08-14T00:14:49Z</time></trkpt><trkpt lat="59.3542230036" lon="34.7075396497"><ele>156.23</ele><time>2026-08-14T00:15:00Z</time></trkpt><trkpt lat="59.3540942576" lon="34.7064937558"><ele>156.47</ele><time>2026-08-14T00:15:14Z</time></trkpt><trkpt lat="59.3540832773" lon="34.7062067594"><ele>156.40</ele><time>2026-08-14T00:15:17Z</time></trkpt><trkpt lat="59.3541171402" lon="34.7053046990"><ele>158.13</ele><time>2026-08-14T00:15:27Z</time></trkpt><trkpt lat="59.3541027233" lon="34.7046561074"><ele>157.33</ele><time>2026-08-14T00:15:34Z</time></trkpt><trkpt lat="59.3541687727" lon="34.7033865005"><ele>159.62</ele><time>2026-08-14T00:15:51Z</time></trkpt><trkpt lat="59.3541784119" lon="34.7031300981"><ele>160.40</ele><time>2026-08-14T00:16:00Z</time></trkpt><trkpt lat="59.3541366700" lon="34.7023015469"><ele>159.19</ele><time>2026-08-14T00:16:16Z</time></trkpt><trkpt lat="59.3539888971" lon="34.7019350901"><ele>158.80</ele><time>2026-08-14T00:16:28Z</time></trkpt><trkpt lat="59.3537754100" lon="34.7016055137"><ele>159.97</ele><time>2026-08-14T00:16:42Z</time></trkpt><trkpt lat="59.3535234500" lon="34.7012790386"><ele>162.85</ele><time>2026-08-14T00:16:58Z</time></trkpt><trkpt lat="59.3534263875" lon="34.7011125740"><ele>161.55</ele><time>2026-08-14T00:17:12Z</time></trkpt><trkpt lat="59.3534499407" lon="34.7011193633"><ele>161.09</ele><time>2026-08-14T00:17:21Z</time></trkpt><trkpt lat="59.3534694705" lon="34.7009744402"><ele>160.85</ele><time>2026-08-14T00:17:25Z</time></trkpt><trkpt lat="59.3535402138" lon="34.7001520917"><ele>160.34</ele><time>2026-08-14T00:17:43Z</time></trkpt><trkpt lat="59.3535909243" lon="34.6998000517"><ele>160.32</ele><time>2026-08-14T00:17:56Z</time></trkpt><trkpt lat="59.3536671158" lon="34.6995956171"><ele>160.73</ele><time>2026-08-14T00:18:05Z</time></trkpt><trkpt lat="59.3536575604" lon="34.6996307373"><ele>160.14</ele><time>2026-08-14T00:18:11Z</time></trkpt><trkpt lat="59.3536200933" lon="34.6996624209"><ele>160.33</ele><time>2026-08-14T00:18:19Z</time></trkpt><trkpt lat="59.3536469154" lon="34.6995375305"><ele>160.25</ele><time>2026-08-14T00:18:23Z</time></trkpt><trkpt lat="59.3537059240" lon="34.6992434934"><ele>160.21</ele><time>2026-08-14T00:18:31Z</time></trkpt><trkpt lat="59.3538292218" lon="34.6988767851"><ele>159.77</ele><time>2026-08-14T00:18:44Z</time></trkpt><trkpt lat="59.3539210036" lon="34.6987452731"><ele>159.62</ele><time>2026-08-14T00:18:55Z</time></trkpt><trkpt lat="59.3539236020" lon="34.6987572592"><ele>159.60</ele><time>2026-08-14T00:19:17Z</time></trkpt><trkpt lat="59.3539242726" lon="34.6987991687"><ele>160.08</ele><time>2026-08-14T00:19:33Z</time></trkpt><trkpt lat="59.3539351691" lon="34.6988198720"><ele>160.55</ele><time>2026-08-14T00:20:01Z</time></trkpt><trkpt lat="59.3539590575" lon="34.6988305170"><ele>161.24</ele><time>2026-08-14T00:20:21Z</time></trkpt><trkpt lat="59.3539441377" lon="34.6988400724"><ele>161.85</ele><time>2026-08-14T00:20:52Z</time></trkpt><trkpt lat="59.3539331574" lon="34.6988211293"><ele>162.48</ele><time>2026-08-14T00:21:12Z</time></trkpt><trkpt lat="59.3539393600" lon="34.6988130827"><ele>162.75</ele><time>2026-08-14T00:21:44Z</time></trkpt><trkpt lat="59.3539598957" lon="34.6987947263"><ele>164.25</ele><time>2026-08-14T00:22:15Z</time></trkpt><trkpt lat="59.3539347500" lon="34.6988084726"><ele>164.22</ele><time>2026-08-14T00:22:43Z</time></trkpt><trkpt lat="59.3539215066" lon="34.6987889428"><ele>163.16</ele><time>2026-08-14T00:23:08Z</time></trkpt><trkpt lat="59.3539456464" lon="34.6987917088"><ele>162.98</ele><time>2026-08-14T00:23:36Z</time></trkpt><trkpt lat="59.3539641704" lon="34.6987953968"><ele>162.63</ele><time>2026-08-14T00:24:04Z</time></trkpt><trkpt lat="59.3539296370" lon="34.6987886075"><ele>161.94</ele><time>2026-08-14T00:24:33Z</time></trkpt><trkpt lat="59.3539300561" lon="34.6987682395"><ele>161.19</ele><time>2026-08-14T00:25:08Z</time></trkpt><trkpt lat="59.3539394438" lon="34.6987641323"><ele>161.15</ele><time>2026-08-14T00:25:38Z</time></trkpt><trkpt lat="59.3539366778" lon="34.6987881046"><ele>161.25</ele><time>2026-08-14T00:25:59Z</time></trkpt><trkpt lat="59.3539413717" lon="34.6987176966"><ele>161.36</ele><time>2026-08-14T00:26:23Z</time></trkpt><trkpt lat="59.3539479934" lon="34.6985150222"><ele>161.28</ele><time>2026-08-14T00:26:36Z</time></trkpt><trkpt lat="59.3539717142" lon="34.6982077416"><ele>160.78</ele><time>2026-08-14T00:26:53Z</time></trkpt><trkpt lat="59.3540561199" lon="34.6979567036"><ele>161.24</ele><time>2026-08-14T00:27:08Z</time></trkpt><trkpt lat="59.3540663458" lon="34.6979820170"><ele>162.79</ele><time>2026-08-14T00:27:28Z</time></trkpt><trkpt lat="59.3542994466" lon="34.6979639120"><ele>162.51</ele><time>2026-08-14T00:28:05Z</time></trkpt><trkpt lat="59.3544193916" lon="34.6979800053"><ele>161.63</ele><time>2026-08-14T00:28:25Z</time></trkpt><trkpt lat="59.3545063119" lon="34.6979687735"><ele>162.27</ele><time>2026-08-14T00:28:42Z</time></trkpt><trkpt lat="59.3546081521" lon="34.6979644150"><ele>162.02</ele><time>2026-08-14T00:28:57Z</time></trkpt><trkpt lat="59.3546213116" lon="34.6977821086"><ele>160.29</ele><time>2026-08-14T00:29:19Z</time></trkpt><trkpt lat="59.3546445295" lon="34.6978530195"><ele>160.88</ele><time>2026-08-14T00:29:26Z</time></trkpt><trkpt lat="59.3546566833" lon="34.6979346592"><ele>161.60</ele><time>2026-08-14T00:29:30Z</time></trkpt><trkpt lat="59.3547610380" lon="34.6980541013"><ele>160.84</ele><time>2026-08-14T00:29:46Z</time></trkpt><trkpt lat="59.3548327871" lon="34.6981261019"><ele>159.35</ele><time>2026-08-14T00:29:57Z</time></trkpt><trkpt lat="59.3549409974" lon="34.6982253436"><ele>158.40</ele><time>2026-08-14T00:30:11Z</time></trkpt><trkpt lat="59.3550482858" lon="34.6982911415"><ele>158.79</ele><time>2026-08-14T00:30:22Z</time></trkpt><trkpt lat="59.3551812228" lon="34.6984134335"><ele>158.71</ele><time>2026-08-14T00:30:37Z</time></trkpt><trkpt lat="59.3553122319" lon="34.6984784771"><ele>158.03</ele><time>2026-08-14T00:30:51Z</time></trkpt><trkpt lat="59.3554075342" lon="34.6985337976"><ele>157.97</ele><time>2026-08-14T00:31:05Z</time></trkpt><trkpt lat="59.3554472644" lon="34.6986249927"><ele>162.22</ele><time>2026-08-14T00:31:25Z</time></trkpt><trkpt lat="59.3555603363" lon="34.6986685786"><ele>161.84</ele><time>2026-08-14T00:31:39Z</time></trkpt><trkpt lat="59.3557128869" lon="34.6986842528"><ele>163.28</ele><time>2026-08-14T00:31:53Z</time></trkpt><trkpt lat="59.3558718916" lon="34.6987251565"><ele>166.61</ele><time>2026-08-14T00:32:07Z</time></trkpt><trkpt lat="59.3559935130" lon="34.6988229733"><ele>169.87</ele><time>2026-08-14T00:32:29Z</time></trkpt><trkpt lat="59.3560240231" lon="34.6988347080"><ele>170.54</ele><time>2026-08-14T00:32:51Z</time></trkpt><trkpt lat="59.3560329080" lon="34.6986940596"><ele>170.61</ele><time>2026-08-14T00:33:23Z</time></trkpt><trkpt lat="59.3559585605" lon="34.6986858454"><ele>170.83</ele><time>2026-08-14T00:33:54Z</time></trkpt><trkpt lat="59.3559647631" lon="34.6986975800"><ele>172.20</ele><time>2026-08-14T00:34:22Z</time></trkpt><trkpt lat="59.3559553754" lon="34.6987005975"><ele>174.45</ele><time>2026-08-14T00:35:04Z</time></trkpt><trkpt lat="59.3560144678" lon="34.6987241507"><ele>175.02</ele><time>2026-08-14T00:35:35Z</time></trkpt><trkpt lat="59.3559899926" lon="34.6987499669"><ele>175.52</ele><time>2026-08-14T00:36:10Z</time></trkpt><trkpt lat="59.3560027331" lon="34.6987001784"><ele>175.93</ele><time>2026-08-14T00:36:39Z</time></trkpt><trkpt lat="59.3560395297" lon="34.6987533197"><ele>174.86</ele><time>2026-08-14T00:37:19Z</time></trkpt><trkpt lat="59.3560616579" lon="34.6986731049"><ele>174.43</ele><time>2026-08-14T00:37:40Z</time></trkpt><trkpt lat="59.3560464028" lon="34.6985265892"><ele>173.09</ele><time>2026-08-14T00:38:01Z</time></trkpt><trkpt lat="59.3560087681" lon="34.6983609628"><ele>172.15</ele><time>2026-08-14T00:38:33Z</time></trkpt><trkpt lat="59.3560723867" lon="34.6982122678"><ele>171.78</ele><time>2026-08-14T00:38:51Z</time></trkpt><trkpt lat="59.3560787570" lon="34.6979590505"><ele>171.23</ele><time>2026-08-14T00:39:21Z</time></trkpt><trkpt lat="59.3560759071" lon="34.6979325637"><ele>171.12</ele><time>2026-08-14T00:39:29Z</time></trkpt><trkpt lat="59.3561122008" lon="34.6977075096"><ele>170.06</ele><time>2026-08-14T00:39:58Z</time></trkpt><trkpt lat="59.3561243545" lon="34.6974997222"><ele>168.95</ele><time>2026-08-14T00:40:17Z</time></trkpt><trkpt lat="59.3561273720" lon="34.6974777617"><ele>167.17</ele><time>2026-08-14T00:40:55Z</time></trkpt><trkpt lat="59.3561517633" lon="34.6973940264"><ele>162.61</ele><time>2026-08-14T00:41:28Z</time></trkpt><trkpt lat="59.3562344089" lon="34.6974141430"><ele>160.95</ele><time>2026-08-14T00:41:50Z</time></trkpt><trkpt lat="59.3561493326" lon="34.6974853892"><ele>158.36</ele><time>2026-08-14T00:42:14Z</time></trkpt><trkpt lat="59.3561634142" lon="34.6975089423"><ele>153.10</ele><time>2026-08-14T00:42:43Z</time></trkpt><trkpt lat="59.3560911622" lon="34.6975842956"><ele>146.25</ele><time>2026-08-14T00:43:26Z</time></trkpt><trkpt lat="59.3561023939" lon="34.6975642629"><ele>144.82</ele><time>2026-08-14T00:43:54Z</time></trkpt><trkpt lat="59.3560328241" lon="34.6975298133"><ele>145.54</ele><time>2026-08-14T00:44:19Z</time></trkpt><trkpt lat="59.3560495041" lon="34.6973707248"><ele>146.08</ele><time>2026-08-14T00:44:36Z</time></trkpt><trkpt lat="59.3560952693" lon="34.6972185094"><ele>148.60</ele><time>2026-08-14T00:45:00Z</time></trkpt><trkpt lat="59.3561636657" lon="34.6971346904"><ele>149.67</ele><time>2026-08-14T00:45:21Z</time></trkpt><trkpt lat="59.3562695291" lon="34.6969903540"><ele>150.69</ele><time>2026-08-14T00:45:42Z</time></trkpt><trkpt lat="59.3562758993" lon="34.6969165932"><ele>152.37</ele><time>2026-08-14T00:46:02Z</time></trkpt><trkpt lat="59.3563227542" lon="34.6968414914"><ele>159.97</ele><time>2026-08-14T00:46:31Z</time></trkpt><trkpt lat="59.3563033082" lon="34.6967374720"><ele>162.32</ele><time>2026-08-14T00:47:02Z</time></trkpt><trkpt lat="59.3562963512" lon="34.6966172755"><ele>161.98</ele><time>2026-08-14T00:47:19Z</time></trkpt><trkpt lat="59.3562939204" lon="34.6965850051"><ele>161.96</ele><time>2026-08-14T00:47:23Z</time></trkpt><trkpt lat="59.3562717084" lon="34.6965268347"><ele>162.73</ele><time>2026-08-14T00:47:47Z</time></trkpt><trkpt lat="59.3563157972" lon="34.6964746993"><ele>163.13</ele><time>2026-08-14T00:48:16Z</time></trkpt><trkpt lat="59.3562956806" lon="34.6964482125"><ele>166.01</ele><time>2026-08-14T00:48:45Z</time></trkpt><trkpt lat="59.3563269451" lon="34.6963742003"><ele>166.85</ele><time>2026-08-14T00:49:15Z</time></trkpt><trkpt lat="59.3562810961" lon="34.6964555886"><ele>165.56</ele><time>2026-08-14T00:49:41Z</time></trkpt><trkpt lat="59.3562732171" lon="34.6964402497"><ele>164.83</ele><time>2026-08-14T00:50:13Z</time></trkpt><trkpt lat="59.3562769052" lon="34.6964049619"><ele>164.49</ele><time>2026-08-14T00:50:43Z</time></trkpt><trkpt lat="59.3563470617" lon="34.6964154392"><ele>164.72</ele><time>2026-08-14T00:51:09Z</time></trkpt><trkpt lat="59.3563416973" lon="34.6964599472"><ele>164.56</ele><time>2026-08-14T00:51:34Z</time></trkpt><trkpt lat="59.3563594669" lon="34.6962964162"><ele>164.11</ele><time>2026-08-14T00:51:58Z</time></trkpt><trkpt lat="59.3563559465" lon="34.6961012855"><ele>164.35</ele><time>2026-08-14T00:52:19Z</time></trkpt><trkpt lat="59.3563260231" lon="34.6959525906"><ele>163.53</ele><time>2026-08-14T00:52:33Z</time></trkpt><trkpt lat="59.3563357461" lon="34.6957739722"><ele>162.21</ele><time>2026-08-14T00:52:56Z</time></trkpt><trkpt lat="59.3564377539" lon="34.6956355870"><ele>163.01</ele><time>2026-08-14T00:53:17Z</time></trkpt><trkpt lat="59.3564292043" lon="34.6954968665"><ele>162.36</ele><time>2026-08-14T00:53:36Z</time></trkpt><trkpt lat="59.3564285338" lon="34.6953981277"><ele>164.10</ele><time>2026-08-14T00:53:59Z</time></trkpt><trkpt lat="59.3564309645" lon="34.6954407077"><ele>164.34</ele><time>2026-08-14T00:54:24Z</time></trkpt><trkpt lat="59.3565346487" lon="34.6954304818"><ele>163.75</ele><time>2026-08-14T00:54:53Z</time></trkpt><trkpt lat="59.3565428630" lon="34.6954051685"><ele>165.62</ele><time>2026-08-14T00:55:17Z</time></trkpt><trkpt lat="59.3565141130" lon="34.6954080183"><ele>165.98</ele><time>2026-08-14T00:55:42Z</time></trkpt><trkpt lat="59.3564765621" lon="34.6954275481"><ele>163.83</ele><time>2026-08-14T00:56:12Z</time></trkpt><trkpt lat="59.3564852793" lon="34.6954443958"><ele>165.89</ele><time>2026-08-14T00:56:41Z</time></trkpt><trkpt lat="59.3565030489" lon="34.6953632589"><ele>165.89</ele><time>2026-08-14T00:56:57Z</time></trkpt><trkpt lat="59.3565125205" lon="34.6953166556"><ele>165.44</ele><time>2026-08-14T00:57:23Z</time></trkpt><trkpt lat="59.3565299548" lon="34.6951439045"><ele>165.02</ele><time>2026-08-14T00:57:42Z</time></trkpt><trkpt lat="59.3565626442" lon="34.6950031724"><ele>164.95</ele><time>2026-08-14T00:57:59Z</time></trkpt><trkpt lat="59.3566263467" lon="34.6949118096"><ele>164.20</ele><time>2026-08-14T00:58:11Z</time></trkpt><trkpt lat="59.3566734530" lon="34.6948140766"><ele>164.86</ele><time>2026-08-14T00:58:30Z</time></trkpt><trkpt lat="59.3566443678" lon="34.6947024297"><ele>164.42</ele><time>2026-08-14T00:58:46Z</time></trkpt><trkpt lat="59.3565870356" lon="34.6945629548"><ele>163.82</ele><time>2026-08-14T00:59:03Z</time></trkpt><trkpt lat="59.3565981835" lon="34.6944888588"><ele>162.99</ele><time>2026-08-14T00:59:28Z</time></trkpt><trkpt lat="59.3566107564" lon="34.6945136692"><ele>162.30</ele><time>2026-08-14T00:59:45Z</time></trkpt><trkpt lat="59.3566210661" lon="34.6945087239"><ele>160.06</ele><time>2026-08-14T01:00:15Z</time></trkpt><trkpt lat="59.3566209823" lon="34.6945136692"><ele>160.66</ele><time>2026-08-14T01:00:43Z</time></trkpt><trkpt lat="59.3565884605" lon="34.6944886073"><ele>163.92</ele><time>2026-08-14T01:01:15Z</time></trkpt><trkpt lat="59.3565780669" lon="34.6944977436"><ele>163.77</ele><time>2026-08-14T01:01:44Z</time></trkpt><trkpt lat="59.3565945793" lon="34.6945258230"><ele>163.87</ele><time>2026-08-14T01:02:14Z</time></trkpt><trkpt lat="59.3566224072" lon="34.6943188738"><ele>163.84</ele><time>2026-08-14T01:02:42Z</time></trkpt><trkpt lat="59.3567387480" lon="34.6942306124"><ele>163.18</ele><time>2026-08-14T01:03:01Z</time></trkpt><trkpt lat="59.3567467947" lon="34.6941039618"><ele>162.57</ele><time>2026-08-14T01:03:21Z</time></trkpt><trkpt lat="59.3567752093" lon="34.6939675882"><ele>162.62</ele><time>2026-08-14T01:03:44Z</time></trkpt><trkpt lat="59.3567769695" lon="34.6938789915"><ele>161.72</ele><time>2026-08-14T01:04:05Z</time></trkpt><trkpt lat="59.3567813281" lon="34.6937671769"><ele>161.46</ele><time>2026-08-14T01:04:20Z</time></trkpt><trkpt lat="59.3568200525" lon="34.6937209927"><ele>161.68</ele><time>2026-08-14T01:04:47Z</time></trkpt><trkpt lat="59.3568590283" lon="34.6937719546"><ele>161.92</ele><time>2026-08-14T01:05:17Z</time></trkpt><trkpt lat="59.3568650633" lon="34.6937844437"><ele>161.97</ele><time>2026-08-14T01:05:19Z</time></trkpt><trkpt lat="59.3568285182" lon="34.6937548555"><ele>161.95</ele><time>2026-08-14T01:05:50Z</time></trkpt><trkpt lat="59.3568359781" lon="34.6937477309"><ele>162.44</ele><time>2026-08-14T01:06:20Z</time></trkpt><trkpt lat="59.3568543345" lon="34.6937567834"><ele>164.05</ele><time>2026-08-14T01:06:50Z</time></trkpt><trkpt lat="59.3568606209" lon="34.6937059052"><ele>163.92</ele><time>2026-08-14T01:07:20Z</time></trkpt><trkpt lat="59.3568705115" lon="34.6935997903"><ele>163.88</ele><time>2026-08-14T01:07:34Z</time></trkpt><trkpt lat="59.3569109961" lon="34.6933929250"><ele>163.78</ele><time>2026-08-14T01:08:02Z</time></trkpt><trkpt lat="59.3569105770" lon="34.6933448128"><ele>163.91</ele><time>2026-08-14T01:08:17Z</time></trkpt><trkpt lat="59.3568617944" lon="34.6931951959"><ele>164.39</ele><time>2026-08-14T01:08:37Z</time></trkpt><trkpt lat="59.3568630517" lon="34.6930813696"><ele>164.09</ele><time>2026-08-14T01:08:54Z</time></trkpt><trkpt lat="59.3568823300" lon="34.6929330938"><ele>164.60</ele><time>2026-08-14T01:09:16Z</time></trkpt><trkpt lat="59.3568737805" lon="34.6928750910"><ele>164.67</ele><time>2026-08-14T01:09:29Z</time></trkpt><trkpt lat="59.3568362296" lon="34.6927476022"><ele>164.88</ele><time>2026-08-14T01:09:55Z</time></trkpt><trkpt lat="59.3568679970" lon="34.6928194351"><ele>166.24</ele><time>2026-08-14T01:10:25Z</time></trkpt><trkpt lat="59.3568586092" lon="34.6927289944"><ele>165.84</ele><time>2026-08-14T01:10:59Z</time></trkpt><trkpt lat="59.3568872754" lon="34.6927131526"><ele>165.44</ele><time>2026-08-14T01:11:36Z</time></trkpt><trkpt lat="59.3570255768" lon="34.6927520446"><ele>164.54</ele><time>2026-08-14T01:12:04Z</time></trkpt><trkpt lat="59.3568797316" lon="34.6927676350"><ele>164.38</ele><time>2026-08-14T01:12:36Z</time></trkpt><trkpt lat="59.3568701763" lon="34.6928552259"><ele>162.72</ele><time>2026-08-14T01:13:01Z</time></trkpt><trkpt lat="59.3568897061" lon="34.6927325148"><ele>163.95</ele><time>2026-08-14T01:13:33Z</time></trkpt><trkpt lat="59.3569080625" lon="34.6925861668"><ele>164.66</ele><time>2026-08-14T01:13:51Z</time></trkpt><trkpt lat="59.3569727708" lon="34.6924535651"><ele>164.84</ele><time>2026-08-14T01:14:11Z</time></trkpt><trkpt lat="59.3570280913" lon="34.6924220491"><ele>165.24</ele><time>2026-08-14T01:14:26Z</time></trkpt><trkpt lat="59.3570846692" lon="34.6923272498"><ele>166.38</ele><time>2026-08-14T01:14:47Z</time></trkpt><trkpt lat="59.3571310211" lon="34.6922401618"><ele>165.77</ele><time>2026-08-14T01:15:10Z</time></trkpt><trkpt lat="59.3571373913" lon="34.6922191232"><ele>164.72</ele><time>2026-08-14T01:15:50Z</time></trkpt><trkpt lat="59.3571207114" lon="34.6922131721"><ele>165.43</ele><time>2026-08-14T01:16:15Z</time></trkpt><trkpt lat="59.3571602739" lon="34.6921619587"><ele>165.36</ele><time>2026-08-14T01:16:51Z</time></trkpt><trkpt lat="59.3570769578" lon="34.6921828296"><ele>165.89</ele><time>2026-08-14T01:17:16Z</time></trkpt><trkpt lat="59.3571299314" lon="34.6922347974"><ele>166.66</ele><time>2026-08-14T01:17:46Z</time></trkpt><trkpt lat="59.3571988307" lon="34.6921464521"><ele>168.73</ele><time>2026-08-14T01:18:21Z</time></trkpt><trkpt lat="59.3570888601" lon="34.6920168679"><ele>169.34</ele><time>2026-08-14T01:18:45Z</time></trkpt><trkpt lat="59.3571444321" lon="34.6918321308"><ele>169.37</ele><time>2026-08-14T01:19:06Z</time></trkpt><trkpt lat="59.3572568335" lon="34.6915811766"><ele>169.46</ele><time>2026-08-14T01:19:31Z</time></trkpt><trkpt lat="59.3572493736" lon="34.6914582141"><ele>170.25</ele><time>2026-08-14T01:19:52Z</time></trkpt><trkpt lat="59.3572161812" lon="34.6912980359"><ele>170.74</ele><time>2026-08-14T01:20:16Z</time></trkpt><trkpt lat="59.3572003394" lon="34.6913222596"><ele>170.51</ele><time>2026-08-14T01:20:42Z</time></trkpt><trkpt lat="59.3572442606" lon="34.6912708785"><ele>170.85</ele><time>2026-08-14T01:21:11Z</time></trkpt><trkpt lat="59.3572641257" lon="34.6913168952"><ele>170.37</ele><time>2026-08-14T01:21:37Z</time></trkpt><trkpt lat="59.3571706675" lon="34.6912830323"><ele>170.95</ele><time>2026-08-14T01:22:03Z</time></trkpt><trkpt lat="59.3572901934" lon="34.6912887320"><ele>172.10</ele><time>2026-08-14T01:22:50Z</time></trkpt><trkpt lat="59.3573053647" lon="34.6913221758"><ele>173.53</ele><time>2026-08-14T01:23:24Z</time></trkpt><trkpt lat="59.3571979087" lon="34.6913961880"><ele>172.75</ele><time>2026-08-14T01:23:51Z</time></trkpt><trkpt lat="59.3573072925" lon="34.6914221719"><ele>171.93</ele><time>2026-08-14T01:24:26Z</time></trkpt><trkpt lat="59.3573084660" lon="34.6913088486"><ele>172.47</ele><time>2026-08-14T01:24:50Z</time></trkpt><trkpt lat="59.3572902773" lon="34.6911459882"><ele>173.00</ele><time>2026-08-14T01:25:09Z</time></trkpt><trkpt lat="59.3572268263" lon="34.6909543779"><ele>174.01</ele><time>2026-08-14T01:25:29Z</time></trkpt><trkpt lat="59.3571981601" lon="34.6905473527"><ele>173.18</ele><time>2026-08-14T01:26:08Z</time></trkpt><trkpt lat="59.3571869284" lon="34.6904053632"><ele>172.70</ele><time>2026-08-14T01:26:33Z</time></trkpt><trkpt lat="59.3570871837" lon="34.6903111506"><ele>175.20</ele><time>2026-08-14T01:27:00Z</time></trkpt><trkpt lat="59.3571905326" lon="34.6903118212"><ele>175.15</ele><time>2026-08-14T01:27:25Z</time></trkpt><trkpt lat="59.3571979925" lon="34.6902905311"><ele>175.14</ele><time>2026-08-14T01:27:27Z</time></trkpt><trkpt lat="59.3572498765" lon="34.6902388148"><ele>175.34</ele><time>2026-08-14T01:27:44Z</time></trkpt><trkpt lat="59.3572570011" lon="34.6902515553"><ele>175.27</ele><time>2026-08-14T01:27:51Z</time></trkpt><trkpt lat="59.3573259842" lon="34.6902208775"><ele>175.96</ele><time>2026-08-14T01:28:16Z</time></trkpt><trkpt lat="59.3573743477" lon="34.6902017668"><ele>176.15</ele><time>2026-08-14T01:28:33Z</time></trkpt><trkpt lat="59.3573882617" lon="34.6901843324"><ele>175.93</ele><time>2026-08-14T01:28:41Z</time></trkpt><trkpt lat="59.3573623616" lon="34.6901316941"><ele>175.85</ele><time>2026-08-14T01:29:25Z</time></trkpt><trkpt lat="59.3573899381" lon="34.6901729330"><ele>176.32</ele><time>2026-08-14T01:29:52Z</time></trkpt><trkpt lat="59.3573548179" lon="34.6901484579"><ele>176.42</ele><time>2026-08-14T01:30:20Z</time></trkpt><trkpt lat="59.3573291693" lon="34.6901444346"><ele>177.21</ele><time>2026-08-14T01:31:27Z</time></trkpt><trkpt lat="59.3573552370" lon="34.6901654731"><ele>176.61</ele><time>2026-08-14T01:32:04Z</time></trkpt><trkpt lat="59.3573181052" lon="34.6900752001"><ele>176.08</ele><time>2026-08-14T01:32:23Z</time></trkpt><trkpt lat="59.3573453464" lon="34.6899337973"><ele>175.61</ele><time>2026-08-14T01:32:42Z</time></trkpt><trkpt lat="59.3573959731" lon="34.6898589469"><ele>175.92</ele><time>2026-08-14T01:32:59Z</time></trkpt><trkpt lat="59.3575014174" lon="34.6895421110"><ele>174.77</ele><time>2026-08-14T01:33:49Z</time></trkpt><trkpt lat="59.3574600108" lon="34.6894820966"><ele>175.60</ele><time>2026-08-14T01:34:14Z</time></trkpt><trkpt lat="59.3575365376" lon="34.6895468049"><ele>176.17</ele><time>2026-08-14T01:34:49Z</time></trkpt><trkpt lat="59.3575369567" lon="34.6894471440"><ele>176.21</ele><time>2026-08-14T01:35:21Z</time></trkpt><trkpt lat="59.3575242162" lon="34.6894308832"><ele>177.04</ele><time>2026-08-14T01:35:58Z</time></trkpt><trkpt lat="59.3575057760" lon="34.6893994510"><ele>177.24</ele><time>2026-08-14T01:36:29Z</time></trkpt><trkpt lat="59.3575336039" lon="34.6895195637"><ele>178.30</ele><time>2026-08-14T01:37:03Z</time></trkpt><trkpt lat="59.3576039281" lon="34.6894794982"><ele>178.84</ele><time>2026-08-14T01:37:22Z</time></trkpt><trkpt lat="59.3576685525" lon="34.6895064879"><ele>180.15</ele><time>2026-08-14T01:37:52Z</time></trkpt><trkpt lat="59.3576394673" lon="34.6894992795"><ele>180.38</ele><time>2026-08-14T01:38:12Z</time></trkpt><trkpt lat="59.3575220369" lon="34.6895759739"><ele>180.38</ele><time>2026-08-14T01:38:30Z</time></trkpt><trkpt lat="59.3574681412" lon="34.6895622276"><ele>181.36</ele><time>2026-08-14T01:38:48Z</time></trkpt><trkpt lat="59.3574563228" lon="34.6895305440"><ele>181.80</ele><time>2026-08-14T01:39:03Z</time></trkpt><trkpt lat="59.3574296683" lon="34.6893998701"><ele>181.92</ele><time>2026-08-14T01:39:26Z</time></trkpt><trkpt lat="59.3574622739" lon="34.6892801765"><ele>181.85</ele><time>2026-08-14T01:39:37Z</time></trkpt><trkpt lat="59.3574632797" lon="34.6892016381"><ele>181.85</ele><time>2026-08-14T01:39:45Z</time></trkpt><trkpt lat="59.3574868329" lon="34.6891449764"><ele>182.14</ele><time>2026-08-14T01:40:03Z</time></trkpt><trkpt lat="59.3575188518" lon="34.6889400389"><ele>182.41</ele><time>2026-08-14T01:40:33Z</time></trkpt><trkpt lat="59.3575330172" lon="34.6888247039"><ele>182.85</ele><time>2026-08-14T01:40:52Z</time></trkpt><trkpt lat="59.3575938698" lon="34.6887303237"><ele>182.95</ele><time>2026-08-14T01:41:10Z</time></trkpt><trkpt lat="59.3576201890" lon="34.6885209437"><ele>182.85</ele><time>2026-08-14T01:41:21Z</time></trkpt><trkpt lat="59.3575880025" lon="34.6883828100"><ele>183.08</ele><time>2026-08-14T01:41:36Z</time></trkpt><trkpt lat="59.3575649522" lon="34.6883096360"><ele>183.45</ele><time>2026-08-14T01:42:07Z</time></trkpt><trkpt lat="59.3574885093" lon="34.6882154234"><ele>184.15</ele><time>2026-08-14T01:42:45Z</time></trkpt><trkpt lat="59.3575627729" lon="34.6883079596"><ele>184.68</ele><time>2026-08-14T01:43:17Z</time></trkpt><trkpt lat="59.3575975578" lon="34.6882921178"><ele>185.63</ele><time>2026-08-14T01:44:01Z</time></trkpt><trkpt lat="59.3575699814" lon="34.6883505397"><ele>186.30</ele><time>2026-08-14T01:44:31Z</time></trkpt><trkpt lat="59.3575939536" lon="34.6883030143"><ele>186.52</ele><time>2026-08-14T01:44:55Z</time></trkpt><trkpt lat="59.3575451709" lon="34.6882285830"><ele>185.99</ele><time>2026-08-14T01:45:35Z</time></trkpt><trkpt lat="59.3575756811" lon="34.6881540678"><ele>187.03</ele><time>2026-08-14T01:46:08Z</time></trkpt><trkpt lat="59.3575567380" lon="34.6880318597"><ele>187.05</ele><time>2026-08-14T01:46:32Z</time></trkpt><trkpt lat="59.3575595878" lon="34.6880328655"><ele>187.24</ele><time>2026-08-14T01:46:38Z</time></trkpt><trkpt lat="59.3574625254" lon="34.6880855039"><ele>187.15</ele><time>2026-08-14T01:47:02Z</time></trkpt><trkpt lat="59.3575014174" lon="34.6881169360"><ele>187.66</ele><time>2026-08-14T01:47:16Z</time></trkpt><trkpt lat="59.3575625215" lon="34.6880874317"><ele>188.65</ele><time>2026-08-14T01:47:40Z</time></trkpt><trkpt lat="59.3575558998" lon="34.6881106496"><ele>187.88</ele><time>2026-08-14T01:48:08Z</time></trkpt><trkpt lat="59.3575834762" lon="34.6880259924"><ele>187.78</ele><time>2026-08-14T01:48:35Z</time></trkpt><trkpt lat="59.3576014973" lon="34.6878232341"><ele>187.98</ele><time>2026-08-14T01:49:05Z</time></trkpt><trkpt lat="59.3576692231" lon="34.6876418497"><ele>187.76</ele><time>2026-08-14T01:49:38Z</time></trkpt><trkpt lat="59.3577197660" lon="34.6876031253"><ele>188.14</ele><time>2026-08-14T01:49:55Z</time></trkpt><trkpt lat="59.3577308301" lon="34.6874520835"><ele>188.68</ele><time>2026-08-14T01:50:15Z</time></trkpt><trkpt lat="59.3577525392" lon="34.6872346569"><ele>188.06</ele><time>2026-08-14T01:50:52Z</time></trkpt><trkpt lat="59.3577397149" lon="34.6872422006"><ele>188.51</ele><time>2026-08-14T01:51:35Z</time></trkpt><trkpt lat="59.3577547185" lon="34.6872367524"><ele>189.03</ele><time>2026-08-14T01:52:22Z</time></trkpt><trkpt lat="59.3577546347" lon="34.6872608922"><ele>191.58</ele><time>2026-08-14T01:53:22Z</time></trkpt><trkpt lat="59.3576949555" lon="34.6871261951"><ele>184.71</ele><time>2026-08-14T01:54:02Z</time></trkpt><trkpt lat="59.3576960452" lon="34.6871152986"><ele>182.27</ele><time>2026-08-14T01:54:30Z</time></trkpt><trkpt lat="59.3577240407" lon="34.6872042306"><ele>182.78</ele><time>2026-08-14T01:55:00Z</time></trkpt><trkpt lat="59.3577743322" lon="34.6871704515"><ele>182.81</ele><time>2026-08-14T01:55:16Z</time></trkpt><trkpt lat="59.3578072730" lon="34.6870341618"><ele>182.50</ele><time>2026-08-14T01:55:35Z</time></trkpt><trkpt lat="59.3578823749" lon="34.6868055034"><ele>182.32</ele><time>2026-08-14T01:56:00Z</time></trkpt><trkpt lat="59.3578864820" lon="34.6866708063"><ele>181.50</ele><time>2026-08-14T01:56:33Z</time></trkpt><trkpt lat="59.3579576444" lon="34.6865904238"><ele>181.43</ele><time>2026-08-14T01:56:54Z</time></trkpt><trkpt lat="59.3580024038" lon="34.6864846442"><ele>182.01</ele><time>2026-08-14T01:57:17Z</time></trkpt><trkpt lat="59.3580507673" lon="34.6864147391"><ele>182.15</ele><time>2026-08-14T01:57:48Z</time></trkpt><trkpt lat="59.3581060041" lon="34.6864043456"><ele>181.07</ele><time>2026-08-14T01:58:16Z</time></trkpt><trkpt lat="59.3581935950" lon="34.6863046009"><ele>181.06</ele><time>2026-08-14T01:58:42Z</time></trkpt><trkpt lat="59.3581710476" lon="34.6862679720"><ele>182.44</ele><time>2026-08-14T01:59:14Z</time></trkpt><trkpt lat="59.3581080157" lon="34.6862571593"><ele>181.32</ele><time>2026-08-14T01:59:44Z</time></trkpt><trkpt lat="59.3581527751" lon="34.6862491965"><ele>178.87</ele><time>2026-08-14T02:00:10Z</time></trkpt><trkpt lat="59.3581186607" lon="34.6862700675"><ele>178.37</ele><time>2026-08-14T02:00:38Z</time></trkpt><trkpt lat="59.3580762483" lon="34.6863258071"><ele>177.31</ele><time>2026-08-14T02:01:25Z</time></trkpt><trkpt lat="59.3579979613" lon="34.6862169262"><ele>174.75</ele><time>2026-08-14T02:01:54Z</time></trkpt><trkpt lat="59.3579693791" lon="34.6862162556"><ele>172.64</ele><time>2026-08-14T02:02:22Z</time></trkpt><trkpt lat="59.3580151442" lon="34.6861626953"><ele>172.52</ele><time>2026-08-14T02:02:50Z</time></trkpt><trkpt lat="59.3580819480" lon="34.6861611027"><ele>172.24</ele><time>2026-08-14T02:03:09Z</time></trkpt><trkpt lat="59.3581253663" lon="34.6861277428"><ele>171.93</ele><time>2026-08-14T02:03:33Z</time></trkpt><trkpt lat="59.3581554573" lon="34.6860335302"><ele>172.84</ele><time>2026-08-14T02:03:51Z</time></trkpt><trkpt lat="59.3581532780" lon="34.6859393176"><ele>173.53</ele><time>2026-08-14T02:04:11Z</time></trkpt><trkpt lat="59.3581505958" lon="34.6858069673"><ele>174.02</ele><time>2026-08-14T02:04:44Z</time></trkpt><trkpt lat="59.3581909128" lon="34.6857228130"><ele>174.05</ele><time>2026-08-14T02:05:02Z</time></trkpt><trkpt lat="59.3582021445" lon="34.6856500581"><ele>174.19</ele><time>2026-08-14T02:05:14Z</time></trkpt><trkpt lat="59.3583104387" lon="34.6855419315"><ele>174.69</ele><time>2026-08-14T02:05:40Z</time></trkpt><trkpt lat="59.3583531864" lon="34.6854887903"><ele>174.27</ele><time>2026-08-14T02:05:59Z</time></trkpt><trkpt lat="59.3584213313" lon="34.6854826715"><ele>173.94</ele><time>2026-08-14T02:06:24Z</time></trkpt><trkpt lat="59.3584055733" lon="34.6854819171"><ele>173.29</ele><time>2026-08-14T02:06:45Z</time></trkpt><trkpt lat="59.3584271148" lon="34.6853694320"><ele>173.67</ele><time>2026-08-14T02:07:06Z</time></trkpt><trkpt lat="59.3584078364" lon="34.6852580365"><ele>173.06</ele><time>2026-08-14T02:07:26Z</time></trkpt><trkpt lat="59.3584139552" lon="34.6852239221"><ele>173.27</ele><time>2026-08-14T02:07:48Z</time></trkpt><trkpt lat="59.3583734706" lon="34.6851156279"><ele>173.44</ele><time>2026-08-14T02:08:05Z</time></trkpt><trkpt lat="59.3583279569" lon="34.6850472316"><ele>173.67</ele><time>2026-08-14T02:08:25Z</time></trkpt><trkpt lat="59.3583223410" lon="34.6850556973"><ele>174.01</ele><time>2026-08-14T02:08:49Z</time></trkpt><trkpt lat="59.3583051581" lon="34.6850821003"><ele>173.99</ele><time>2026-08-14T02:08:54Z</time></trkpt><trkpt lat="59.3581982888" lon="34.6851871256"><ele>173.11</ele><time>2026-08-14T02:09:07Z</time></trkpt><trkpt lat="59.3581445608" lon="34.6851858683"><ele>172.20</ele><time>2026-08-14T02:09:26Z</time></trkpt><trkpt lat="59.3581175711" lon="34.6851102635"><ele>170.58</ele><time>2026-08-14T02:09:54Z</time></trkpt><trkpt lat="59.3581189960" lon="34.6850670967"><ele>170.96</ele><time>2026-08-14T02:10:23Z</time></trkpt><trkpt lat="59.3581567146" lon="34.6850781608"><ele>171.84</ele><time>2026-08-14T02:10:52Z</time></trkpt><trkpt lat="59.3581424654" lon="34.6850562003"><ele>172.83</ele><time>2026-08-14T02:11:03Z</time></trkpt><trkpt lat="59.3581292219" lon="34.6849403623"><ele>175.26</ele><time>2026-08-14T02:11:33Z</time></trkpt><trkpt lat="59.3580904137" lon="34.6849964373"><ele>175.12</ele><time>2026-08-14T02:11:59Z</time></trkpt><trkpt lat="59.3581282161" lon="34.6850596368"><ele>174.55</ele><time>2026-08-14T02:12:28Z</time></trkpt><trkpt lat="59.3581451476" lon="34.6849822719"><ele>175.56</ele><time>2026-08-14T02:12:51Z</time></trkpt><trkpt lat="59.3581306469" lon="34.6848469879"><ele>176.07</ele><time>2026-08-14T02:13:11Z</time></trkpt><trkpt lat="59.3581237737" lon="34.6847716346"><ele>176.38</ele><time>2026-08-14T02:13:20Z</time></trkpt><trkpt lat="59.3581516016" lon="34.6847540326"><ele>177.71</ele><time>2026-08-14T02:13:49Z</time></trkpt><trkpt lat="59.3581812736" lon="34.6846347582"><ele>179.21</ele><time>2026-08-14T02:14:18Z</time></trkpt><trkpt lat="59.3581465725" lon="34.6845158190"><ele>180.01</ele><time>2026-08-14T02:14:42Z</time></trkpt><trkpt lat="59.3581241928" lon="34.6844397113"><ele>181.22</ele><time>2026-08-14T02:15:05Z</time></trkpt><trkpt lat="59.3581531942" lon="34.6843514498"><ele>181.85</ele><time>2026-08-14T02:15:35Z</time></trkpt><trkpt lat="59.3582127057" lon="34.6843250468"><ele>182.24</ele><time>2026-08-14T02:15:55Z</time></trkpt><trkpt lat="59.3582998775" lon="34.6843354404"><ele>182.17</ele><time>2026-08-14T02:16:18Z</time></trkpt><trkpt lat="59.3583401944" lon="34.6842892561"><ele>181.18</ele><time>2026-08-14T02:16:46Z</time></trkpt><trkpt lat="59.3583232630" lon="34.6842295770"><ele>180.06</ele><time>2026-08-14T02:17:13Z</time></trkpt><trkpt lat="59.3583095167" lon="34.6842375398"><ele>180.66</ele><time>2026-08-14T02:17:43Z</time></trkpt><trkpt lat="59.3582407851" lon="34.6841659583"><ele>179.71</ele><time>2026-08-14T02:18:15Z</time></trkpt><trkpt lat="59.3582753185" lon="34.6842539683"><ele>180.00</ele><time>2026-08-14T02:18:41Z</time></trkpt><trkpt lat="59.3583119474" lon="34.6842146572"><ele>180.59</ele><time>2026-08-14T02:19:13Z</time></trkpt><trkpt lat="59.3583226763" lon="34.6841538884"><ele>180.94</ele><time>2026-08-14T02:19:44Z</time></trkpt><trkpt lat="59.3583299685" lon="34.6840917785"><ele>181.31</ele><time>2026-08-14T02:20:04Z</time></trkpt><trkpt lat="59.3583744764" lon="34.6839320194"><ele>181.88</ele><time>2026-08-14T02:20:26Z</time></trkpt><trkpt lat="59.3583796732" lon="34.6838513855"><ele>182.44</ele><time>2026-08-14T02:20:45Z</time></trkpt><trkpt lat="59.3583941739" lon="34.6837175265"><ele>182.13</ele><time>2026-08-14T02:21:09Z</time></trkpt><trkpt lat="59.3583797570" lon="34.6835969947"><ele>181.99</ele><time>2026-08-14T02:21:31Z</time></trkpt><trkpt lat="59.3583902344" lon="34.6834864374"><ele>182.48</ele><time>2026-08-14T02:21:51Z</time></trkpt><trkpt lat="59.3584262766" lon="34.6834659018"><ele>182.61</ele><time>2026-08-14T02:22:09Z</time></trkpt><trkpt lat="59.3584966008" lon="34.6833914705"><ele>184.29</ele><time>2026-08-14T02:22:32Z</time></trkpt><trkpt lat="59.3584325630" lon="34.6832694300"><ele>185.74</ele><time>2026-08-14T02:22:56Z</time></trkpt><trkpt lat="59.3584001251" lon="34.6831608005"><ele>186.41</ele><time>2026-08-14T02:23:22Z</time></trkpt><trkpt lat="59.3584466446" lon="34.6832006145"><ele>186.59</ele><time>2026-08-14T02:23:48Z</time></trkpt><trkpt lat="59.3584872130" lon="34.6830777358"><ele>187.89</ele><time>2026-08-14T02:24:22Z</time></trkpt><trkpt lat="59.3584827706" lon="34.6832590364"><ele>187.04</ele><time>2026-08-14T02:24:53Z</time></trkpt><trkpt lat="59.3584880512" lon="34.6832731180"><ele>187.06</ele><time>2026-08-14T02:25:12Z</time></trkpt><trkpt lat="59.3584221695" lon="34.6831692662"><ele>188.02</ele><time>2026-08-14T02:25:43Z</time></trkpt><trkpt lat="59.3584280368" lon="34.6830667555"><ele>189.03</ele><time>2026-08-14T02:26:04Z</time></trkpt><trkpt lat="59.3584817648" lon="34.6829437930"><ele>188.94</ele><time>2026-08-14T02:26:24Z</time></trkpt><trkpt lat="59.3584950920" lon="34.6826220118"><ele>188.49</ele><time>2026-08-14T02:26:43Z</time></trkpt><trkpt lat="59.3585025519" lon="34.6824380290"><ele>188.19</ele><time>2026-08-14T02:27:00Z</time></trkpt><trkpt lat="59.3584761489" lon="34.6823547967"><ele>188.21</ele><time>2026-08-14T02:27:14Z</time></trkpt><trkpt lat="59.3584598042" lon="34.6821622644"><ele>188.50</ele><time>2026-08-14T02:27:33Z</time></trkpt><trkpt lat="59.3584299646" lon="34.6820185985"><ele>188.45</ele><time>2026-08-14T02:28:00Z</time></trkpt><trkpt lat="59.3583900668" lon="34.6820885036"><ele>192.41</ele><time>2026-08-14T02:28:29Z</time></trkpt><trkpt lat="59.3583914917" lon="34.6820479352"><ele>192.63</ele><time>2026-08-14T02:28:57Z</time></trkpt><trkpt lat="59.3584576249" lon="34.6821029205"><ele>195.22</ele><time>2026-08-14T02:29:40Z</time></trkpt><trkpt lat="59.3584644981" lon="34.6821155772"><ele>196.21</ele><time>2026-08-14T02:30:10Z</time></trkpt><trkpt lat="59.3584521767" lon="34.6820437443"><ele>197.38</ele><time>2026-08-14T02:30:24Z</time></trkpt><trkpt lat="59.3585026357" lon="34.6818745974"><ele>197.82</ele><time>2026-08-14T02:30:43Z</time></trkpt><trkpt lat="59.3585603870" lon="34.6818355378"><ele>197.52</ele><time>2026-08-14T02:31:02Z</time></trkpt><trkpt lat="59.3586537614" lon="34.6817700751"><ele>197.27</ele><time>2026-08-14T02:31:21Z</time></trkpt><trkpt lat="59.3586789910" lon="34.6817383077"><ele>196.98</ele><time>2026-08-14T02:31:31Z</time></trkpt><trkpt lat="59.3588044681" lon="34.6816057060"><ele>196.88</ele><time>2026-08-14T02:31:54Z</time></trkpt><trkpt lat="59.3588783126" lon="34.6816034429"><ele>196.38</ele><time>2026-08-14T02:32:09Z</time></trkpt><trkpt lat="59.3589040451" lon="34.6816249844"><ele>195.24</ele><time>2026-08-14T02:32:36Z</time></trkpt><trkpt lat="59.3588963337" lon="34.6815995872"><ele>196.13</ele><time>2026-08-14T02:33:04Z</time></trkpt><trkpt lat="59.3589027878" lon="34.6817599330"><ele>191.50</ele><time>2026-08-14T02:33:34Z</time></trkpt><trkpt lat="59.3589142710" lon="34.6817617770"><ele>189.96</ele><time>2026-08-14T02:34:03Z</time></trkpt><trkpt lat="59.3589400034" lon="34.6817298420"><ele>188.13</ele><time>2026-08-14T02:34:31Z</time></trkpt><trkpt lat="59.3589184619" lon="34.6816518903"><ele>188.18</ele><time>2026-08-14T02:34:58Z</time></trkpt><trkpt lat="59.3588727806" lon="34.6816813108"><ele>188.68</ele><time>2026-08-14T02:35:26Z</time></trkpt><trkpt lat="59.3588822521" lon="34.6817700751"><ele>188.10</ele><time>2026-08-14T02:35:58Z</time></trkpt><trkpt lat="59.3589287717" lon="34.6818371303"><ele>188.02</ele><time>2026-08-14T02:36:13Z</time></trkpt><trkpt lat="59.3590595294" lon="34.6821851470"><ele>188.50</ele><time>2026-08-14T02:36:43Z</time></trkpt><trkpt lat="59.3591043726" lon="34.6823264658"><ele>188.01</ele><time>2026-08-14T02:37:03Z</time></trkpt><trkpt lat="59.3591441866" lon="34.6825518552"><ele>188.07</ele><time>2026-08-14T02:37:24Z</time></trkpt><trkpt lat="59.3592140917" lon="34.6826846246"><ele>186.71</ele><time>2026-08-14T02:37:41Z</time></trkpt><trkpt lat="59.3592347112" lon="34.6827722993"><ele>186.60</ele><time>2026-08-14T02:38:00Z</time></trkpt><trkpt lat="59.3592237309" lon="34.6828272007"><ele>187.41</ele><time>2026-08-14T02:38:38Z</time></trkpt><trkpt lat="59.3592021894" lon="34.6829011291"><ele>187.56</ele><time>2026-08-14T02:39:06Z</time></trkpt><trkpt lat="59.3592293467" lon="34.6828706190"><ele>187.90</ele><time>2026-08-14T02:39:42Z</time></trkpt><trkpt lat="59.3592365552" lon="34.6828289609"><ele>187.89</ele><time>2026-08-14T02:40:11Z</time></trkpt><trkpt lat="59.3592083082" lon="34.6828571241"><ele>186.96</ele><time>2026-08-14T02:40:40Z</time></trkpt><trkpt lat="59.3591923825" lon="34.6829490736"><ele>187.50</ele><time>2026-08-14T02:41:07Z</time></trkpt><trkpt lat="59.3591370620" lon="34.6830362454"><ele>187.06</ele><time>2026-08-14T02:41:28Z</time></trkpt><trkpt lat="59.3591114972" lon="34.6832176298"><ele>186.37</ele><time>2026-08-14T02:41:48Z</time></trkpt><trkpt lat="59.3590472918" lon="34.6834374033"><ele>184.19</ele><time>2026-08-14T02:42:06Z</time></trkpt><trkpt lat="59.3590259179" lon="34.6835947316"><ele>183.51</ele><time>2026-08-14T02:42:27Z</time></trkpt><trkpt lat="59.3589804880" lon="34.6837011818"><ele>183.60</ele><time>2026-08-14T02:42:46Z</time></trkpt><trkpt lat="59.3588993512" lon="34.6838304307"><ele>183.65</ele><time>2026-08-14T02:43:09Z</time></trkpt><trkpt lat="59.3588998541" lon="34.6838549059"><ele>184.63</ele><time>2026-08-14T02:43:31Z</time></trkpt><trkpt lat="59.3588732835" lon="34.6838879306"><ele>186.01</ele><time>2026-08-14T02:44:03Z</time></trkpt><trkpt lat="59.3589064758" lon="34.6838580910"><ele>186.05</ele><time>2026-08-14T02:44:34Z</time></trkpt><trkpt lat="59.3589234073" lon="34.6838014293"><ele>185.41</ele><time>2026-08-14T02:45:04Z</time></trkpt><trkpt lat="59.3589383271" lon="34.6837917902"><ele>185.91</ele><time>2026-08-14T02:45:37Z</time></trkpt><trkpt lat="59.3589227367" lon="34.6837935504"><ele>186.65</ele><time>2026-08-14T02:45:42Z</time></trkpt><trkpt lat="59.3588392530" lon="34.6838211268"><ele>187.64</ele><time>2026-08-14T02:45:57Z</time></trkpt><trkpt lat="59.3588188849" lon="34.6838145051"><ele>187.35</ele><time>2026-08-14T02:46:24Z</time></trkpt><trkpt lat="59.3587959185" lon="34.6838024352"><ele>186.69</ele><time>2026-08-14T02:46:45Z</time></trkpt><trkpt lat="59.3587536737" lon="34.6838067099"><ele>187.39</ele><time>2026-08-14T02:47:09Z</time></trkpt><trkpt lat="59.3587230798" lon="34.6838409081"><ele>184.65</ele><time>2026-08-14T02:47:36Z</time></trkpt><trkpt lat="59.3587065674" lon="34.6838070452"><ele>184.26</ele><time>2026-08-14T02:48:02Z</time></trkpt><trkpt lat="59.3587157875" lon="34.6838259883"><ele>182.48</ele><time>2026-08-14T02:48:25Z</time></trkpt><trkpt lat="59.3586957548" lon="34.6837957297"><ele>181.08</ele><time>2026-08-14T02:48:50Z</time></trkpt><trkpt lat="59.3587374128" lon="34.6837359667"><ele>181.30</ele><time>2026-08-14T02:49:11Z</time></trkpt><trkpt lat="59.3587944098" lon="34.6836699173"><ele>178.96</ele><time>2026-08-14T02:49:43Z</time></trkpt><trkpt lat="59.3587887101" lon="34.6836662292"><ele>174.82</ele><time>2026-08-14T02:50:08Z</time></trkpt><trkpt lat="59.3588004448" lon="34.6837104857"><ele>172.92</ele><time>2026-08-14T02:50:41Z</time></trkpt><trkpt lat="59.3587979302" lon="34.6836658102"><ele>173.22</ele><time>2026-08-14T02:51:12Z</time></trkpt><trkpt lat="59.3587840162" lon="34.6836848371"><ele>172.05</ele><time>2026-08-14T02:51:40Z</time></trkpt><trkpt lat="59.3588392530" lon="34.6836118307"><ele>169.65</ele><time>2026-08-14T02:52:06Z</time></trkpt><trkpt lat="59.3588001933" lon="34.6836032812"><ele>169.63</ele><time>2026-08-14T02:52:38Z</time></trkpt><trkpt lat="59.3587504048" lon="34.6836122498"><ele>171.09</ele><time>2026-08-14T02:53:07Z</time></trkpt><trkpt lat="59.3587442022" lon="34.6835907921"><ele>173.29</ele><time>2026-08-14T02:53:34Z</time></trkpt><trkpt lat="59.3587537576" lon="34.6836446039"><ele>175.72</ele><time>2026-08-14T02:53:57Z</time></trkpt><trkpt lat="59.3587825913" lon="34.6837152634"><ele>178.17</ele><time>2026-08-14T02:54:27Z</time></trkpt><trkpt lat="59.3587893806" lon="34.6836855076"><ele>178.24</ele><time>2026-08-14T02:54:53Z</time></trkpt><trkpt lat="59.3587850221" lon="34.6836597752"><ele>178.80</ele><time>2026-08-14T02:55:21Z</time></trkpt><trkpt lat="59.3587792385" lon="34.6837097313"><ele>178.13</ele><time>2026-08-14T02:55:51Z</time></trkpt><trkpt lat="59.3588302843" lon="34.6836458612"><ele>179.84</ele><time>2026-08-14T02:56:18Z</time></trkpt><trkpt lat="59.3588036299" lon="34.6836780477"><ele>181.91</ele><time>2026-08-14T02:56:49Z</time></trkpt><trkpt lat="59.3587966729" lon="34.6837254055"><ele>180.64</ele><time>2026-08-14T02:57:18Z</time></trkpt><trkpt lat="59.3587815017" lon="34.6837191191"><ele>178.89</ele><time>2026-08-14T02:57:51Z</time></trkpt><trkpt lat="59.3587942421" lon="34.6837019362"><ele>179.73</ele><time>2026-08-14T02:58:24Z</time></trkpt><trkpt lat="59.3587647378" lon="34.6837359667"><ele>179.61</ele><time>2026-08-14T02:58:51Z</time></trkpt><trkpt lat="59.3587897997" lon="34.6837109886"><ele>176.04</ele><time>2026-08-14T02:59:24Z</time></trkpt><trkpt lat="59.3587590382" lon="34.6836695820"><ele>177.15</ele><time>2026-08-14T02:59:54Z</time></trkpt><trkpt lat="59.3587497342" lon="34.6835855115"><ele>176.66</ele><time>2026-08-14T03:00:22Z</time></trkpt><trkpt lat="59.3587385863" lon="34.6837233100"><ele>177.11</ele><time>2026-08-14T03:00:46Z</time></trkpt><trkpt lat="59.3587442022" lon="34.6838157624"><ele>177.16</ele><time>2026-08-14T03:01:13Z</time></trkpt><trkpt lat="59.3587276898" lon="34.6838157624"><ele>178.15</ele><time>2026-08-14T03:01:40Z</time></trkpt><trkpt lat="59.3587148655" lon="34.6838139184"><ele>179.20</ele><time>2026-08-14T03:02:03Z</time></trkpt><trkpt lat="59.3587164581" lon="34.6838212106"><ele>180.52</ele><time>2026-08-14T03:02:28Z</time></trkpt><trkpt lat="59.3587273546" lon="34.6838414110"><ele>180.77</ele><time>2026-08-14T03:02:50Z</time></trkpt><trkpt lat="59.3587120157" lon="34.6838332806"><ele>181.33</ele><time>2026-08-14T03:03:13Z</time></trkpt><trkpt lat="59.3587208167" lon="34.6838171873"><ele>182.39</ele><time>2026-08-14T03:03:38Z</time></trkpt><trkpt lat="59.3588150293" lon="34.6837903652"><ele>182.11</ele><time>2026-08-14T03:03:59Z</time></trkpt><trkpt lat="59.3588949926" lon="34.6838271618"><ele>181.34</ele><time>2026-08-14T03:04:14Z</time></trkpt><trkpt lat="59.3589264248" lon="34.6838360466"><ele>180.72</ele><time>2026-08-14T03:04:34Z</time></trkpt><trkpt lat="59.3589037098" lon="34.6839712467"><ele>179.74</ele><time>2026-08-14T03:04:54Z</time></trkpt><trkpt lat="59.3588914722" lon="34.6841453388"><ele>179.72</ele><time>2026-08-14T03:05:09Z</time></trkpt><trkpt lat="59.3588440306" lon="34.6843926050"><ele>178.56</ele><time>2026-08-14T03:05:30Z</time></trkpt><trkpt lat="59.3588527478" lon="34.6844537929"><ele>178.11</ele><time>2026-08-14T03:05:38Z</time></trkpt><trkpt lat="59.3588078208" lon="34.6846491750"><ele>177.30</ele><time>2026-08-14T03:06:00Z</time></trkpt><trkpt lat="59.3587956671" lon="34.6848444734"><ele>177.44</ele><time>2026-08-14T03:06:17Z</time></trkpt><trkpt lat="59.3587741256" lon="34.6849977784"><ele>177.39</ele><time>2026-08-14T03:06:44Z</time></trkpt><trkpt lat="59.3587692641" lon="34.6850636601"><ele>177.46</ele><time>2026-08-14T03:07:10Z</time></trkpt><trkpt lat="59.3588088267" lon="34.6849970240"><ele>176.68</ele><time>2026-08-14T03:07:37Z</time></trkpt><trkpt lat="59.3587911408" lon="34.6850754786"><ele>175.71</ele><time>2026-08-14T03:08:04Z</time></trkpt><trkpt lat="59.3588179629" lon="34.6850271989"><ele>175.80</ele><time>2026-08-14T03:08:34Z</time></trkpt><trkpt lat="59.3587879557" lon="34.6851724572"><ele>177.49</ele><time>2026-08-14T03:09:02Z</time></trkpt><trkpt lat="59.3587643187" lon="34.6851849463"><ele>177.59</ele><time>2026-08-14T03:09:32Z</time></trkpt><trkpt lat="59.3587290309" lon="34.6852851100"><ele>176.57</ele><time>2026-08-14T03:09:47Z</time></trkpt><trkpt lat="59.3587400950" lon="34.6854370739"><ele>175.98</ele><time>2026-08-14T03:10:05Z</time></trkpt><trkpt lat="59.3587170448" lon="34.6856384911"><ele>175.57</ele><time>2026-08-14T03:10:28Z</time></trkpt><trkpt lat="59.3586753029" lon="34.6858529840"><ele>173.84</ele><time>2026-08-14T03:10:47Z</time></trkpt><trkpt lat="59.3586993590" lon="34.6859111544"><ele>172.79</ele><time>2026-08-14T03:11:09Z</time></trkpt><trkpt lat="59.3586556055" lon="34.6860652138"><ele>171.43</ele><time>2026-08-14T03:11:28Z</time></trkpt><trkpt lat="59.3585948367" lon="34.6860999987"><ele>170.53</ele><time>2026-08-14T03:11:45Z</time></trkpt><trkpt lat="59.3585446291" lon="34.6861935407"><ele>170.90</ele><time>2026-08-14T03:12:07Z</time></trkpt><trkpt lat="59.3585187290" lon="34.6862646192"><ele>170.76</ele><time>2026-08-14T03:12:16Z</time></trkpt><trkpt lat="59.3584486563" lon="34.6863492765"><ele>173.70</ele><time>2026-08-14T03:12:41Z</time></trkpt><trkpt lat="59.3584359158" lon="34.6863485221"><ele>174.47</ele><time>2026-08-14T03:13:07Z</time></trkpt><trkpt lat="59.3584216665" lon="34.6863785293"><ele>176.42</ele><time>2026-08-14T03:13:37Z</time></trkpt><trkpt lat="59.3584059086" lon="34.6863987297"><ele>179.18</ele><time>2026-08-14T03:14:04Z</time></trkpt><trkpt lat="59.3584022205" lon="34.6864408068"><ele>179.40</ele><time>2026-08-14T03:14:33Z</time></trkpt><trkpt lat="59.3583725486" lon="34.6864204388"><ele>179.52</ele><time>2026-08-14T03:15:01Z</time></trkpt><trkpt lat="59.3584137037" lon="34.6863162518"><ele>184.68</ele><time>2026-08-14T03:15:30Z</time></trkpt><trkpt lat="59.3584039807" lon="34.6864250489"><ele>184.07</ele><time>2026-08-14T03:15:56Z</time></trkpt><trkpt lat="59.3584119435" lon="34.6865675412"><ele>183.55</ele><time>2026-08-14T03:16:14Z</time></trkpt><trkpt lat="59.3584158830" lon="34.6865817904"><ele>183.58</ele><time>2026-08-14T03:16:17Z</time></trkpt><trkpt lat="59.3584034778" lon="34.6867482550"><ele>182.58</ele><time>2026-08-14T03:16:38Z</time></trkpt><trkpt lat="59.3583846185" lon="34.6871020552"><ele>181.55</ele><time>2026-08-14T03:17:03Z</time></trkpt><trkpt lat="59.3583527673" lon="34.6873643249"><ele>180.17</ele><time>2026-08-14T03:17:18Z</time></trkpt><trkpt lat="59.3583176471" lon="34.6875049733"><ele>179.18</ele><time>2026-08-14T03:17:42Z</time></trkpt><trkpt lat="59.3583365064" lon="34.6875473857"><ele>179.72</ele><time>2026-08-14T03:18:09Z</time></trkpt><trkpt lat="59.3582689483" lon="34.6876096632"><ele>179.79</ele><time>2026-08-14T03:18:33Z</time></trkpt><trkpt lat="59.3582959380" lon="34.6875000279"><ele>178.97</ele><time>2026-08-14T03:19:01Z</time></trkpt><trkpt lat="59.3582805153" lon="34.6875141095"><ele>178.44</ele><time>2026-08-14T03:19:30Z</time></trkpt><trkpt lat="59.3582852092" lon="34.6875420213"><ele>178.92</ele><time>2026-08-14T03:19:54Z</time></trkpt><trkpt lat="59.3583168928" lon="34.6876205597"><ele>178.23</ele><time>2026-08-14T03:20:13Z</time></trkpt><trkpt lat="59.3582824431" lon="34.6877530776"><ele>177.06</ele><time>2026-08-14T03:20:36Z</time></trkpt><trkpt lat="59.3582065031" lon="34.6878881101"><ele>176.63</ele><time>2026-08-14T03:20:56Z</time></trkpt><trkpt lat="59.3581951875" lon="34.6879131719"><ele>176.47</ele><time>2026-08-14T03:21:01Z</time></trkpt><trkpt lat="59.3581536133" lon="34.6881607734"><ele>175.92</ele><time>2026-08-14T03:21:25Z</time></trkpt><trkpt lat="59.3580902461" lon="34.6883813012"><ele>175.60</ele><time>2026-08-14T03:21:42Z</time></trkpt><trkpt lat="59.3580516055" lon="34.6885252185"><ele>175.44</ele><time>2026-08-14T03:21:59Z</time></trkpt><trkpt lat="59.3579990510" lon="34.6885087900"><ele>174.58</ele><time>2026-08-14T03:22:20Z</time></trkpt><trkpt lat="59.3579523638" lon="34.6886040922"><ele>173.87</ele><time>2026-08-14T03:22:46Z</time></trkpt><trkpt lat="59.3579237815" lon="34.6885204408"><ele>174.32</ele><time>2026-08-14T03:23:11Z</time></trkpt><trkpt lat="59.3579227757" lon="34.6885519568"><ele>174.51</ele><time>2026-08-14T03:23:33Z</time></trkpt><trkpt lat="59.3579335045" lon="34.6886095405"><ele>174.04</ele><time>2026-08-14T03:23:46Z</time></trkpt><trkpt lat="59.3579891603" lon="34.6885973867"><ele>172.66</ele><time>2026-08-14T03:24:21Z</time></trkpt><trkpt lat="59.3580174074" lon="34.6887465008"><ele>172.99</ele><time>2026-08-14T03:24:44Z</time></trkpt><trkpt lat="59.3579993863" lon="34.6888965368"><ele>172.21</ele><time>2026-08-14T03:25:01Z</time></trkpt><trkpt lat="59.3579817843" lon="34.6888706367"><ele>172.11</ele><time>2026-08-14T03:25:33Z</time></trkpt><trkpt lat="59.3579914235" lon="34.6889333334"><ele>172.12</ele><time>2026-08-14T03:25:56Z</time></trkpt><trkpt lat="59.3580379430" lon="34.6892294660"><ele>170.46</ele><time>2026-08-14T03:26:15Z</time></trkpt><trkpt lat="59.3580611609" lon="34.6894125268"><ele>166.95</ele><time>2026-08-14T03:26:29Z</time></trkpt><trkpt lat="59.3580519408" lon="34.6895001177"><ele>165.30</ele><time>2026-08-14T03:26:48Z</time></trkpt><trkpt lat="59.3581145536" lon="34.6894857008"><ele>165.46</ele><time>2026-08-14T03:27:13Z</time></trkpt><trkpt lat="59.3581193313" lon="34.6894837730"><ele>165.81</ele><time>2026-08-14T03:27:28Z</time></trkpt><trkpt lat="59.3580760807" lon="34.6895031352"><ele>166.17</ele><time>2026-08-14T03:27:56Z</time></trkpt><trkpt lat="59.3580760807" lon="34.6894266922"><ele>166.16</ele><time>2026-08-14T03:28:42Z</time></trkpt><trkpt lat="59.3580663577" lon="34.6896302048"><ele>167.21</ele><time>2026-08-14T03:29:13Z</time></trkpt><trkpt lat="59.3580269627" lon="34.6897591185"><ele>166.38</ele><time>2026-08-14T03:29:29Z</time></trkpt><trkpt lat="59.3579671998" lon="34.6899604518"><ele>168.00</ele><time>2026-08-14T03:29:53Z</time></trkpt><trkpt lat="59.3579537049" lon="34.6900608670"><ele>168.67</ele><time>2026-08-14T03:30:11Z</time></trkpt><trkpt lat="59.3578998093" lon="34.6901532356"><ele>169.18</ele><time>2026-08-14T03:30:33Z</time></trkpt><trkpt lat="59.3578400463" lon="34.6900992561"><ele>172.67</ele><time>2026-08-14T03:31:03Z</time></trkpt><trkpt lat="59.3578620069" lon="34.6901290119"><ele>173.74</ele><time>2026-08-14T03:31:28Z</time></trkpt><trkpt lat="59.3578309938" lon="34.6901783813"><ele>174.90</ele><time>2026-08-14T03:31:57Z</time></trkpt><trkpt lat="59.3578316644" lon="34.6901649702"><ele>175.13</ele><time>2026-08-14T03:32:21Z</time></trkpt><trkpt lat="59.3577998132" lon="34.6902064607"><ele>175.00</ele><time>2026-08-14T03:32:45Z</time></trkpt><trkpt lat="59.3577807862" lon="34.6902291756"><ele>176.24</ele><time>2026-08-14T03:33:09Z</time></trkpt><trkpt lat="59.3578062672" lon="34.6902095620"><ele>178.27</ele><time>2026-08-14T03:33:37Z</time></trkpt><trkpt lat="59.3578117155" lon="34.6901606116"><ele>178.36</ele><time>2026-08-14T03:34:04Z</time></trkpt><trkpt lat="59.3578113802" lon="34.6901143435"><ele>179.59</ele><time>2026-08-14T03:34:33Z</time></trkpt><trkpt lat="59.3578095362" lon="34.6902332827"><ele>178.72</ele><time>2026-08-14T03:35:06Z</time></trkpt><trkpt lat="59.3577890005" lon="34.6903801337"><ele>177.33</ele><time>2026-08-14T03:35:37Z</time></trkpt><trkpt lat="59.3578033336" lon="34.6904407348"><ele>176.51</ele><time>2026-08-14T03:36:02Z</time></trkpt><trkpt lat="59.3578361068" lon="34.6905677207"><ele>175.95</ele><time>2026-08-14T03:36:24Z</time></trkpt><trkpt lat="59.3577853963" lon="34.6907475125"><ele>175.44</ele><time>2026-08-14T03:36:50Z</time></trkpt><trkpt lat="59.3577947002" lon="34.6908275597"><ele>175.26</ele><time>2026-08-14T03:36:56Z</time></trkpt><trkpt lat="59.3578029145" lon="34.6910923440"><ele>174.14</ele><time>2026-08-14T03:37:15Z</time></trkpt><trkpt lat="59.3578327540" lon="34.6912416257"><ele>172.31</ele><time>2026-08-14T03:37:28Z</time></trkpt><trkpt lat="59.3578665331" lon="34.6914297156"><ele>169.59</ele><time>2026-08-14T03:37:50Z</time></trkpt><trkpt lat="59.3578150682" lon="34.6914443001"><ele>168.88</ele><time>2026-08-14T03:38:20Z</time></trkpt><trkpt lat="59.3577949516" lon="34.6913737245"><ele>169.22</ele><time>2026-08-14T03:38:52Z</time></trkpt><trkpt lat="59.3577827141" lon="34.6914810129"><ele>169.00</ele><time>2026-08-14T03:39:19Z</time></trkpt><trkpt lat="59.3578073569" lon="34.6915489901"><ele>168.37</ele><time>2026-08-14T03:39:45Z</time></trkpt><trkpt lat="59.3578267191" lon="34.6915392671"><ele>171.48</ele><time>2026-08-14T03:40:14Z</time></trkpt><trkpt lat="59.3578489311" lon="34.6915109362"><ele>172.31</ele><time>2026-08-14T03:40:37Z</time></trkpt><trkpt lat="59.3577974662" lon="34.6916560270"><ele>172.25</ele><time>2026-08-14T03:41:01Z</time></trkpt><trkpt lat="59.3576978892" lon="34.6917890478"><ele>171.70</ele><time>2026-08-14T03:41:24Z</time></trkpt><trkpt lat="59.3577231187" lon="34.6919299476"><ele>171.91</ele><time>2026-08-14T03:41:49Z</time></trkpt><trkpt lat="59.3576137349" lon="34.6920540836"><ele>171.86</ele><time>2026-08-14T03:42:18Z</time></trkpt><trkpt lat="59.3575481884" lon="34.6921894513"><ele>171.44</ele><time>2026-08-14T03:42:37Z</time></trkpt><trkpt lat="59.3575636111" lon="34.6922981646"><ele>171.65</ele><time>2026-08-14T03:43:05Z</time></trkpt><trkpt lat="59.3575180136" lon="34.6924366336"><ele>171.66</ele><time>2026-08-14T03:43:29Z</time></trkpt><trkpt lat="59.3575541396" lon="34.6924143378"><ele>174.08</ele><time>2026-08-14T03:43:56Z</time></trkpt><trkpt lat="59.3574969750" lon="34.6924549062"><ele>171.78</ele><time>2026-08-14T03:44:27Z</time></trkpt><trkpt lat="59.3574689794" lon="34.6925569978"><ele>169.38</ele><time>2026-08-14T03:44:57Z</time></trkpt><trkpt lat="59.3575220369" lon="34.6924773697"><ele>172.47</ele><time>2026-08-14T03:45:27Z</time></trkpt><trkpt lat="59.3575237133" lon="34.6923802234"><ele>172.36</ele><time>2026-08-14T03:45:51Z</time></trkpt><trkpt lat="59.3575869966" lon="34.6924349573"><ele>172.18</ele><time>2026-08-14T03:46:22Z</time></trkpt><trkpt lat="59.3575804587" lon="34.6924492065"><ele>172.18</ele><time>2026-08-14T03:46:32Z</time></trkpt><trkpt lat="59.3575049378" lon="34.6925707441"><ele>171.98</ele><time>2026-08-14T03:46:54Z</time></trkpt><trkpt lat="59.3574802112" lon="34.6925212070"><ele>171.60</ele><time>2026-08-14T03:47:12Z</time></trkpt><trkpt lat="59.3574346136" lon="34.6925657988"><ele>171.63</ele><time>2026-08-14T03:47:28Z</time></trkpt><trkpt lat="59.3574228790" lon="34.6927293297"><ele>171.91</ele><time>2026-08-14T03:47:48Z</time></trkpt><trkpt lat="59.3573758565" lon="34.6929356921"><ele>171.00</ele><time>2026-08-14T03:48:10Z</time></trkpt><trkpt lat="59.3573706597" lon="34.6929393802"><ele>170.93</ele><time>2026-08-14T03:48:11Z</time></trkpt><trkpt lat="59.3573417421" lon="34.6930234507"><ele>170.24</ele><time>2026-08-14T03:48:31Z</time></trkpt><trkpt lat="59.3572608568" lon="34.6933694556"><ele>169.59</ele><time>2026-08-14T03:48:54Z</time></trkpt><trkpt lat="59.3572238088" lon="34.6935156360"><ele>168.84</ele><time>2026-08-14T03:49:14Z</time></trkpt><trkpt lat="59.3571591843" lon="34.6937058214"><ele>168.01</ele><time>2026-08-14T03:49:33Z</time></trkpt><trkpt lat="59.3571526464" lon="34.6937781572"><ele>166.62</ele><time>2026-08-14T03:49:57Z</time></trkpt><trkpt lat="59.3571471982" lon="34.6936623193"><ele>167.63</ele><time>2026-08-14T03:50:26Z</time></trkpt><trkpt lat="59.3571423367" lon="34.6936119441"><ele>166.25</ele><time>2026-08-14T03:50:52Z</time></trkpt><trkpt lat="59.3571635429" lon="34.6936633252"><ele>166.12</ele><time>2026-08-14T03:51:15Z</time></trkpt><trkpt lat="59.3571595196" lon="34.6937708650"><ele>168.11</ele><time>2026-08-14T03:51:50Z</time></trkpt><trkpt lat="59.3572115712" lon="34.6936312225"><ele>168.12</ele><time>2026-08-14T03:52:20Z</time></trkpt><trkpt lat="59.3571712542" lon="34.6936584637"><ele>167.47</ele><time>2026-08-14T03:52:46Z</time></trkpt><trkpt lat="59.3571704999" lon="34.6937649976"><ele>168.13</ele><time>2026-08-14T03:53:13Z</time></trkpt><trkpt lat="59.3571922090" lon="34.6940550953"><ele>167.56</ele><time>2026-08-14T03:53:37Z</time></trkpt><trkpt lat="59.3571956456" lon="34.6942666546"><ele>166.49</ele><time>2026-08-14T03:53:57Z</time></trkpt><trkpt lat="59.3571406603" lon="34.6946928743"><ele>166.03</ele><time>2026-08-14T03:54:25Z</time></trkpt><trkpt lat="59.3571612798" lon="34.6948430780"><ele>165.60</ele><time>2026-08-14T03:54:39Z</time></trkpt><trkpt lat="59.3570954818" lon="34.6949268132"><ele>166.03</ele><time>2026-08-14T03:55:04Z</time></trkpt><trkpt lat="59.3570976611" lon="34.6949973889"><ele>167.45</ele><time>2026-08-14T03:55:26Z</time></trkpt><trkpt lat="59.3570694979" lon="34.6949997358"><ele>166.46</ele><time>2026-08-14T03:55:54Z</time></trkpt><trkpt lat="59.3570785504" lon="34.6950191818"><ele>165.06</ele><time>2026-08-14T03:56:19Z</time></trkpt><trkpt lat="59.3570992537" lon="34.6950075310"><ele>163.92</ele><time>2026-08-14T03:56:47Z</time></trkpt><trkpt lat="59.3570575118" lon="34.6950317547"><ele>163.07</ele><time>2026-08-14T03:57:17Z</time></trkpt><trkpt lat="59.3570280913" lon="34.6951190103"><ele>161.99</ele><time>2026-08-14T03:57:40Z</time></trkpt><trkpt lat="59.3570313603" lon="34.6952165756"><ele>162.16</ele><time>2026-08-14T03:58:03Z</time></trkpt><trkpt lat="59.3570737727" lon="34.6952827927"><ele>161.18</ele><time>2026-08-14T03:58:23Z</time></trkpt><trkpt lat="59.3570918776" lon="34.6953520272"><ele>161.02</ele><time>2026-08-14T03:58:34Z</time></trkpt><trkpt lat="59.3570460286" lon="34.6954680327"><ele>161.03</ele><time>2026-08-14T03:58:47Z</time></trkpt><trkpt lat="59.3570197932" lon="34.6956230141"><ele>162.08</ele><time>2026-08-14T03:59:06Z</time></trkpt><trkpt lat="59.3570104055" lon="34.6958312206"><ele>162.90</ele><time>2026-08-14T03:59:28Z</time></trkpt><trkpt lat="59.3570019398" lon="34.6960906405"><ele>163.32</ele><time>2026-08-14T03:59:50Z</time></trkpt><trkpt lat="59.3569703400" lon="34.6962776408"><ele>163.01</ele><time>2026-08-14T04:00:03Z</time></trkpt><trkpt lat="59.3569557555" lon="34.6963305306"><ele>163.59</ele><time>2026-08-14T04:00:23Z</time></trkpt><trkpt lat="59.3568867724" lon="34.6964830812"><ele>161.29</ele><time>2026-08-14T04:00:48Z</time></trkpt><trkpt lat="59.3568727747" lon="34.6965199616"><ele>159.62</ele><time>2026-08-14T04:01:16Z</time></trkpt><trkpt lat="59.3568622135" lon="34.6964761242"><ele>159.23</ele><time>2026-08-14T04:01:40Z</time></trkpt><trkpt lat="59.3568913825" lon="34.6964306105"><ele>160.59</ele><time>2026-08-14T04:02:10Z</time></trkpt><trkpt lat="59.3569134269" lon="34.6963441931"><ele>160.42</ele><time>2026-08-14T04:02:41Z</time></trkpt><trkpt lat="59.3568757083" lon="34.6962447837"><ele>160.58</ele><time>2026-08-14T04:03:11Z</time></trkpt><trkpt lat="59.3568516523" lon="34.6962791495"><ele>162.76</ele><time>2026-08-14T04:03:41Z</time></trkpt><trkpt lat="59.3568500597" lon="34.6964429319"><ele>162.97</ele><time>2026-08-14T04:04:05Z</time></trkpt><trkpt lat="59.3568721041" lon="34.6965953987"><ele>162.76</ele><time>2026-08-14T04:04:29Z</time></trkpt><trkpt lat="59.3568938971" lon="34.6966813970"><ele>162.84</ele><time>2026-08-14T04:04:41Z</time></trkpt><trkpt lat="59.3568649795" lon="34.6969103906"><ele>163.02</ele><time>2026-08-14T04:05:02Z</time></trkpt><trkpt lat="59.3568020314" lon="34.6970421541"><ele>162.05</ele><time>2026-08-14T04:05:23Z</time></trkpt><trkpt lat="59.3567500636" lon="34.6971494425"><ele>161.71</ele><time>2026-08-14T04:05:36Z</time></trkpt><trkpt lat="59.3566388357" lon="34.6973879077"><ele>160.90</ele><time>2026-08-14T04:05:59Z</time></trkpt><trkpt lat="59.3566336390" lon="34.6975696273"><ele>161.61</ele><time>2026-08-14T04:06:24Z</time></trkpt><trkpt lat="59.3565928191" lon="34.6976683661"><ele>162.30</ele><time>2026-08-14T04:06:46Z</time></trkpt><trkpt lat="59.3566122651" lon="34.6976682823"><ele>163.78</ele><time>2026-08-14T04:07:11Z</time></trkpt><trkpt lat="59.3565862812" lon="34.6977319010"><ele>164.78</ele><time>2026-08-14T04:07:36Z</time></trkpt><trkpt lat="59.3565372471" lon="34.6977618244"><ele>165.80</ele><time>2026-08-14T04:07:59Z</time></trkpt><trkpt lat="59.3565697689" lon="34.6977862995"><ele>168.14</ele><time>2026-08-14T04:08:35Z</time></trkpt><trkpt lat="59.3565864488" lon="34.6977196634"><ele>168.88</ele><time>2026-08-14T04:09:06Z</time></trkpt><trkpt lat="59.3565778993" lon="34.6976863872"><ele>168.16</ele><time>2026-08-14T04:09:31Z</time></trkpt><trkpt lat="59.3565571122" lon="34.6978981141"><ele>168.09</ele><time>2026-08-14T04:09:53Z</time></trkpt><trkpt lat="59.3564797472" lon="34.6981560253"><ele>167.02</ele><time>2026-08-14T04:10:14Z</time></trkpt><trkpt lat="59.3564786576" lon="34.6983325481"><ele>166.32</ele><time>2026-08-14T04:10:37Z</time></trkpt><trkpt lat="59.3564695213" lon="34.6985756233"><ele>166.57</ele><time>2026-08-14T04:10:56Z</time></trkpt><trkpt lat="59.3564038910" lon="34.6987894457"><ele>165.69</ele><time>2026-08-14T04:11:14Z</time></trkpt><trkpt lat="59.3563854508" lon="34.6988720912"><ele>165.30</ele><time>2026-08-14T04:11:27Z</time></trkpt><trkpt lat="59.3563621491" lon="34.6991340257"><ele>163.48</ele><time>2026-08-14T04:11:46Z</time></trkpt><trkpt lat="59.3562903162" lon="34.6991399769"><ele>161.08</ele><time>2026-08-14T04:12:11Z</time></trkpt><trkpt lat="59.3562407792" lon="34.6991682239"><ele>161.15</ele><time>2026-08-14T04:12:28Z</time></trkpt><trkpt lat="59.3562077545" lon="34.6992379613"><ele>161.24</ele><time>2026-08-14T04:12:50Z</time></trkpt><trkpt lat="59.3562262785" lon="34.6992159169"><ele>163.20</ele><time>2026-08-14T04:13:21Z</time></trkpt><trkpt lat="59.3562194891" lon="34.6990737598"><ele>161.94</ele><time>2026-08-14T04:13:37Z</time></trkpt><trkpt lat="59.3561337423" lon="34.6990254801"><ele>160.99</ele><time>2026-08-14T04:13:57Z</time></trkpt><trkpt lat="59.3559436407" lon="34.6989378054"><ele>158.81</ele><time>2026-08-14T04:14:15Z</time></trkpt><trkpt lat="59.3557842169" lon="34.6989036072"><ele>156.39</ele><time>2026-08-14T04:14:33Z</time></trkpt><trkpt lat="59.3556493521" lon="34.6988328639"><ele>154.93</ele><time>2026-08-14T04:14:46Z</time></trkpt><trkpt lat="59.3555180915" lon="34.6987041179"><ele>153.76</ele><time>2026-08-14T04:15:02Z</time></trkpt><trkpt lat="59.3552995753" lon="34.6985149384"><ele>154.78</ele><time>2026-08-14T04:15:24Z</time></trkpt><trkpt lat="59.3552062847" lon="34.6984964982"><ele>154.61</ele><time>2026-08-14T04:15:37Z</time></trkpt><trkpt lat="59.3549269158" lon="34.6983275190"><ele>156.13</ele><time>2026-08-14T04:16:02Z</time></trkpt><trkpt lat="59.3547519017" lon="34.6981297061"><ele>158.13</ele><time>2026-08-14T04:16:19Z</time></trkpt><trkpt lat="59.3546021171" lon="34.6979996189"><ele>157.80</ele><time>2026-08-14T04:16:37Z</time></trkpt><trkpt lat="59.3544820882" lon="34.6979895607"><ele>157.55</ele><time>2026-08-14T04:16:51Z</time></trkpt><trkpt lat="59.3543851096" lon="34.6979848668"><ele>157.43</ele><time>2026-08-14T04:17:03Z</time></trkpt><trkpt lat="59.3542667571" lon="34.6979861241"><ele>157.47</ele><time>2026-08-14T04:17:17Z</time></trkpt><trkpt lat="59.3541144580" lon="34.6980302967"><ele>158.52</ele><time>2026-08-14T04:17:34Z</time></trkpt><trkpt lat="59.3540228438" lon="34.6980441269"><ele>158.61</ele><time>2026-08-14T04:17:47Z</time></trkpt><trkpt lat="59.3539914954" lon="34.6983484738"><ele>157.65</ele><time>2026-08-14T04:18:03Z</time></trkpt><trkpt lat="59.3539664336" lon="34.6985921357"><ele>156.32</ele><time>2026-08-14T04:18:18Z</time></trkpt><trkpt lat="59.3539401982" lon="34.6987876855"><ele>155.15</ele><time>2026-08-14T04:18:41Z</time></trkpt><trkpt lat="59.3539414555" lon="34.6988185309"><ele>156.00</ele><time>2026-08-14T04:19:05Z</time></trkpt><trkpt lat="59.3539334089" lon="34.6988228057"><ele>156.83</ele><time>2026-08-14T04:19:30Z</time></trkpt><trkpt lat="59.3539350852" lon="34.6988079697"><ele>157.52</ele><time>2026-08-14T04:19:52Z</time></trkpt><trkpt lat="59.3539364263" lon="34.6987975761"><ele>158.69</ele><time>2026-08-14T04:20:21Z</time></trkpt><trkpt lat="59.3539482448" lon="34.6988073830"><ele>159.82</ele><time>2026-08-14T04:20:49Z</time></trkpt><trkpt lat="59.3539479095" lon="34.6988347918"><ele>159.90</ele><time>2026-08-14T04:21:14Z</time></trkpt><trkpt lat="59.3539379351" lon="34.6988065448"><ele>160.10</ele><time>2026-08-14T04:21:38Z</time></trkpt><trkpt lat="59.3539845385" lon="34.6988072153"><ele>160.23</ele><time>2026-08-14T04:22:07Z</time></trkpt><trkpt lat="59.3539999612" lon="34.6987754479"><ele>160.35</ele><time>2026-08-14T04:22:35Z</time></trkpt><trkpt lat="59.3540005479" lon="34.6988078021"><ele>160.65</ele><time>2026-08-14T04:23:08Z</time></trkpt><trkpt lat="59.3540007994" lon="34.6987819858"><ele>161.59</ele><time>2026-08-14T04:23:37Z</time></trkpt><trkpt lat="59.3539765757" lon="34.6988112386"><ele>162.27</ele><time>2026-08-14T04:24:03Z</time></trkpt><trkpt lat="59.3539596442" lon="34.6988155134"><ele>161.95</ele><time>2026-08-14T04:24:20Z</time></trkpt><trkpt lat="59.3539857958" lon="34.6988380607"><ele>162.01</ele><time>2026-08-14T04:24:44Z</time></trkpt><trkpt lat="59.3539089337" lon="34.6989664715"><ele>162.03</ele><time>2026-08-14T04:24:52Z</time></trkpt><trkpt lat="59.3537692074" lon="34.6992940363"><ele>161.79</ele><time>2026-08-14T04:25:03Z</time></trkpt><trkpt lat="59.3536218535" lon="34.6999796759"><ele>164.14</ele><time>2026-08-14T04:25:19Z</time></trkpt><trkpt lat="59.3535183370" lon="34.7007187922"><ele>162.42</ele><time>2026-08-14T04:25:33Z</time></trkpt><trkpt lat="59.3534585740" lon="34.7015125584"><ele>162.34</ele><time>2026-08-14T04:25:48Z</time></trkpt><trkpt lat="59.3533841427" lon="34.7024659999"><ele>159.11</ele><time>2026-08-14T04:26:05Z</time></trkpt><trkpt lat="59.3533399701" lon="34.7028302774"><ele>156.12</ele><time>2026-08-14T04:26:16Z</time></trkpt><trkpt lat="59.3533589132" lon="34.7031321097"><ele>155.43</ele><time>2026-08-14T04:26:25Z</time></trkpt><trkpt lat="59.3533562310" lon="34.7034235485"><ele>154.38</ele><time>2026-08-14T04:26:33Z</time></trkpt><trkpt lat="59.3533410598" lon="34.7036874946"><ele>153.88</ele><time>2026-08-14T04:26:40Z</time></trkpt><trkpt lat="59.3532904331" lon="34.7042602301"><ele>153.88</ele><time>2026-08-14T04:26:55Z</time></trkpt><trkpt lat="59.3532548100" lon="34.7044425365"><ele>152.68</ele><time>2026-08-14T04:27:02Z</time></trkpt><trkpt lat="59.3531759363" lon="34.7046417743"><ele>152.27</ele><time>2026-08-14T04:27:08Z</time></trkpt><trkpt lat="59.3530768622" lon="34.7047712747"><ele>153.04</ele><time>2026-08-14T04:27:15Z</time></trkpt><trkpt lat="59.3529564142" lon="34.7049757093"><ele>154.07</ele><time>2026-08-14T04:27:23Z</time></trkpt><trkpt lat="59.3527705036" lon="34.7053729277"><ele>154.64</ele><time>2026-08-14T04:27:37Z</time></trkpt><trkpt lat="59.3527740240" lon="34.7053776216"><ele>155.18</ele><time>2026-08-14T04:27:53Z</time></trkpt><trkpt lat="59.3527397420" lon="34.7054472752"><ele>155.41</ele><time>2026-08-14T04:27:57Z</time></trkpt><trkpt lat="59.3525955733" lon="34.7059537936"><ele>155.27</ele><time>2026-08-14T04:28:08Z</time></trkpt><trkpt lat="59.3523326330" lon="34.7068704385"><ele>155.48</ele><time>2026-08-14T04:28:24Z</time></trkpt><trkpt lat="59.3521593791" lon="34.7078215331"><ele>157.80</ele><time>2026-08-14T04:28:37Z</time></trkpt><trkpt lat="59.3519854546" lon="34.7078434099"><ele>158.50</ele><time>2026-08-14T04:28:44Z</time></trkpt><trkpt lat="59.3514676206" lon="34.7076295037"><ele>158.20</ele><time>2026-08-14T04:28:58Z</time></trkpt><trkpt lat="59.3512676284" lon="34.7074201237"><ele>158.31</ele><time>2026-08-14T04:29:04Z</time></trkpt><trkpt lat="59.3512335140" lon="34.7071900405"><ele>158.47</ele><time>2026-08-14T04:29:07Z</time></trkpt><trkpt lat="59.3510978948" lon="34.7058912646"><ele>155.79</ele><time>2026-08-14T04:29:20Z</time></trkpt><trkpt lat="59.3510955479" lon="34.7051646374"><ele>156.13</ele><time>2026-08-14T04:29:26Z</time></trkpt><trkpt lat="59.3510492798" lon="34.7042254452"><ele>158.99</ele><time>2026-08-14T04:29:35Z</time></trkpt><trkpt lat="59.3510441668" lon="34.7025440354"><ele>161.15</ele><time>2026-08-14T04:29:51Z</time></trkpt><trkpt lat="59.3510429095" lon="34.7016366106"><ele>160.96</ele><time>2026-08-14T04:30:00Z</time></trkpt><trkpt lat="59.3510352820" lon="34.7014787793"><ele>160.86</ele><time>2026-08-14T04:30:02Z</time></trkpt><trkpt lat="59.3509414047" lon="34.7009279206"><ele>162.04</ele><time>2026-08-14T04:30:08Z</time></trkpt><trkpt lat="59.3509190250" lon="34.7007388249"><ele>161.81</ele><time>2026-08-14T04:30:10Z</time></trkpt><trkpt lat="59.3506667297" lon="34.6997629199"><ele>160.55</ele><time>2026-08-14T04:30:24Z</time></trkpt><trkpt lat="59.3506361358" lon="34.6996532008"><ele>160.12</ele><time>2026-08-14T04:30:27Z</time></trkpt><trkpt lat="59.3506356329" lon="34.6995908394"><ele>160.33</ele><time>2026-08-14T04:30:29Z</time></trkpt><trkpt lat="59.3506431766" lon="34.6995838825"><ele>158.46</ele><time>2026-08-14T04:30:50Z</time></trkpt><trkpt lat="59.3506239820" lon="34.6995496843"><ele>162.92</ele><time>2026-08-14T04:31:13Z</time></trkpt><trkpt lat="59.3505806476" lon="34.6995175816"><ele>161.58</ele><time>2026-08-14T04:31:30Z</time></trkpt><trkpt lat="59.3505618721" lon="34.6995009016"><ele>158.68</ele><time>2026-08-14T04:31:55Z</time></trkpt><trkpt lat="59.3505604472" lon="34.6994816232"><ele>158.49</ele><time>2026-08-14T04:32:25Z</time></trkpt><trkpt lat="59.3505607825" lon="34.6994498558"><ele>161.16</ele><time>2026-08-14T04:32:55Z</time></trkpt><trkpt lat="59.3505838327" lon="34.6994517837"><ele>159.93</ele><time>2026-08-14T04:33:26Z</time></trkpt><trkpt lat="59.3505907059" lon="34.6994763426"><ele>159.07</ele><time>2026-08-14T04:33:53Z</time></trkpt><trkpt lat="59.3506083917" lon="34.6994388755"><ele>158.75</ele><time>2026-08-14T04:34:25Z</time></trkpt><trkpt lat="59.3505953159" lon="34.6994632669"><ele>158.67</ele><time>2026-08-14T04:34:53Z</time></trkpt><trkpt lat="59.3506118283" lon="34.6994424798"><ele>158.57</ele><time>2026-08-14T04:35:21Z</time></trkpt><trkpt lat="59.3506219704" lon="34.6994580701"><ele>159.32</ele><time>2026-08-14T04:35:45Z</time></trkpt><trkpt lat="59.3506779615" lon="34.6995693818"><ele>159.03</ele><time>2026-08-14T04:36:02Z</time></trkpt><trkpt lat="59.3506672326" lon="34.6995858941"><ele>158.33</ele><time>2026-08-14T04:36:33Z</time></trkpt><trkpt lat="59.3506091461" lon="34.6995282266"><ele>158.18</ele><time>2026-08-14T04:36:57Z</time></trkpt><trkpt lat="59.3505743612" lon="34.6994318347"><ele>158.09</ele><time>2026-08-14T04:37:19Z</time></trkpt><trkpt lat="59.3505985849" lon="34.6994476765"><ele>158.19</ele><time>2026-08-14T04:37:39Z</time></trkpt><trkpt lat="59.3505899515" lon="34.6994608361"><ele>158.05</ele><time>2026-08-14T04:38:02Z</time></trkpt><trkpt lat="59.3505982496" lon="34.6994506102"><ele>159.50</ele><time>2026-08-14T04:38:33Z</time></trkpt></trkseg></trk></gpx>